[[[{"header":{"parameterUnit":"kt","parameterCategory":2,"dx":1,"dy":1,"la1":29.587661999999998,"la2":31.0,"lo1":-88.76705300000003,"lo2":-86.6583820000003,"nx":115,"ny":88,"refTime":"2022-09-25T06:00:00:Z","depth":0,"parameterNumber":1,"parameterNumberName":"U-component_of_WINDS"},"data":[22.5472,22.5472,22.5472,22.5472,22.5472,22.5472,22.5472,22.5472,22.5544,22.6115,22.7068,22.736,22.7646,22.8041,23.0681,23.2251,23.2679,23.3678,23.432,23.4534,23.4177,23.325,23.2465,23.2037,23.1181,23.1181,23.1537,23.1965,23.218,23.3535,23.4463,23.4463,23.4534,23.5034,23.5034,23.5105,23.5319,23.5533,23.6389,23.7317,23.7317,23.746,23.7959,23.8601,23.9243,24.0242,24.1099,24.1527,24.0824,23.9332,23.7326,23.6194,23.4882,23.3453,23.1509,22.9955,22.969,22.9892,22.9959,23.0562,23.1634,23.2103,23.2023,23.2602,23.3114,23.3076,23.2693,23.2769,23.3077,23.2734,23.299,23.3318,23.3845,23.3845,23.3845,23.3845,23.3845,23.3845,23.3845,23.3845,23.3845,23.391,23.391,23.4363,23.5481,23.6664,23.8243,23.8966,23.9689,24.0807,24.1859,24.1794,24.1728,24.1991,24.1991,24.1728,24.2122,24.232,24.2583,24.2846,24.324,24.3832,24.4095,24.4424,24.5279,24.6265,24.7054,24.7646,24.8238,24.8764,24.9882,25.0579,25.0103,24.9384,24.8595,22.5472,22.5472,22.5472,22.5472,22.5472,22.5472,22.5472,22.5472,22.5472,22.5615,22.5972,22.5927,22.6712,22.7354,22.8541,23.0396,23.1823,23.2465,23.275,23.2822,23.2822,23.1751,23.0967,23.0467,23.0039,22.9968,22.9968,23.011,23.0467,23.1965,23.2964,23.3153,23.3963,23.5034,23.5034,23.5034,23.5034,23.5176,23.5462,23.6104,23.6175,23.6175,23.6532,23.7103,23.7745,23.8458,23.9457,23.955,23.8481,23.6642,23.4276,23.3546,23.2674,23.1274,22.9808,22.9553,22.9221,22.9289,22.9423,22.9356,23.0092,23.0626,23.0207,23.0519,23.1505,23.1335,23.0623,23.0779,23.1484,23.1733,23.2266,23.2653,23.3311,23.3705,23.3845,23.3845,23.3845,23.3845,23.3845,23.3845,23.3845,23.3845,23.391,23.391,23.4626,23.5678,23.6664,23.7388,23.8243,23.9426,24.0084,24.015,24.0347,24.0544,24.061,24.0939,24.1662,24.1794,24.1794,24.2122,24.2517,24.2911,24.3175,24.3306,24.3701,24.4687,24.5476,24.6265,24.666,24.712,24.816,24.9054,24.8567,24.8032,24.7782,22.5472,22.5472,22.5472,22.5472,22.5472,22.5472,22.5472,22.5472,22.5472,22.5472,22.5472,22.5544,22.5829,22.6329,22.747,22.8969,22.9611,23.0752,23.1109,23.1181,23.1038,23.0182,22.9468,22.8826,22.8541,22.7684,22.7613,22.8255,22.904,23.0324,23.1751,23.2654,23.3036,23.3963,23.5034,23.5034,23.5034,23.5034,23.5034,23.539,23.5604,23.5462,23.5604,23.5676,23.6247,23.696,23.7508,23.68,23.5556,23.3728,23.2466,23.1883,23.005,22.8576,22.781,22.8081,22.8417,22.8485,22.8754,22.8752,22.8749,22.8606,22.8318,22.8631,22.9481,22.8657,22.8013,22.8732,22.9437,23.0154,23.068,23.1667,23.239,23.2916,23.3113,23.345,23.3647,23.3713,23.3845,23.3845,23.3845,23.3845,23.3845,23.3845,23.4108,23.502,23.5875,23.6664,23.7191,23.8045,23.8111,23.8308,23.8769,23.9032,23.9163,23.9821,24.0676,24.1005,24.107,24.1531,24.2057,24.2188,24.2385,24.2648,24.3043,24.3569,24.4095,24.4884,24.5345,24.5673,24.6504,24.7387,24.6809,24.629,24.5279,22.5472,22.5472,22.5472,22.5472,22.5472,22.5472,22.5472,22.5472,22.5472,22.5472,22.5472,22.5472,22.5544,22.5758,22.6685,22.7542,22.8112,22.9254,22.954,22.9611,22.9611,22.8755,22.7542,22.7256,22.6685,22.5758,22.5615,22.64,22.7399,22.8755,23.0182,23.1109,23.1894,23.2679,23.4035,23.4177,23.4534,23.4916,23.4468,23.404,23.4682,23.4799,23.4065,23.3944,23.3096,23.3607,23.3491,23.2947,23.189,23.0792,23.0866,22.9693,22.7674,22.609,22.5866,22.6541,22.6677,22.7082,22.7282,22.7276,22.7471,22.7054,22.6965,22.7146,22.679,22.5769,22.5617,22.6472,22.7327,22.8116,22.8971,23.022,23.1272,23.1798,23.2259,23.2719,23.3253,23.3516,23.3845,23.3845,23.3845,23.3845,23.3845,23.3845,23.3845,23.4297,23.5152,23.5612,23.6007,23.6204,23.6336,23.6401,23.6993,23.7585,23.7717,23.8308,23.9163,23.9558,23.9755,24.061,24.1596,24.1662,24.1662,24.1991,24.232,24.2714,24.3175,24.3766,24.4095,24.4215,24.485,24.5211,24.483,24.3566,24.2362,22.5472,22.5472,22.5472,22.5472,22.5472,22.5472,22.5472,22.5472,22.5472,22.5472,22.5472,22.5472,22.5472,22.5544,22.5829,22.6614,22.7328,22.7756,22.797,22.7996,22.8041,22.7399,22.6257,22.5686,22.5829,22.5615,22.5544,22.5686,22.6186,22.714,22.8093,22.821,22.9311,23.0271,23.1457,23.1741,23.2048,23.2661,23.2317,23.2431,23.3445,23.2933,23.1545,23.1444,23.0204,22.8924,22.8901,22.8188,22.7239,22.6251,22.576,22.5803,22.4856,22.3992,22.4597,22.5069,22.461,22.5213,22.5611,22.5332,22.5656,22.6038,22.6077,22.5862,22.5656,22.5045,22.4959,22.5683,22.634,22.7064,22.7656,22.8708,22.9497,23.0023,23.0812,23.1601,23.2193,23.2719,23.3048,23.3384,23.345,23.3845,23.3845,23.3845,23.3845,23.3845,23.4166,23.4231,23.4502,23.4502,23.4568,23.4568,23.5349,23.6138,23.627,23.6664,23.7585,23.8111,23.8243,23.8966,24.0084,24.061,24.0873,24.1268,24.1531,24.1859,24.2385,24.2714,24.3043,24.3087,24.3227,24.3236,24.2175,24.0848,23.9871,22.5472,22.5472,22.5472,22.5472,22.5472,22.5472,22.5472,22.5472,22.5472,22.5472,22.5472,22.5472,22.5472,22.5472,22.5544,22.5829,22.6471,22.6543,22.6543,22.6543,22.64,22.5927,22.5758,22.5544,22.5338,22.5472,22.5472,22.5086,22.5686,22.6239,22.6149,22.5991,22.6272,22.6817,22.7198,22.7789,22.8229,22.8491,22.934,23.0487,23.1131,23.1354,23.1181,23.1035,22.9178,22.831,22.7925,22.6305,22.5565,22.477,22.2856,22.253,22.2359,22.1729,22.2002,22.3006,22.2545,22.3013,22.3809,22.326,22.3708,22.4085,22.4127,22.3987,22.3987,22.4189,22.4372,22.4762,22.5486,22.6143,22.6603,22.7129,22.7656,22.8247,22.9234,23.0286,23.1009,23.1798,23.2259,23.2653,23.3048,23.3582,23.3845,23.3845,23.3845,23.3845,23.3845,23.3845,23.3845,23.3845,23.3845,23.3845,23.4429,23.4889,23.4757,23.4955,23.5875,23.6533,23.673,23.7388,23.8506,23.9097,23.9361,23.9887,24.061,24.1531,24.2188,24.2254,24.2178,24.2277,24.2428,24.1837,24.078,23.9217,23.8499,22.5472,22.5472,22.5472,22.5472,22.5472,22.5472,22.5472,22.5472,22.5472,22.5472,22.5472,22.5472,22.5472,22.5472,22.5472,22.5472,22.5544,22.5472,22.5472,22.5544,22.5758,22.5112,22.495,22.495,22.4376,22.4027,22.384,22.384,22.3652,22.4493,22.4147,22.3864,22.4082,22.3529,22.3156,22.2496,22.2194,22.265,22.475,22.6197,22.7385,22.7174,22.7391,22.6979,22.5455,22.4968,22.4823,22.3855,22.3431,22.3133,22.1659,22.0969,22.071,22.013,21.9876,22.0944,22.0551,22.0483,22.1608,22.1394,22.144,22.221,22.1873,22.1935,22.2263,22.2596,22.3057,22.3644,22.4368,22.5091,22.5683,22.6077,22.6472,22.7129,22.7919,22.8708,22.9234,23.0154,23.1404,23.1798,23.239,23.2916,23.3779,23.3845,23.3845,23.3845,23.3845,23.3845,23.3845,23.3845,23.3845,23.3845,23.4166,23.4297,23.4174,23.4174,23.4626,23.5086,23.5284,23.581,23.6862,23.7585,23.7782,23.8308,23.9163,24.0281,24.1465,24.1794,24.1662,24.162,24.1279,24.044,23.9646,23.8559,23.7676,22.5472,22.5472,22.5472,22.5472,22.5472,22.5472,22.5472,22.5472,22.5472,22.5472,22.5472,22.5472,22.5472,22.5472,22.5472,22.5472,22.5472,22.5472,22.5472,22.5472,22.5472,22.4051,22.3746,22.4098,22.2868,22.1257,22.0855,22.1506,21.9554,22.1207,22.2238,22.2176,22.1648,22.0755,21.9129,21.7921,21.6866,21.8184,22.0257,22.218,22.3227,22.2398,22.2842,22.2668,22.1557,22.0771,22.1076,22.1246,22.1201,22.1019,22.0965,22.0838,22.0517,22.0065,21.9739,21.9416,21.8493,21.8887,21.9543,21.9264,21.9574,22.0163,21.9633,21.9896,22.0356,22.0948,22.1672,22.2461,22.3052,22.3842,22.4631,22.4894,22.5222,22.6077,22.6801,22.7129,22.759,22.8576,22.9957,23.0746,23.1338,23.2259,23.3121,23.3845,23.3845,23.3845,23.3845,23.3845,23.3845,23.3845,23.3845,23.3845,23.3845,23.3845,23.391,23.3976,23.4371,23.4429,23.4568,23.4692,23.5284,23.6073,23.627,23.6796,23.7717,23.8571,23.9426,24.0084,24.0676,24.0515,24.0031,23.9138,23.8097,23.7185,23.5947,22.5472,22.5472,22.5472,22.5472,22.5472,22.5472,22.5472,22.5472,22.5472,22.5472,22.5472,22.5472,22.5472,22.5472,22.5472,22.5472,22.5472,22.5472,22.5472,22.5472,22.5472,22.3746,22.2676,22.2698,22.1057,21.9866,21.9502,21.9624,21.8393,21.9398,21.9814,21.9572,21.8409,21.7407,21.5539,21.4356,21.3342,21.4589,21.6812,21.8726,21.9161,21.9709,21.9832,21.9609,21.8688,21.7421,21.8025,21.8695,21.9299,21.9631,22.0103,22.0774,22.0453,21.9871,21.9086,21.8823,21.8028,21.7892,21.7952,21.7675,21.7663,21.8252,21.766,21.7989,21.9041,21.937,22.0225,22.1014,22.1474,22.2329,22.325,22.3513,22.4105,22.5222,22.5749,22.5749,22.6275,22.7195,22.8379,22.8773,22.9431,23.0878,23.1996,23.2792,23.3384,23.3582,23.3779,23.3845,23.3845,23.3845,23.3845,23.3845,23.3845,23.3845,23.3845,23.3845,23.3845,23.3845,23.3976,23.4108,23.4626,23.502,23.4955,23.5152,23.6073,23.6927,23.7585,23.8111,23.8703,23.8841,23.8373,23.7495,23.6587,23.5525,23.4548,22.5472,22.5472,22.5472,22.5472,22.5472,22.5472,22.5472,22.5472,22.5472,22.5472,22.5472,22.5472,22.5472,22.5472,22.5472,22.5472,22.5472,22.5472,22.4677,22.4422,22.4191,22.2627,22.0855,21.9935,21.9258,21.731,21.7255,21.7255,21.6605,21.7255,21.742,21.7365,21.6382,21.4119,21.2529,21.1924,21.1924,21.2426,21.4056,21.5857,21.5865,21.6544,21.7239,21.773,21.6475,21.6014,21.6684,21.7421,21.7567,21.7577,21.8297,21.8645,21.8004,21.8415,21.7696,21.7365,21.756,21.7157,21.6954,21.6357,21.6016,21.6477,21.6674,21.7068,21.7726,21.7923,21.8712,21.9633,22.0028,22.0817,22.1869,22.2132,22.2855,22.3973,22.4565,22.4565,22.5152,22.6143,22.6932,22.7393,22.7919,22.93,23.0746,23.1667,23.193,23.2061,23.2456,23.2653,23.2916,23.3187,23.3647,23.3713,23.3779,23.3845,23.3845,23.3845,23.3845,23.3845,23.3845,23.3845,23.3845,23.4108,23.4239,23.4502,23.4889,23.5284,23.5941,23.6533,23.6862,23.6816,23.5933,23.5167,23.4251,23.3392,23.1709,22.5472,22.5472,22.5472,22.5472,22.5472,22.5472,22.5472,22.5472,22.5472,22.5472,22.5472,22.5472,22.5472,22.5472,22.5472,22.5203,22.5041,22.5248,22.4237,22.2772,22.2433,21.9676,21.8086,21.7214,21.6883,21.3596,21.3884,21.4286,21.2583,21.4403,21.5214,21.5099,21.481,21.3765,21.2041,21.1924,21.1924,21.1924,21.1985,21.2554,21.2682,21.2939,21.3813,21.4479,21.426,21.4606,21.5276,21.5947,21.5967,21.5785,21.644,21.6326,21.5492,21.5967,21.5907,21.5511,21.5965,21.6152,21.6282,21.503,21.5161,21.5885,21.6016,21.6411,21.6542,21.674,21.7331,21.8384,21.8647,21.9304,22.0159,22.0882,22.1672,22.2526,22.3118,22.3513,22.4433,22.5217,22.6012,22.6669,22.7129,22.7787,22.93,23.0352,23.0417,23.0615,23.1075,23.147,23.1798,23.2259,23.3121,23.3384,23.3582,23.3713,23.3845,23.3845,23.3845,23.3845,23.3845,23.3845,23.3845,23.3845,23.3845,23.391,23.4239,23.4494,23.4757,23.502,23.5152,23.5201,23.419,23.3298,23.2021,23.0431,22.6893,22.5472,22.5472,22.5472,22.5472,22.5472,22.5472,22.5472,22.5472,22.5472,22.5472,22.5472,22.5472,22.5472,22.5472,22.5428,22.4859,22.4004,22.4329,22.2772,22.1527,22.0602,21.931,21.6994,21.5489,21.4868,21.2825,21.2644,21.2885,21.1862,21.259,21.3066,21.3186,21.2885,21.2764,21.1862,21.1924,21.1924,21.1924,21.1924,21.1924,21.1924,21.1924,21.2332,21.2466,21.2667,21.3007,21.3414,21.4155,21.424,21.4192,21.4533,21.4814,21.4502,21.4183,21.4055,21.3858,21.3724,21.3453,21.3452,21.3189,21.3583,21.457,21.4898,21.5556,21.6214,21.6542,21.6411,21.72,21.7266,21.7726,21.911,21.937,21.9962,22.1211,22.1803,22.2461,22.3381,22.4433,22.5157,22.5683,22.6077,22.6472,22.7656,22.8313,22.8379,22.851,22.9102,22.976,23.0286,23.1141,23.2061,23.2522,23.3055,23.3516,23.3845,23.3845,23.3845,23.3845,23.3845,23.3845,23.3845,23.3845,23.3845,23.3845,23.3845,23.3845,23.4108,23.4371,23.4239,23.391,23.321,23.2541,23.0897,22.7627,22.3409,22.4973,22.5472,22.5472,22.5472,22.5472,22.5472,22.5472,22.5472,22.5472,22.5472,22.5472,22.5472,22.5472,22.5472,22.5383,22.4283,22.2579,22.3746,22.1057,21.9346,21.8286,21.7159,21.5432,21.3647,21.3238,21.1918,21.1734,21.1862,21.1616,21.1918,21.1862,21.1801,21.1734,21.1678,21.1554,21.1368,21.1368,21.1301,21.1492,21.1678,21.1801,21.1924,21.1739,21.1616,21.1554,21.143,21.1378,21.2184,21.1945,21.1895,21.2495,21.2183,21.1541,21.2204,21.2207,21.1944,21.2403,21.2466,21.2466,21.1874,21.1742,21.2663,21.332,21.3846,21.4438,21.5359,21.5688,21.5951,21.6214,21.6871,21.786,21.7923,21.8449,21.9699,22.0619,22.1277,22.2198,22.3381,22.417,22.4433,22.4762,22.5354,22.5946,22.6406,22.6406,22.6603,22.7327,22.805,22.8905,22.976,23.0483,23.1009,23.193,23.2522,23.2785,23.3384,23.3845,23.3845,23.3845,23.3845,23.3845,23.3845,23.3845,23.3845,23.3845,23.3845,23.3845,23.3845,23.391,23.391,23.318,23.1929,22.8555,22.5186,22.0596,22.3974,22.533,22.5258,22.533,22.5472,22.5472,22.5472,22.5472,22.5472,22.5472,22.5472,22.5472,22.5472,22.5177,22.4651,22.3251,22.1775,22.1944,21.8978,21.6438,21.5088,21.4403,21.2998,21.2163,21.1801,21.0991,21.143,21.1368,21.1182,21.1363,21.1554,21.1678,21.1057,21.1306,21.1182,21.0745,21.049,21.0741,21.1057,21.1306,21.1616,21.1678,21.1492,21.112,21.087,21.0619,20.9985,21.0311,21.0124,20.9422,21.0137,20.9947,20.9436,21.0096,21.0361,21.0296,21.0756,21.1085,21.1019,21.0361,20.9967,21.0295,21.115,21.2268,21.2991,21.3781,21.4175,21.4372,21.5359,21.6082,21.6279,21.6608,21.7331,21.8384,21.9238,21.9896,22.0817,22.2066,22.2855,22.3184,22.3842,22.4696,22.5354,22.5091,22.5025,22.5683,22.6472,22.6669,22.7458,22.8313,22.8971,22.9628,23.068,23.147,23.1667,23.2061,23.2522,23.2719,23.2982,23.3318,23.3713,23.3845,23.3845,23.3845,23.3845,23.3845,23.3845,23.3845,23.3845,23.3845,23.3114,23.1563,22.8725,22.4272,21.9022,22.3403,22.376,22.376,22.4402,22.5472,22.5472,22.5472,22.5472,22.5428,22.5428,22.5472,22.5428,22.5428,22.4905,22.2146,22.043,21.9554,21.9554,21.6717,21.481,21.4002,21.3469,21.2096,21.1616,21.1306,21.0175,21.0803,21.0928,21.0741,21.0616,21.049,21.0364,21.0305,21.0364,21.0301,21.0115,20.9859,21.0175,21.0619,21.0866,21.1053,21.1182,21.0991,21.0741,21.0494,21.0112,20.9922,20.9859,20.9477,20.89,20.9029,20.8707,20.7993,20.8519,20.8717,20.8848,20.8914,20.9309,20.9112,20.8914,20.8454,20.8783,20.9638,21.0953,21.1874,21.2466,21.2794,21.2728,21.4044,21.4767,21.5161,21.5885,21.6477,21.7068,21.7926,21.8584,21.9373,22.0554,22.1474,22.2,22.2724,22.371,22.3907,22.371,22.4039,22.4828,22.5086,22.5283,22.6077,22.6932,22.7458,22.7853,22.8971,23.0023,23.0154,23.0417,23.1141,23.1601,23.193,23.239,23.3253,23.3582,23.3713,23.3845,23.3845,23.3845,23.3845,23.3845,23.3771,23.3476,23.2892,23.126,22.839,22.3504,21.8309,22.112,22.1191,22.1833,22.3046,22.4402,22.4474,22.4309,22.4049,22.4051,22.4051,22.4051,22.398,22.4051,22.3321,22.043,21.8163,21.7365,21.72,21.5146,21.3006,21.2945,21.2697,21.1363,21.1177,21.0678,20.9922,21.0049,21.0364,20.9922,20.9604,20.9668,20.9859,20.9668,20.9541,20.9985,20.9349,20.9221,20.9477,20.9795,21.0112,21.0364,21.0427,21.0301,20.9985,20.9604,20.9285,20.9029,20.9029,20.8771,20.8513,20.8383,20.8188,20.7927,20.7796,20.7796,20.7796,20.7796,20.7796,20.7796,20.7862,20.7862,20.8125,20.8586,20.9506,21.0098,21.0756,21.1216,21.1282,21.2597,21.3386,21.3715,21.4767,21.5293,21.5951,21.674,21.7331,21.7989,21.9173,22.0225,22.0882,22.154,22.2066,22.2395,22.2329,22.2526,22.3381,22.3973,22.4433,22.5157,22.5749,22.6077,22.6406,22.7524,22.8576,22.8642,22.8905,22.9694,23.0352,23.0746,23.1272,23.2324,23.3187,23.3384,23.345,23.3384,23.3582,23.3845,23.3845,23.3779,23.3263,23.2668,23.0576,22.8206,22.3075,21.6928,21.8337,21.8623,21.9688,22.1025,22.2244,22.2284,22.1977,22.1473,22.1705,22.1796,22.1725,22.1725,22.1577,22.0855,21.9083,21.7474,21.5944,21.5146,21.3706,21.198,21.198,21.1672,21.0745,21.0741,21.0175,20.9029,20.9413,20.9285,20.8834,20.8705,20.9029,20.9285,20.8964,20.8898,20.9221,20.8577,20.8123,20.8577,20.864,20.9093,20.9668,20.9795,20.9477,20.9093,20.8705,20.8447,20.8188,20.8123,20.7993,20.7927,20.7862,20.7796,20.7796,20.7796,20.7796,20.7796,20.7796,20.7796,20.7796,20.7796,20.7796,20.7796,20.7928,20.7796,20.8454,20.9243,20.9704,20.9769,21.1084,21.1874,21.2202,21.332,21.4109,21.4898,21.5688,21.6148,21.6805,21.8121,21.8712,21.9439,21.9502,22.0093,22.0817,22.0882,22.108,22.2,22.2855,22.3579,22.4236,22.4565,22.4828,22.5551,22.6538,22.6932,22.7129,22.7656,22.8379,22.9102,22.9431,22.976,23.068,23.1535,23.2127,23.2587,23.2653,23.2653,23.299,23.3253,23.3647,23.2835,23.1336,22.9437,22.7262,22.1565,21.5299,21.7338,21.835,21.6947,21.7219,21.8418,21.8084,21.7825,21.7971,21.8841,21.9328,21.9398,21.9293,21.8516,21.7489,21.7638,21.7365,21.5318,21.3298,21.2279,21.1368,21.1554,21.0803,21.0049,20.9922,20.9859,20.8448,20.8771,20.8642,20.8122,20.8123,20.8123,20.8318,20.8188,20.8123,20.8318,20.8058,20.7927,20.7993,20.7992,20.8318,20.8769,20.9029,20.8834,20.8705,20.8318,20.7993,20.7862,20.7796,20.7796,20.7796,20.7796,20.7796,20.7796,20.7796,20.7796,20.7796,20.7796,20.7796,20.7796,20.7796,20.7796,20.7796,20.7796,20.7796,20.7994,20.8125,20.8388,20.8454,20.9506,21.0427,21.0624,21.1742,21.2991,21.3912,21.4504,21.5227,21.6082,21.6674,21.7331,21.7529,21.7529,21.8121,21.8975,21.9238,21.9765,22.0619,22.1277,22.2066,22.3052,22.3316,22.3644,22.4433,22.5025,22.5354,22.6077,22.6603,22.7129,22.7721,22.7919,22.8379,22.9168,22.9957,23.0746,23.1404,23.1404,23.1206,23.1798,23.22,23.2073,23.1426,23.0011,22.7514,22.3775,21.869,21.4001,21.6625,21.7122,21.5003,21.4985,21.5989,21.4953,21.4096,21.4086,21.53,21.5989,21.6141,21.6705,21.6382,21.5944,21.6717,21.5831,21.3943,21.2224,21.1549,21.1053,21.1182,21.0427,20.9157,20.9477,20.89,20.8318,20.8123,20.8123,20.7862,20.7796,20.7862,20.7796,20.7796,20.7796,20.7796,20.7796,20.7796,20.7796,20.7862,20.7927,20.8252,20.8252,20.8318,20.8253,20.7993,20.7796,20.7796,20.7796,20.7796,20.7796,20.7796,20.7796,20.7796,20.7796,20.7796,20.7796,20.7796,20.7796,20.7796,20.7796,20.7796,20.7796,20.7796,20.7796,20.7796,20.7796,20.7862,20.7994,20.8717,20.8914,20.898,21.0295,21.1347,21.2268,21.2926,21.3978,21.503,21.5424,21.5819,21.6082,21.6345,21.6805,21.7463,21.7923,21.8449,21.9041,21.9633,22.0619,22.1803,22.2,22.2066,22.2789,22.3381,22.4105,22.5283,22.5683,22.6012,22.6209,22.6406,22.7064,22.7721,22.8313,22.9036,22.9694,22.9628,22.93,22.9891,23.068,23.0368,22.9838,22.6998,22.3944,22.0353,21.685,21.3135,21.5365,21.5403,21.2826,21.2528,21.3307,21.1622,21.0413,21.0272,21.1475,21.2087,21.236,21.3721,21.4334,21.4354,21.4606,21.3765,21.2522,21.1795,21.1239,21.0741,21.0682,20.9985,20.8836,20.89,20.8511,20.7993,20.7862,20.7862,20.7796,20.7796,20.7796,20.7796,20.7796,20.7796,20.7796,20.7796,20.7796,20.7796,20.7796,20.7796,20.7927,20.7927,20.7927,20.7862,20.7862,20.7796,20.7796,20.7796,20.7796,20.7796,20.7796,20.7796,20.7796,20.7796,20.7796,20.7796,20.7796,20.7796,20.7796,20.7796,20.7796,20.7796,20.7796,20.7796,20.7796,20.7796,20.7796,20.7862,20.7862,20.7862,20.7796,20.8914,20.9572,21.0229,21.1282,21.2465,21.3517,21.3781,21.3649,21.4307,21.5096,21.5753,21.6016,21.6345,21.7068,21.7792,21.8186,21.8975,22.0093,22.0488,22.0685,22.1211,22.1803,22.3118,22.4302,22.4302,22.4631,22.4762,22.5354,22.5946,22.6406,22.6801,22.6932,22.7327,22.7393,22.7656,22.8313,22.8971,22.8593,22.7353,22.3916,22.0369,21.6839,21.3458,21.0282,21.2163,21.3013,20.908,20.76,20.7634,20.6805,20.6339,20.6409,20.7635,20.8597,20.8568,20.9853,21.0946,21.0975,21.1843,21.2212,21.1734,21.1296,21.0803,21.0238,21.0175,20.9349,20.8448,20.8448,20.8383,20.7862,20.7796,20.7796,20.7796,20.7796,20.7796,20.7796,20.7796,20.7796,20.7796,20.7796,20.7796,20.7796,20.7796,20.7796,20.7796,20.7796,20.7796,20.7796,20.7796,20.7796,20.7796,20.7796,20.7796,20.7796,20.7796,20.7796,20.7796,20.7796,20.7796,20.7796,20.7796,20.7796,20.7796,20.7796,20.7796,20.7796,20.7796,20.7796,20.7796,20.7796,20.7796,20.7796,20.7796,20.7796,20.7796,20.8191,20.8849,20.9638,21.0032,21.1019,21.1939,21.1413,21.1676,21.2334,21.3254,21.4044,21.4438,21.4767,21.5688,21.6411,21.6674,21.7266,21.8318,21.9041,21.9567,22.0093,22.0619,22.1672,22.2066,22.2198,22.3118,22.3579,22.4368,22.4894,22.5288,22.542,22.542,22.542,22.5814,22.6472,22.7064,22.6666,22.5718,22.4739,22.1853,21.7676,21.3928,21.0159,20.8286,20.8839,21.0012,20.6661,20.5217,20.5106,20.4452,20.4147,20.4415,20.5629,20.6299,20.6568,20.7841,20.8444,20.8578,20.9181,21.0053,21.0461,21.0416,21.0132,20.9979,20.9859,20.9093,20.8188,20.8058,20.8188,20.7862,20.7796,20.7796,20.7796,20.7796,20.7796,20.7796,20.7796,20.7796,20.7796,20.7796,20.7796,20.7796,20.7796,20.7796,20.7796,20.7796,20.7796,20.7796,20.7796,20.7796,20.7796,20.7796,20.7796,20.7796,20.7796,20.7796,20.7796,20.7796,20.7796,20.7796,20.7796,20.7796,20.7796,20.7796,20.7796,20.7796,20.7796,20.7796,20.7796,20.7796,20.7796,20.7796,20.7796,20.7796,20.7796,20.7796,20.7994,20.8717,20.8783,20.944,21.0558,21.0493,21.0361,21.0887,21.1676,21.2465,21.2926,21.3189,21.3978,21.5096,21.5424,21.5753,21.6871,21.7529,21.8121,21.8515,21.9173,21.9765,21.9962,22.0554,22.1474,22.2198,22.3052,22.371,22.3776,22.3842,22.3973,22.4499,22.4894,22.542,22.4688,22.344,22.2489,22.064,21.8024,21.4795,21.1541,20.8932,20.6946,20.5236,20.682,20.3996,20.2938,20.2879,20.246,20.2328,20.2731,20.3812,20.4415,20.5153,20.6366,20.6903,20.697,20.7506,20.8042,20.9114,20.9255,20.9234,20.9181,20.9258,20.8369,20.7004,20.6744,20.6941,20.7205,20.727,20.7468,20.7796,20.7796,20.7796,20.7796,20.7796,20.7796,20.7796,20.7796,20.7796,20.7796,20.7796,20.7796,20.7796,20.7796,20.7796,20.7796,20.7796,20.7796,20.7796,20.7796,20.7796,20.7796,20.7796,20.7796,20.7796,20.7796,20.7796,20.7796,20.7796,20.7796,20.7796,20.7796,20.7796,20.7796,20.7796,20.7796,20.7796,20.7796,20.7796,20.7796,20.7796,20.7796,20.7796,20.7796,20.7928,20.7928,20.7994,20.8388,20.9177,20.9375,20.9375,20.9704,21.0427,21.1414,21.1676,21.1742,21.24,21.3583,21.4175,21.4504,21.5096,21.5819,21.6148,21.6411,21.72,21.8252,21.8449,21.8778,21.9633,22.0356,22.1606,22.2461,22.2,22.1869,22.2329,22.2987,22.3776,22.3039,22.2298,22.1038,21.9168,21.6235,21.3496,21.1197,20.9171,20.7648,20.5756,20.1176,20.246,20.0183,19.9186,19.931,19.9224,19.999,20.092,20.1381,20.2119,20.3468,20.4832,20.5368,20.5562,20.6433,20.7372,20.764,20.764,20.7356,20.7283,20.6951,20.6128,20.4634,20.4506,20.4969,20.5758,20.589,20.6481,20.7073,20.7599,20.7731,20.7599,20.7731,20.7796,20.7796,20.7796,20.7796,20.7796,20.7796,20.7796,20.7796,20.7796,20.7796,20.7796,20.7796,20.7796,20.7796,20.7796,20.7796,20.7796,20.7796,20.7796,20.7796,20.7796,20.7796,20.7796,20.7796,20.7796,20.7796,20.7796,20.7796,20.7796,20.7796,20.7796,20.7796,20.7796,20.7796,20.7796,20.7796,20.7796,20.7796,20.7796,20.7796,20.7796,20.7796,20.7796,20.7994,20.7994,20.7994,20.806,20.8125,20.8914,20.9704,21.0295,21.0756,21.2137,21.2531,21.2926,21.3517,21.4175,21.457,21.4635,21.5424,21.6542,21.6805,21.7003,21.7792,21.8712,22.0028,22.0422,21.9962,22.0291,22.0751,22.1474,22.2395,22.2074,22.0278,21.7995,21.6113,21.3379,20.9847,20.7819,20.6278,20.5184,20.451,19.7624,19.9121,19.7925,19.7433,19.7567,19.8372,19.9042,19.9512,19.9637,20.0383,20.1599,20.2479,20.3149,20.4013,20.4616,20.5354,20.6098,20.6165,20.6447,20.67,20.626,20.498,20.3747,20.3513,20.3849,20.4377,20.4377,20.4772,20.5363,20.6218,20.6481,20.6679,20.7402,20.7796,20.7731,20.7796,20.7796,20.7796,20.7796,20.7796,20.7796,20.7796,20.7796,20.7796,20.7796,20.7796,20.7796,20.7796,20.7796,20.7796,20.7796,20.7796,20.7796,20.7796,20.7796,20.7796,20.7796,20.7796,20.7796,20.7796,20.7796,20.7796,20.7796,20.7796,20.7796,20.7796,20.7796,20.7796,20.7796,20.7796,20.7796,20.7796,20.7796,20.7796,20.7796,20.7796,20.7796,20.7796,20.7796,20.7796,20.7796,20.806,20.852,20.8651,20.944,21.0427,21.0887,21.1347,21.1939,21.2663,21.3123,21.3123,21.3649,21.457,21.503,21.5359,21.5951,21.7068,21.8055,21.8055,21.8121,21.8712,21.9173,21.983,22.0948,22.0764,21.7841,21.5212,21.3131,21.0284,20.6597,20.435,20.4103,20.3311,20.2907,19.5082,19.6389,19.6084,19.5957,19.6091,19.703,19.7701,19.8103,19.8094,19.8899,19.999,20.02,20.0871,20.1993,20.2328,20.3007,20.3946,20.4482,20.5421,20.5919,20.5084,20.3867,20.2971,20.2574,20.26,20.293,20.293,20.3192,20.3652,20.464,20.5035,20.5166,20.6416,20.7205,20.7336,20.7599,20.7796,20.7796,20.7796,20.7796,20.7796,20.7796,20.7796,20.7796,20.7796,20.7796,20.7796,20.7796,20.7796,20.7796,20.7796,20.7796,20.7796,20.7796,20.7796,20.7796,20.7796,20.7796,20.7796,20.7796,20.7796,20.7796,20.7796,20.7796,20.7796,20.7796,20.7796,20.7796,20.7796,20.7796,20.7796,20.7796,20.7796,20.7796,20.7796,20.7796,20.7796,20.7796,20.7796,20.7796,20.7796,20.7796,20.7928,20.7994,20.8323,20.9112,20.944,20.9704,21.0361,21.1019,21.1611,21.1611,21.2071,21.2794,21.3386,21.3715,21.4372,21.549,21.5753,21.5753,21.5951,21.6674,21.7331,21.7914,21.8688,21.8139,21.534,21.2383,20.979,20.7442,20.4545,20.2755,20.2241,20.1875,20.1393,19.427,19.4326,19.4348,19.4426,19.4426,19.4627,19.5431,19.6551,19.6643,19.746,19.8573,19.8802,19.8936,19.932,20.0518,20.0996,20.1264,20.2471,20.3342,20.3098,20.2564,20.1976,20.1236,20.0264,20.0492,20.1352,20.1484,20.2076,20.2994,20.3455,20.3652,20.3719,20.5035,20.5758,20.6021,20.7139,20.7599,20.7599,20.7731,20.7796,20.7796,20.7796,20.7796,20.7796,20.7796,20.7796,20.7731,20.7468,20.7533,20.7665,20.7402,20.7336,20.7665,20.7731,20.7665,20.7599,20.7796,20.7796,20.7796,20.7796,20.7796,20.7796,20.7796,20.7796,20.7796,20.7796,20.7796,20.7796,20.7796,20.7796,20.7796,20.7796,20.7796,20.7796,20.7796,20.7796,20.7796,20.7796,20.7796,20.7796,20.7796,20.7796,20.7796,20.7796,20.7862,20.8125,20.8191,20.8257,20.8783,20.9506,20.9967,21.0427,21.0953,21.1545,21.2071,21.24,21.286,21.3649,21.3649,21.3517,21.3519,21.4307,21.5096,21.553,21.5884,21.477,21.2814,20.984,20.7065,20.4828,20.3162,20.1743,20.0847,20.0443,19.9963,19.4157,19.4157,19.4157,19.4157,19.4157,19.4157,19.4493,19.5018,19.5064,19.588,19.7097,19.7318,19.7845,19.8649,19.9186,19.9454,19.9588,20.0929,20.1188,20.0334,19.9683,19.9566,19.9577,19.8856,19.9093,19.9837,20.0037,20.0366,20.0826,20.1681,20.2141,20.2404,20.3588,20.4311,20.4443,20.5692,20.6481,20.6613,20.727,20.7796,20.7796,20.7796,20.7796,20.7796,20.7796,20.7796,20.7665,20.5955,20.5035,20.51,20.51,20.51,20.5231,20.5955,20.6481,20.6613,20.7205,20.7731,20.7796,20.7599,20.7796,20.7796,20.7796,20.7796,20.7796,20.7796,20.7796,20.7796,20.7796,20.7796,20.7796,20.7796,20.7796,20.7796,20.7796,20.7796,20.7796,20.7796,20.7796,20.7796,20.7796,20.7796,20.7796,20.7796,20.7796,20.7796,20.7796,20.7796,20.7928,20.8323,20.8454,20.8849,20.9506,21.0098,21.0624,21.1084,21.1479,21.1611,21.1611,21.1347,21.1479,21.24,21.3057,21.3563,21.4341,21.3536,21.1597,20.8281,20.5011,20.2646,20.058,19.9723,19.9105,19.8799,19.8379,19.2817,19.2817,19.2817,19.2884,19.294,19.3353,19.3487,19.3554,19.4023,19.4761,19.5689,19.5823,19.636,19.7174,19.7835,19.8036,19.8046,19.885,19.8975,19.8123,19.8111,19.8321,19.8403,19.7876,19.7865,19.8174,19.8452,19.8788,19.9379,20.0234,20.0695,20.0958,20.2141,20.2799,20.2994,20.4246,20.4969,20.51,20.5955,20.6416,20.6481,20.6876,20.7139,20.7139,20.7139,20.6876,20.6416,20.4639,20.3586,20.3652,20.3586,20.3586,20.3718,20.4443,20.4969,20.51,20.5955,20.6416,20.6481,20.635,20.635,20.6416,20.635,20.6481,20.6546,20.6744,20.7073,20.7139,20.7533,20.7796,20.7796,20.7796,20.7533,20.7139,20.7533,20.7796,20.7796,20.7796,20.7796,20.7796,20.7796,20.7796,20.7796,20.7796,20.7796,20.7796,20.7796,20.7796,20.7796,20.7928,20.7796,20.7796,20.7862,20.8454,20.898,20.944,20.9704,20.9769,20.9704,20.9506,21.0164,21.0887,21.1347,21.1936,21.2989,21.2428,21.0347,20.7585,20.4216,20.1439,19.85,19.7377,19.7203,19.6913,19.6585,18.9989,19.019,18.9989,19.0257,19.0525,19.1598,19.2068,19.2269,19.342,19.3822,19.3956,19.4157,19.4359,19.4627,19.5901,19.6494,19.636,19.6427,19.6494,19.6638,19.7653,19.7919,19.7544,19.6828,19.631,19.6036,19.6729,19.7864,19.8853,19.9116,19.9248,19.9511,20.0695,20.1352,20.1352,20.2733,20.3586,20.3588,20.3849,20.3849,20.3784,20.5035,20.5626,20.5692,20.5561,20.4903,20.3654,20.3455,20.3192,20.3257,20.3257,20.3455,20.3192,20.352,20.3586,20.3522,20.3588,20.3718,20.3784,20.3915,20.3983,20.3983,20.3784,20.4047,20.431,20.4969,20.5692,20.5824,20.6679,20.7533,20.7402,20.7402,20.6942,20.6087,20.6613,20.7336,20.7533,20.7731,20.7796,20.7796,20.7796,20.7796,20.7796,20.7796,20.7796,20.7796,20.7796,20.7796,20.7796,20.7796,20.7796,20.7796,20.7796,20.7862,20.7862,20.7862,20.7928,20.806,20.8191,20.8323,20.9112,20.944,20.9901,21.0098,21.115,21.1609,20.9641,20.6127,20.2916,20.1138,19.6555,19.4089,19.4476,19.4967,19.462,18.8983,18.9855,18.9867,18.9867,18.9989,19.0391,19.0604,19.0671,19.1097,19.1298,19.1487,19.2325,19.2783,19.3018,19.4292,19.4426,19.3543,19.3543,19.4013,19.4895,19.5033,19.5251,19.541,19.4893,19.4765,19.5082,19.543,19.5763,19.6227,19.7275,19.7735,19.7867,19.9248,19.9906,20.0169,20.1286,20.2076,20.2336,20.2996,20.352,20.3586,20.3983,20.418,20.4048,20.3259,20.247,20.2076,20.1155,20.0629,20.0629,20.0629,20.0629,20.0695,20.1549,20.201,20.2207,20.293,20.3586,20.3586,20.3586,20.352,20.352,20.352,20.3586,20.3586,20.3981,20.4244,20.431,20.4706,20.4903,20.4902,20.4902,20.4706,20.4443,20.4574,20.5232,20.6218,20.635,20.6744,20.7402,20.7599,20.7731,20.7796,20.7796,20.7796,20.7796,20.7796,20.7796,20.7796,20.7796,20.7796,20.7796,20.7796,20.7796,20.7796,20.7796,20.7862,20.7928,20.7994,20.7928,20.8257,20.8323,20.8454,20.8586,20.9046,20.9704,20.8144,20.4642,20.2903,20.2187,19.7575,19.2494,19.2683,19.2996,19.3271,18.9155,18.931,18.8571,18.8312,18.8325,18.8916,18.9062,18.9062,18.9641,18.9843,19.0068,19.0907,19.1242,19.1275,19.2269,19.2079,19.133,19.133,19.1799,19.2493,19.2599,19.2992,19.358,19.3118,19.3192,19.387,19.3973,19.425,19.4842,19.5763,19.6289,19.6486,19.7209,19.7999,19.8525,19.9379,20.0103,20.0629,20.1484,20.1944,20.1944,20.247,20.247,20.1944,20.1089,20.0563,20.0629,19.9774,19.9314,19.9314,19.9314,19.9314,19.9379,20.0103,20.0629,20.0695,20.1484,20.1944,20.1944,20.1944,20.1944,20.1944,20.1944,20.1942,20.201,20.2404,20.2733,20.2865,20.3128,20.2863,20.247,20.247,20.2797,20.2799,20.3193,20.3983,20.464,20.4903,20.5166,20.5955,20.6218,20.6481,20.681,20.7468,20.7731,20.7796,20.7796,20.7796,20.7796,20.7796,20.7796,20.7796,20.7796,20.7796,20.7796,20.7796,20.7796,20.7796,20.7796,20.7796,20.7796,20.7928,20.7994,20.8125,20.806,20.8586,20.8717,20.5302,20.3191,20.1566,19.5711,19.1641,19.165,19.1786,19.2107,18.9969,18.7771,18.6011,18.5308,18.5442,18.6917,18.752,18.7642,18.8976,18.9595,18.9452,18.9733,18.9733,18.9653,18.9653,18.9788,18.9855,18.9855,18.9989,19.0269,19.0784,19.1386,19.1845,19.1529,19.1676,19.2249,19.2293,19.3001,19.4321,19.4645,19.4649,19.4715,19.4912,19.5631,19.6749,19.7012,19.767,19.8788,19.9182,19.9248,19.9379,20.0366,20.03,19.9182,19.8985,19.8985,19.8985,19.9051,19.8985,19.8985,19.8853,19.8985,19.8985,19.8985,19.8919,19.8985,19.9051,19.9051,19.9051,19.9182,19.9248,19.9248,19.9511,19.9379,19.9774,20.0629,20.1221,20.1286,20.201,20.1484,19.9577,20.0103,20.0958,20.1089,20.2339,20.3126,20.3389,20.3391,20.3455,20.3784,20.3915,20.4377,20.5429,20.681,20.7139,20.727,20.7533,20.7533,20.7468,20.7665,20.7731,20.7796,20.7796,20.7731,20.7665,20.7336,20.7468,20.7731,20.7796,20.7796,20.7796,20.7796,20.7796,20.7796,20.7796,20.7796,20.7796,20.6542,20.444,19.9714,19.4023,19.0501,19.0176,19.0513,19.0813,18.4757,18.3083,18.2473,18.2827,18.402,18.5442,18.6045,18.6099,18.6529,18.6609,18.6783,18.7838,18.7637,18.6783,18.6649,18.7252,18.8124,18.8191,18.8849,18.9867,19.0158,19.0082,18.9747,18.9243,18.9333,18.9978,18.9734,19.0305,19.1686,19.2672,19.3198,19.3395,19.4316,19.4978,19.5368,19.5434,19.5631,19.6092,19.7144,19.767,19.7604,19.6946,19.642,19.6092,19.5964,19.6026,19.6026,19.5964,19.5964,19.603,19.5964,19.5964,19.6026,19.5964,19.6026,19.5964,19.5964,19.5964,19.5964,19.7078,19.767,19.7735,19.8722,19.9314,19.9314,19.9577,19.984,19.9708,19.8196,19.7144,19.6161,19.7341,19.8258,19.8327,19.9511,20.0892,20.1747,20.1944,20.2273,20.3389,20.3257,20.3718,20.4048,20.4443,20.4837,20.4969,20.5626,20.6218,20.635,20.7073,20.7665,20.7796,20.7731,20.7336,20.6481,20.6218,20.681,20.727,20.7599,20.7533,20.7796,20.7731,20.7731,20.7007,20.7599,20.7731,20.7533,20.7272,20.5808,19.9633,19.3933,18.984,18.9158,18.9317,18.9676,18.3252,18.2177,18.1316,18.1486,18.2358,18.3229,18.3632,18.3752,18.4261,18.4596,18.4637,18.4755,18.4408,18.3632,18.4302,18.4972,18.5844,18.6447,18.7185,18.8056,18.8386,18.8488,18.8333,18.7847,18.8008,18.8696,18.7948,18.7937,18.8792,18.9581,19.0305,19.0962,19.2343,19.3395,19.3856,19.3921,19.4189,19.4842,19.5697,19.5828,19.5302,19.4974,19.4715,19.4715,19.4715,19.4715,19.4715,19.4715,19.4715,19.4715,19.4715,19.4715,19.4715,19.4715,19.4715,19.4715,19.4715,19.4715,19.4715,19.5631,19.6157,19.6157,19.6946,19.7344,19.7472,19.7472,19.741,19.7213,19.5894,19.4715,19.4912,19.5631,19.6157,19.6289,19.6881,19.7735,19.859,19.9182,19.9906,20.0758,20.1418,20.1878,20.2534,20.2602,20.2865,20.3586,20.418,20.4772,20.4837,20.5429,20.5955,20.6021,20.6021,20.5626,20.5035,20.4772,20.51,20.5758,20.6021,20.6021,20.589,20.6021,20.6086,20.602,20.6416,20.681,20.6942,20.6878,20.5879,20.0288,19.459,19.1994,18.948,18.9137,18.8778,18.3496,18.3338,18.1279,18.0615,18.0749,18.1017,18.1084,18.1271,18.251,18.3063,18.2693,18.1572,18.1091,18.1166,18.2492,18.3095,18.3229,18.4436,18.4972,18.512,18.5849,18.6639,18.7022,18.687,18.7098,18.7516,18.6606,18.6213,18.6491,18.6425,18.6951,18.8194,18.9581,19.0962,19.208,19.2343,19.3067,19.4321,19.4255,19.3593,19.2409,19.3658,19.4386,19.4448,19.4321,19.4386,19.4123,19.4386,19.4255,19.4189,19.4053,19.4053,19.386,19.386,19.386,19.3856,19.386,19.3926,19.386,19.4189,19.4321,19.4386,19.4649,19.4912,19.4912,19.4321,19.3992,19.4119,19.4185,19.3926,19.4321,19.4513,19.4584,19.4584,19.4846,19.4715,19.5175,19.6026,19.6881,19.6881,19.813,19.9248,20.0234,20.0629,20.1286,20.2139,20.2797,20.3389,20.3389,20.3718,20.3915,20.3323,20.3192,20.3128,20.3325,20.3323,20.3586,20.3718,20.3652,20.3915,20.4047,20.3981,20.3652,20.4507,20.4772,20.5429,20.5758,20.6285,20.5091,19.9903,19.7381,19.5915,19.1002,18.898,18.824,18.0444,18.03,17.8381,17.8201,17.9408,18.0481,18.1017,18.1002,18.1255,18.0919,18.0063,18.0658,18.0979,18.1017,18.1352,18.1486,18.1553,18.1821,18.1956,18.2157,18.3391,18.4128,18.4262,18.4896,18.5433,18.616,18.5546,18.5509,18.6155,18.6228,18.6359,18.682,18.8135,18.9049,18.9318,19.0436,19.116,19.1357,19.0371,18.9647,18.9444,19.0699,19.1488,19.1488,19.1488,19.1488,19.1488,19.1488,19.0962,18.991,18.9779,18.9318,18.8266,18.8135,18.8135,18.8201,18.8135,18.8135,18.8266,19.0173,19.1488,19.1488,19.3466,19.4715,19.4386,19.0765,18.8595,18.9581,18.991,19.0371,19.1357,19.2409,19.3132,19.3198,19.4058,19.4386,19.4715,19.5044,19.5241,19.5368,19.5565,19.5898,19.642,19.7275,19.8196,19.8919,20.0497,20.1747,20.201,20.2865,20.2404,20.1023,20.0234,20.0629,20.1681,20.1812,20.2273,20.3455,20.3455,20.3323,20.3323,20.3455,20.352,20.3389,20.3719,20.3917,20.3983,20.4377,20.2946,19.9793,19.7288,19.4447,19.0454,18.8776,18.7342,17.9685,17.8081,17.7951,17.7842,17.7799,17.8603,17.8939,17.8872,17.8897,17.8443,17.7866,17.8603,17.8939,17.9006,17.9676,18.0011,18.0011,18.0682,18.1017,18.1017,18.1821,18.2224,18.2238,18.2441,18.2743,18.3148,18.2608,18.2721,18.3597,18.3605,18.4215,18.5241,18.5965,18.6688,18.7405,18.8135,18.8529,18.8529,18.774,18.7346,18.7411,18.8135,18.8529,18.8595,18.8529,18.8529,18.8529,18.8529,18.8201,18.7411,18.7405,18.7017,18.6228,18.6228,18.6228,18.6228,18.6228,18.6228,18.6228,18.7674,18.8529,18.8595,18.9976,19.0634,18.9916,18.7609,18.6557,18.728,18.7346,18.7674,18.8464,18.9253,18.9713,18.9713,19.0371,19.1094,19.1751,19.2343,19.3006,19.3724,19.4321,19.4715,19.4715,19.55,19.6026,19.6157,19.7209,19.859,19.9314,19.9445,19.8919,19.767,19.7801,19.859,19.9248,19.9906,20.0695,20.1418,20.1549,20.1549,20.1549,20.1549,20.1484,20.1549,20.2141,20.247,20.247,20.306,20.2032,19.9583,19.7341,19.4675,19.0878,18.9004,18.7412,17.9921,17.7068,17.8766,17.8278,17.6474,17.6474,17.6474,17.6474,17.6525,17.6474,17.6474,17.6474,17.6474,17.6592,17.7933,17.8469,17.8603,17.981,18.0347,18.0347,18.0548,18.0682,18.0682,18.0409,18.0277,18.017,17.9526,17.9525,18.022,18.0241,18.1148,18.2932,18.3203,18.3992,18.5504,18.603,18.5767,18.4978,18.5373,18.5636,18.5636,18.603,18.6228,18.6228,18.6228,18.6228,18.6228,18.603,18.5833,18.5636,18.5373,18.5176,18.4978,18.4847,18.4978,18.4978,18.4978,18.4978,18.4978,18.4978,18.511,18.5307,18.5702,18.511,18.34,18.4321,18.5044,18.5241,18.511,18.5439,18.5899,18.603,18.6228,18.6359,18.6294,18.6688,18.8128,18.9253,19.0305,19.1357,19.2869,19.3335,19.3461,19.386,19.4123,19.4386,19.5109,19.5434,19.6355,19.5434,19.4711,19.4974,19.596,19.6618,19.7012,19.7867,19.8393,19.8594,19.8656,19.8656,19.8656,19.8853,19.9116,19.8985,20.0234,20.0958,20.1089,20.2076,20.1506,19.9676,19.8144,19.6028,19.0981,18.869,18.6898,17.9563,17.894,17.9277,17.8278,17.6474,17.6474,17.6474,17.6474,17.6474,0.0,0.0,17.6474,17.6474,17.6525,17.6793,17.6927,17.6927,17.7195,17.7263,17.733,17.8603,17.9207,17.9274,18.0309,18.0648,18.017,17.9513,17.9104,17.8832,17.8267,17.8252,17.86,17.8666,17.9981,18.2734,18.5044,18.386,17.9389,18.1427,18.2677,18.28,18.4978,18.6228,18.6228,18.6228,18.6228,18.6162,18.511,18.3926,18.2743,18.1493,18.0244,17.9126,17.8994,17.8994,17.8994,17.8994,17.8994,17.8994,17.8994,17.952,18.077,18.3014,18.2808,17.8929,17.8863,17.952,18.0647,18.0836,18.1822,18.4255,18.4452,18.4978,18.6096,18.6228,18.6228,18.6557,18.6885,18.7083,18.728,18.7806,18.8201,18.945,19.0568,19.1686,19.2804,19.3724,19.4912,19.4912,19.379,19.3067,19.3992,19.4518,19.5109,19.5175,19.5631,19.5504,19.5767,19.5701,19.5504,19.5701,19.6618,19.7341,19.7472,19.8656,19.9379,19.9642,19.9774,19.9782,19.9339,19.7276,19.4361,19.0801,18.6541,18.2565,17.7954,17.6998,17.7947,17.7649,0.0,17.6474,17.5721,17.4313,17.438,17.4715,17.5385,17.5385,17.5855,17.6474,17.6474,17.6474,17.6474,17.6474,17.6474,17.6592,17.733,17.7665,17.7665,17.8402,17.8582,17.8321,17.794,17.7917,17.8114,17.7519,17.7533,17.7927,17.7584,17.8205,17.9708,18.1033,18.0375,17.7482,17.8929,17.9652,17.9718,18.1033,18.1756,18.1756,18.1756,0.0,0.0,0.0,0.0,0.0,0.0,0.0,0.0,17.7482,0.0,17.643,17.6364,17.6035,17.5312,17.5367,17.5575,17.6364,17.8403,17.8139,17.4523,17.5575,17.6956,17.8403,17.8534,17.9126,18.0573,18.0704,18.1033,18.169,18.1756,18.2085,18.2808,18.3532,18.4321,18.4978,18.5767,18.6425,18.7214,18.7937,18.8595,18.9318,19.0634,19.1751,19.2278,19.0765,18.9581,19.0305,19.1554,19.2743,19.3527,19.4189,19.4781,19.4715,19.4715,19.4715,19.4715,19.5434,19.596,19.596,19.6486,19.695,19.7012,19.695,19.7012,19.6698,19.4609,19.168,18.8652,18.5979,18.2721,17.6841,17.4693,17.6591,17.6891,17.6211,17.5806,17.438,17.2234,17.2234,17.2838,17.3977,17.3977,17.4648,17.5653,17.5721,17.5721,17.5721,17.5721,17.5855,17.6123,17.6123,17.6257,17.6525,17.6474,17.6474,17.6474,17.6423,17.6664,17.7343,17.676,17.682,17.7401,17.6904,17.6824,17.7022,0.0,0.0,0.0,17.6956,17.7087,17.7087,17.735,17.7482,17.7482,17.7482,0.0,17.7482,17.7219,17.7087,17.7022,17.6824,0.0,0.0,0.0,0.0,0.0,0.0,0.0,0.0,0.0,0.0,0.0,17.2484,17.2024,17.0051,17.2221,17.4325,17.5706,17.5838,17.6101,17.6561,17.6627,17.6824,17.7416,17.7482,17.7942,17.9004,18.031,18.1493,18.2677,18.3795,18.4715,18.5176,18.5373,18.5636,18.6359,18.7214,18.8135,18.8792,18.7411,18.6294,18.6359,18.8332,19.0108,19.1225,19.2212,19.2677,19.3593,19.3593,19.3593,19.3729,19.4119,19.4321,19.4382,19.4518,19.4846,19.4846,19.4715,19.4912,19.4781,19.3034,19.0154,18.649,18.5004,18.3045,17.8028,17.5092,17.6809,17.6632,17.5034,17.3449,17.2569,17.2234,17.2234,17.2301,17.2502,17.2502,17.2569,17.2771,17.2771,17.2771,17.2771,17.2771,17.3441,17.4581,17.4648,17.5318,17.6474,17.6474,17.6474,17.6474,17.601,17.5624,17.5298,17.466,17.4188,17.3898,17.3788,17.4391,17.5509,17.4325,17.3788,17.3788,17.4983,17.5641,17.5641,17.6824,17.7482,17.7482,17.7482,17.7482,17.7416,17.6298,17.5641,17.5575,17.4391,17.3196,17.1958,17.1892,17.1235,0.0,16.9722,0.0,0.0,0.0,0.0,0.0,0.0,0.0,0.0,16.6895,16.8473,16.992,16.9985,17.1038,17.3471,17.3734,17.4775,17.7153,17.7482,17.7548,17.7679,17.7876,17.8139,17.8271,17.8468,17.9652,18.2085,18.2537,18.3589,18.5373,18.5965,18.5373,18.3795,18.4715,18.5833,18.6228,18.6557,18.7017,18.728,18.7411,18.8003,18.899,18.9384,18.9647,19.0897,19.2015,19.2804,19.2935,19.3593,19.4452,19.4715,19.4584,19.4584,19.4321,19.3882,19.1594,18.5779,18.1803,17.8647,17.3847,17.2222,17.3057,17.2071,16.9821,16.8071,16.7273,16.7273,16.7273,16.7273,16.734,16.8212,16.9016,16.9754,16.9754,17.0223,17.096,17.096,17.1765,17.3173,17.3173,17.3508,17.4111,17.4111,17.4581,17.5318,17.5063,17.5208,17.5751,17.5243,17.4648,17.4181,17.3858,17.3402,17.2945,17.2353,17.2418,17.3196,17.3799,17.4128,17.4128,17.472,17.5104,17.5115,17.5115,17.5049,17.5115,17.4457,17.4128,17.4128,17.2747,17.1366,16.992,16.9131,16.7618,0.0,0.0,0.0,0.0,0.0,0.0,0.0,0.0,0.0,0.0,0.0,16.4527,16.5185,16.5988,16.6961,16.821,16.9131,17.0117,17.1366,17.2221,17.2747,17.2747,17.4128,17.5049,17.517,17.6496,17.7942,17.9257,17.9455,17.9981,18.1164,18.1362,18.0901,17.9915,18.1164,18.2545,18.2677,18.3992,18.5044,18.5044,18.5702,18.6425,18.7017,18.7148,18.7346,18.8003,18.8661,18.9055,18.9121,18.9581,19.0042,19.0042,19.0042,19.0042,19.0042,19.0042,18.8292,18.3828,18.0136,17.7171,17.0251,16.949,16.7928,16.6163,16.4267,16.2899,16.2312,16.2265,16.2312,16.2265,16.2332,16.3519,16.4611,16.5471,16.5308,16.6178,16.7614,16.7614,16.8717,17.0625,17.0625,17.1027,17.1631,17.1698,17.2435,17.3776,17.3742,17.4177,17.5197,17.475,17.4231,17.3653,17.2938,17.1799,17.0105,17.038,17.1103,17.2155,17.2539,17.2682,17.2682,17.3065,17.3262,17.3262,17.3262,17.3262,17.3196,17.2933,17.2484,17.2155,17.0775,16.9196,16.7421,16.6303,0.0,0.0,0.0,0.0,0.0,0.0,0.0,0.0,0.0,15.8478,15.9135,0.0,16.1108,0.0,16.2766,16.3555,16.3884,16.4988,0.0,0.0,16.7224,16.7828,16.7947,17.0117,17.1683,17.1683,17.4194,17.6101,17.643,17.6759,17.6824,17.6496,17.6759,17.6956,17.7022,17.8205,17.9126,17.9389,18.1033,18.248,18.248,18.3466,18.4189,18.5044,18.5504,18.5833,18.6162,18.6228,18.6228,18.6228,18.6228,18.6228,18.6359,18.6228,18.5965,18.4913,18.4445,18.3635,18.1895,17.9005,17.6244,17.0255,16.8134,16.235,15.979,15.9592,15.9341,15.9362,15.9362,15.9362,15.9362,15.9362,15.9496,15.9331,15.8977,15.8486,0.0,16.1162,16.1095,16.3004,16.6133,16.6133,16.7541,17.0089,16.9972,17.0893,17.2368,17.1916,17.1664,17.1629,17.1169,17.0602,17.0081,16.9239,16.8252,16.721,16.8407,16.9196,16.9275,17.0577,17.1235,17.1235,17.2484,17.3262,17.3196,17.3262,17.3196,17.3196,17.1892,17.0577,16.9328,16.7881,16.5843,16.3015,0.0,0.0,0.0,0.0,0.0,0.0,0.0,0.0,0.0,0.0,0.0,0.0,0.0,0.0,16.0122,16.045,0.0,16.2357,16.2555,0.0,0.0,0.0,16.487,16.4988,16.6369,16.7342,16.7289,0.0,0.0,17.3339,17.4654,17.4983,17.3668,17.4654,17.5509,17.5509,17.6759,17.7613,17.7613,17.7876,17.8074,17.8468,17.8534,17.952,18.1822,18.34,18.4518,18.557,18.5899,18.6096,18.5833,18.6162,18.603,18.6162,18.5767,18.4978,18.091,17.9487,17.8987,17.9532,17.6769,17.3996,16.427,15.9975,15.6495,15.5004,15.5004,15.5004,15.554,15.6345,15.6345,15.6096,15.5868,15.5868,15.5526,15.5064,15.4944,0.0,0.0,0.0,15.8722,16.1151,16.1084,16.2363,16.4477,16.4658,16.5865,16.8145,16.8016,16.8387,16.914,16.8942,16.6494,16.1964,0.0,0.0,16.2818,16.5119,16.6645,16.7618,16.9065,16.9788,16.9788,17.0314,17.0577,17.0643,17.0643,17.0577,17.0577,16.9262,16.821,16.7618,16.4527,16.1831,0.0,0.0,0.0,0.0,0.0,0.0,0.0,0.0,0.0,0.0,0.0,15.1179,15.3151,0.0,0.0,0.0,15.4239,15.5256,15.5782,15.541,0.0,0.0,0.0,0.0,0.0,0.0,0.0,16.4067,16.6632,16.8999,17.038,17.038,17.0248,17.0577,17.1892,17.3076,17.3931,0.0,17.6232,17.6167,17.689,17.7482,17.7482,17.7482,17.7811,17.906,17.9718,18.031,18.0836,18.0901,18.0901,18.0967,18.0901,18.0967,18.0901,18.0967,18.0244,17.8675,17.7938,17.7242,17.6222,17.3553,17.0672,15.7338,0.0,0.0,0.0,0.0,15.0719,15.1522,15.2859,15.2859,15.2613,15.223,15.1942,0.0,0.0,0.0,0.0,0.0,0.0,15.4112,15.626,15.6466,15.7766,15.9785,15.9852,16.1239,16.3653,16.351,16.3998,16.4936,16.3186,15.978,15.4908,0.0,0.0,0.0,0.0,16.3498,16.4908,16.6855,16.7987,16.8276,16.8736,16.888,16.888,16.888,16.8736,16.8276,16.65,16.5119,16.425,16.0516,0.0,0.0,0.0,0.0,0.0,0.0,0.0,0.0,0.0,0.0,0.0,0.0,0.0,0.0,0.0,0.0,0.0,0.0,0.0,15.1621,15.1099,15.178,0.0,0.0,0.0,0.0,0.0,0.0,0.0,0.0,0.0,16.5777,16.558,16.6171,0.0,0.0,17.0511,17.2287,17.3471,17.426,17.4654,17.5575,0.0,17.6232,17.6288,17.6364,17.6824,17.6824,17.7022,17.7416,17.7482,17.7482,17.7548,17.7482,17.689,17.5509,17.5312,17.5717,17.5889,17.5769,17.513,17.347,17.0577,16.7757,0.0,0.0,0.0,0.0,0.0,0.0,0.0,0.0,14.8917,14.8872,0.0,14.7455,0.0,0.0,0.0,0.0,14.6143,14.6723,0.0,0.0,15.2324,15.4088,15.6702,15.6702,15.7573,15.9115,15.8517,15.8283,15.8129,15.2314,0.0,0.0,0.0,0.0,0.0,0.0,15.9436,16.045,16.3673,16.5849,16.6816,16.821,16.8868,16.8814,16.8814,16.8144,16.6763,16.3936,16.1174,15.8412,15.5519,0.0,0.0,0.0,0.0,0.0,0.0,0.0,0.0,0.0,0.0,0.0,0.0,0.0,0.0,0.0,0.0,0.0,0.0,0.0,0.0,15.1591,0.0,0.0,0.0,0.0,0.0,0.0,0.0,0.0,0.0,16.1371,15.8807,16.0714,16.3541,16.6421,0.0,0.0,0.0,0.0,17.1695,17.3065,17.3328,17.3328,17.3394,17.3394,17.3799,17.518,0.0,0.0,17.7153,17.7416,17.7285,17.7416,17.7153,17.5706,17.0141,17.0177,17.1195,17.1946,17.1609,17.169,17.1959,16.8208,16.5246,0.0,0.0,0.0,0.0,0.0,0.0,0.0,0.0,0.0,14.5706,0.0,14.4866,0.0,0.0,0.0,0.0,0.0,0.0,0.0,0.0,14.7277,14.8653,15.143,15.0765,15.1099,0.0,15.2094,15.0823,0.0,0.0,0.0,0.0,0.0,0.0,0.0,0.0,15.744,15.7541,16.1613,16.379,16.3921,16.5251,16.558,16.4659,16.4593,16.3475,16.1159,15.9135,15.6768,0.0,0.0,0.0,0.0,0.0,0.0,0.0,0.0,0.0,0.0,0.0,0.0,0.0,0.0,0.0,0.0,0.0,0.0,0.0,0.0,0.0,0.0,0.0,14.481,0.0,0.0,0.0,0.0,0.0,0.0,0.0,0.0,0.0,15.4186,15.6308,15.8872,16.0779,16.3475,16.604,16.7947,0.0,0.0,0.0,0.0,0.0,0.0,0.0,17.3394,17.3865,17.3142,17.2682,17.3208,17.255,17.1892,17.1892,0.0,0.0,16.4936,16.2989,16.2284,16.2561,16.3756,16.4063,16.1843,16.0759,15.9749,0.0,0.0,0.0,0.0,0.0,0.0,0.0,0.0,0.0,14.2307,14.1934,0.0,0.0,0.0,0.0,0.0,0.0,0.0,0.0,0.0,0.0,0.0,14.7211,14.6523,0.0,0.0,0.0,0.0,0.0,0.0,0.0,0.0,0.0,0.0,0.0,0.0,15.4446,15.5597,15.927,16.1649,16.2532,16.2869,16.2766,16.2292,16.1371,15.9924,15.8133,0.0,0.0,0.0,0.0,0.0,0.0,0.0,0.0,0.0,0.0,0.0,0.0,0.0,0.0,0.0,0.0,0.0,0.0,0.0,0.0,0.0,0.0,0.0,0.0,0.0,14.072,0.0,0.0,0.0,0.0,0.0,0.0,0.0,0.0,0.0,0.0,15.2954,15.5124,15.7031,15.9793,16.2489,16.4922,16.65,16.7947,0.0,0.0,0.0,0.0,0.0,0.0,0.0,0.0,0.0,0.0,0.0,0.0,0.0,0.0,16.194,15.8567,15.6905,15.5981,15.5744,0.0,0.0,0.0,0.0,0.0,0.0,0.0,0.0,0.0,0.0,0.0,0.0,0.0,0.0,0.0,13.8356,0.0,0.0,13.6294,0.0,0.0,0.0,0.0,0.0,0.0,0.0,0.0,0.0,0.0,0.0,0.0,0.0,0.0,0.0,0.0,0.0,0.0,0.0,0.0,0.0,0.0,0.0,15.4427,15.6511,15.9295,16.2722,16.1164,16.0911,16.2029,15.9464,15.7952,15.787,0.0,0.0,0.0,0.0,0.0,0.0,0.0,0.0,0.0,0.0,0.0,0.0,0.0,0.0,0.0,0.0,0.0,0.0,0.0,0.0,0.0,0.0,0.0,0.0,0.0,0.0,13.9696,14.154,14.2827,0.0,0.0,0.0,0.0,0.0,0.0,0.0,0.0,0.0,15.5321,15.5847,15.7491,16.1568,16.341,16.4856,16.6434,16.7815,16.8802,16.8868,16.8868,16.8868,0.0,0.0,0.0,0.0,0.0,0.0,0.0,0.0,0.0,0.0,0.0,0.0,0.0,0.0,0.0,0.0,0.0,0.0,0.0,0.0,0.0,0.0,0.0,0.0,0.0,0.0,0.0,0.0,0.0,0.0,0.0,0.0,0.0,0.0,0.0,0.0,0.0,0.0,0.0,0.0,0.0,0.0,0.0,0.0,0.0,0.0,0.0,0.0,0.0,0.0,0.0,0.0,0.0,0.0,15.0127,15.2973,15.5962,15.8283,16.0063,16.011,15.9924,15.9317,15.7491,15.6045,0.0,0.0,0.0,0.0,0.0,0.0,0.0,0.0,0.0,0.0,0.0,0.0,0.0,0.0,0.0,0.0,0.0,0.0,0.0,0.0,0.0,0.0,0.0,0.0,0.0,0.0,0.0,0.0,13.8858,14.0263,14.1249,0.0,0.0,0.0,0.0,0.0,0.0,0.0,0.0,0.0,0.0,15.6373,15.7623,15.9004,16.0845,16.3278,16.4001,16.4659,16.5593,16.5725,16.579,16.579,0.0,0.0,0.0,0.0,0.0,0.0,0.0,0.0,0.0,0.0,0.0,0.0,0.0,0.0,0.0,0.0,0.0,0.0,0.0,0.0,0.0,0.0,0.0,0.0,0.0,0.0,0.0,0.0,0.0,0.0,0.0,0.0,0.0,0.0,0.0,0.0,0.0,0.0,0.0,0.0,0.0,0.0,0.0,0.0,0.0,0.0,0.0,0.0,0.0,0.0,0.0,0.0,0.0,14.836,15.1003,15.4133,15.6588,15.824,15.848,15.8083,15.7278,15.5304,15.3283,0.0,0.0,0.0,0.0,0.0,0.0,0.0,0.0,0.0,0.0,0.0,0.0,0.0,0.0,0.0,0.0,0.0,0.0,0.0,0.0,0.0,0.0,0.0,0.0,0.0,0.0,0.0,0.0,13.5895,13.7499,13.9648,0.0,0.0,0.0,0.0,0.0,0.0,0.0,0.0,0.0,0.0,15.3612,15.4203,15.5453,0.0,0.0,15.9924,16.0977,16.1897,16.2438,16.2832,16.2766,16.2094,0.0,0.0,0.0,0.0,0.0,0.0,0.0,0.0,0.0,0.0,0.0,0.0,0.0,0.0,0.0,0.0,0.0,0.0,0.0,0.0,0.0,0.0,0.0,0.0,0.0,0.0,0.0,0.0,0.0,0.0,0.0,0.0,0.0,0.0,0.0,0.0,0.0,0.0,0.0,0.0,0.0,0.0,0.0,0.0,0.0,0.0,0.0,0.0,0.0,0.0,0.0,0.0,0.0,14.8694,15.157,15.4425,15.7147,15.6384,15.5847,15.5716,15.3068,15.0258,0.0,0.0,0.0,0.0,0.0,0.0,0.0,0.0,0.0,0.0,0.0,0.0,0.0,0.0,0.0,0.0,0.0,0.0,0.0,0.0,0.0,0.0,0.0,0.0,0.0,0.0,0.0,0.0,0.0,0.0,0.0,0.0,0.0,0.0,0.0,0.0,0.0,0.0,0.0,0.0,0.0,14.9995,15.1244,15.2625,15.3497,0.0,15.5847,15.7557,15.7607,15.8675,15.9596,15.9596,0.0,0.0,0.0,0.0,0.0,0.0,0.0,0.0,0.0,0.0,0.0,0.0,0.0,0.0,0.0,0.0,0.0,0.0,0.0,0.0,0.0,0.0,0.0,0.0,0.0,0.0,0.0,0.0,0.0,0.0,0.0,0.0,0.0,0.0,0.0,0.0,0.0,0.0,0.0,0.0,0.0,0.0,0.0,0.0,0.0,0.0,0.0,0.0,0.0,0.0,0.0,0.0,0.0,0.0,14.8694,15.1504,15.3894,15.5639,15.5857,15.5387,15.4335,15.2559,0.0,0.0,0.0,0.0,0.0,0.0,0.0,0.0,0.0,0.0,0.0,0.0,0.0,0.0,0.0,0.0,0.0,0.0,0.0,0.0,0.0,0.0,0.0,0.0,0.0,0.0,0.0,12.9263,0.0,0.0,0.0,0.0,0.0,0.0,0.0,0.0,0.0,0.0,0.0,0.0,0.0,0.0,14.96,14.9995,15.0324,15.0981,0.0,0.0,15.3265,15.3265,15.348,15.3743,0.0,0.0,0.0,0.0,0.0,0.0,0.0,0.0,0.0,0.0,0.0,0.0,0.0,0.0,0.0,0.0,0.0,0.0,0.0,0.0,0.0,0.0,0.0,0.0,0.0,0.0,0.0,0.0,0.0,0.0,0.0,0.0,0.0,0.0,0.0,0.0,0.0,0.0,0.0,0.0,0.0,0.0,0.0,0.0,0.0,0.0,0.0,0.0,0.0,0.0,0.0,0.0,0.0,0.0,0.0,14.6945,15.0288,15.2765,15.4113,15.4266,15.3853,15.2888,15.1442,14.9009,0.0,0.0,0.0,0.0,0.0,0.0,0.0,0.0,0.0,0.0,0.0,0.0,0.0,0.0,0.0,0.0,0.0,0.0,0.0,0.0,0.0,0.0,0.0,0.0,0.0,0.0,0.0,0.0,0.0,0.0,0.0,0.0,0.0,0.0,0.0,0.0,0.0,0.0,0.0,0.0,0.0,0.0,14.9403,14.8877,0.0,0.0,0.0,15.0652,15.0652,0.0,0.0,0.0,0.0,0.0,0.0,0.0,0.0,0.0,0.0,0.0,0.0,0.0,0.0,0.0,0.0,0.0,0.0,0.0,0.0,0.0,0.0,0.0,0.0,0.0,0.0,0.0,0.0,0.0,0.0,0.0,0.0,0.0,0.0,0.0,0.0,0.0,0.0,0.0,0.0,0.0,0.0,0.0,0.0,0.0,0.0,0.0,0.0,0.0,0.0,0.0,0.0,0.0,0.0,0.0,0.0,0.0,14.4467,14.8429,15.1238,15.254,15.234,15.1916,15.1358,15.0126,14.7365,0.0,0.0,0.0,0.0,0.0,0.0,0.0,0.0,0.0,0.0,0.0,0.0,0.0,0.0,0.0,0.0,0.0,0.0,0.0,0.0,0.0,0.0,0.0,0.0,0.0,0.0,0.0,0.0,0.0,0.0,0.0,0.0,0.0,0.0,0.0,0.0,0.0,0.0,0.0,0.0,0.0,14.7496,14.9009,14.8022,14.7628,0.0,0.0,14.9206,14.9206,15.131,0.0,0.0,0.0,0.0,0.0,0.0,0.0,0.0,0.0,0.0,0.0,0.0,0.0,0.0,0.0,0.0,0.0,0.0,0.0,0.0,0.0,0.0,0.0,0.0,0.0,0.0,0.0,0.0,0.0,0.0,0.0,0.0,0.0,0.0,0.0,0.0,0.0,0.0,0.0,0.0,0.0,0.0,0.0,0.0,0.0,0.0,0.0,0.0,0.0,0.0,0.0,0.0,0.0,0.0,0.0,0.0,14.3917,14.732,14.9642,15.0686,15.1407,15.119,14.9929,14.96,14.743,0.0,0.0,0.0,0.0,0.0,0.0,0.0,0.0,0.0,0.0,0.0,0.0,0.0,0.0,0.0,0.0,0.0,0.0,0.0,0.0,0.0,0.0,0.0,0.0,0.0,0.0,0.0,0.0,0.0,0.0,0.0,0.0,0.0,0.0,0.0,0.0,0.0,0.0,0.0,0.0,0.0,14.5984,14.743,14.7365,0.0,0.0,0.0,0.0,14.7628,14.8088,0.0,0.0,0.0,0.0,0.0,0.0,0.0,0.0,0.0,0.0,0.0,0.0,0.0,0.0,0.0,0.0,0.0,0.0,0.0,0.0,0.0,0.0,0.0,0.0,0.0,0.0,0.0,0.0,0.0,0.0,0.0,0.0,0.0,0.0,0.0,0.0,0.0,0.0,0.0,0.0,0.0,0.0,0.0,0.0,0.0,0.0,0.0,0.0,0.0,0.0,0.0,0.0,0.0,0.0,0.0,0.0,14.3652,14.6236,14.8357,15.0018,14.9871,14.9704,14.9469,14.8088,14.5918,0.0,0.0,0.0,0.0,0.0,0.0,0.0,0.0,0.0,0.0,0.0,0.0,0.0,0.0,0.0,0.0,0.0,0.0,0.0,0.0,0.0,0.0,0.0,0.0,0.0,0.0,0.0,0.0,0.0,0.0,0.0,0.0,0.0,0.0,0.0,0.0,0.0,0.0,0.0,0.0,14.3682,14.5523,14.697,0.0,0.0,0.0,0.0,0.0,0.0,14.7759,14.7582,0.0,0.0,0.0,0.0,0.0,0.0,0.0,0.0,0.0,0.0,0.0,0.0,0.0,0.0,0.0,0.0,0.0,0.0,0.0,0.0,0.0,0.0,0.0,0.0,0.0,0.0,0.0,0.0,0.0,0.0,0.0,0.0,0.0,0.0,0.0,0.0,0.0,0.0,0.0,0.0,0.0,0.0,0.0,0.0,0.0,0.0,0.0,0.0,0.0,0.0,0.0,0.0,0.0,0.0,0.0,14.2792,14.4844,14.6963,14.9153,14.8294,14.8242,14.9055,14.6444,14.4142,14.2235,0.0,0.0,0.0,0.0,0.0,0.0,0.0,0.0,0.0,0.0,0.0,0.0,0.0,0.0,0.0,0.0,0.0,0.0,0.0,0.0,0.0,0.0,0.0,0.0,0.0,0.0,0.0,0.0,0.0,0.0,0.0,0.0,0.0,0.0,0.0,0.0,0.0,0.0,0.0,14.263,14.48,0.0,0.0,0.0,0.0,0.0,0.0,0.0,0.0,14.7473,0.0,0.0,0.0,0.0,0.0,0.0,0.0,0.0,0.0,0.0,0.0,0.0,0.0,0.0,0.0,0.0,0.0,0.0,0.0,0.0,0.0,0.0,0.0,0.0,0.0,0.0,0.0,0.0,0.0,0.0,0.0,0.0,0.0,0.0,0.0,0.0,0.0,0.0,0.0,0.0,0.0,0.0,0.0,0.0,0.0,0.0,0.0,0.0,0.0,0.0,0.0,0.0,0.0,0.0,0.0,0.0,14.2484,14.4597,14.5746,14.6733,14.7326,14.743,14.5918,14.3177,0.0,0.0,0.0,0.0,0.0,0.0,0.0,0.0,0.0,0.0,0.0,0.0,0.0,0.0,0.0,0.0,0.0,0.0,0.0,0.0,0.0,0.0,0.0,0.0,0.0,0.0,0.0,0.0,0.0,0.0,0.0,0.0,0.0,0.0,0.0,0.0,0.0,0.0,0.0,13.8838,14.0328,0.0,0.0,0.0,0.0,0.0,0.0,0.0,0.0,14.6992,0.0,0.0,0.0,0.0,0.0,0.0,0.0,0.0,0.0,0.0,0.0,0.0,0.0,0.0,0.0,0.0,0.0,0.0,0.0,0.0,0.0,0.0,0.0,0.0,0.0,0.0,0.0,0.0,0.0,0.0,0.0,0.0,0.0,0.0,0.0,0.0,0.0,0.0,0.0,0.0,0.0,0.0,0.0,0.0,0.0,0.0,0.0,0.0,0.0,0.0,0.0,0.0,0.0,0.0,0.0,0.0,0.0,0.0,14.4066,14.4997,14.6444,14.6773,14.5984,14.3945,14.1402,0.0,0.0,0.0,0.0,0.0,0.0,0.0,0.0,0.0,0.0,0.0,0.0,0.0,0.0,0.0,0.0,0.0,0.0,0.0,0.0,0.0,0.0,0.0,0.0,0.0,0.0,0.0,0.0,0.0,0.0,0.0,0.0,0.0,0.0,0.0,0.0,0.0,0.0,0.0,0.0,0.0,0.0,0.0,0.0,0.0,0.0,0.0,0.0,0.0,0.0,0.0,0.0,0.0,0.0,0.0,0.0,0.0,0.0,0.0,0.0,0.0,0.0,0.0,0.0,0.0,0.0,0.0,0.0,0.0,0.0,0.0,0.0,0.0,0.0,0.0,0.0,0.0,0.0,0.0,0.0,0.0,0.0,0.0,0.0,0.0,0.0,0.0,0.0,0.0,0.0,0.0,0.0,0.0,0.0,0.0,0.0,0.0,0.0,0.0,0.0,0.0,0.0,0.0,0.0,0.0,0.0,0.0,0.0,14.3779,14.4603,14.6247,14.6444,14.5063,14.1972,13.9276,0.0,0.0,0.0,0.0,0.0,0.0,0.0,0.0,0.0,0.0,0.0,0.0,0.0,0.0,0.0,0.0,0.0,0.0,0.0,0.0,0.0,0.0,0.0,0.0,0.0,0.0,0.0,0.0,0.0,0.0,0.0,0.0,0.0,0.0,0.0,0.0,0.0,0.0,0.0,0.0,0.0,0.0,0.0,0.0,0.0,0.0,0.0,0.0,14.2284,0.0,0.0,0.0,0.0,0.0,0.0,0.0,0.0,0.0,0.0,0.0,0.0,0.0,0.0,0.0,0.0,0.0,0.0,0.0,0.0,0.0,0.0,0.0,0.0,0.0,0.0,0.0,0.0,0.0,0.0,0.0,0.0,0.0,0.0,0.0,0.0,0.0,0.0,0.0,0.0,0.0,0.0,0.0,0.0,0.0,0.0,0.0,0.0,0.0,0.0,0.0,0.0,0.0,0.0,0.0,0.0,0.0,0.0,0.0,14.3049,14.3135,14.5721,14.6444,14.4997,14.0942,13.6909,0.0,0.0,0.0,0.0,0.0,0.0,0.0,0.0,0.0,0.0,0.0,0.0,0.0,0.0,0.0,0.0,0.0,0.0,0.0,0.0,0.0,0.0,0.0,0.0,0.0,0.0,0.0,0.0,0.0,0.0,0.0,0.0,0.0,0.0,0.0,0.0,0.0,0.0,0.0,0.0,0.0,0.0,0.0,0.0,0.0,0.0,0.0,0.0,0.0,0.0,0.0,0.0,0.0,0.0,0.0,0.0,0.0,0.0,0.0,0.0,0.0,0.0,0.0,0.0,0.0,0.0,0.0,0.0,0.0,0.0,0.0,0.0,0.0,0.0,0.0,0.0,0.0,0.0,0.0,0.0,0.0,0.0,0.0,0.0,0.0,0.0,0.0,0.0,0.0,0.0,0.0,0.0,0.0,0.0,0.0,0.0,0.0,0.0,0.0,0.0,0.0,0.0,0.0,0.0,0.0,0.0,0.0,0.0,13.9539,14.0394,14.1578,14.1862,14.127,13.7918,13.5222,0.0,0.0,0.0,0.0,0.0,0.0,0.0,0.0,0.0,0.0,0.0,0.0,0.0,0.0,0.0,0.0,0.0,0.0,0.0,0.0,0.0,0.0,0.0,0.0,0.0,0.0,0.0,0.0,0.0,0.0,0.0,0.0,0.0,0.0,0.0,0.0,0.0,0.0,0.0,0.0,0.0,0.0,0.0,0.0,0.0,0.0,0.0,0.0,0.0,0.0,0.0,0.0,0.0,0.0,0.0,0.0,0.0,0.0,0.0,0.0,0.0,0.0,0.0,0.0,0.0,0.0,0.0,0.0,0.0,0.0,0.0,0.0,0.0,0.0,0.0,0.0,0.0,0.0,0.0,0.0,0.0,0.0,0.0,0.0,0.0,0.0,0.0,0.0,0.0,0.0,0.0,0.0,0.0,0.0,0.0,0.0,0.0,0.0,0.0,0.0,0.0,0.0,0.0,0.0,0.0,0.0,0.0,0.0,0.0,13.7961,13.726,13.7106,13.7435,13.4673,13.2963,0.0,0.0,0.0,0.0,0.0,0.0,0.0,0.0,0.0,0.0,0.0,0.0,0.0,0.0,0.0,0.0,0.0,0.0,0.0,0.0,0.0,0.0,0.0,0.0,0.0,0.0,0.0,0.0,0.0,0.0,0.0,0.0,0.0,0.0,0.0,0.0,0.0,0.0,0.0,0.0,0.0,0.0,0.0,0.0,0.0,0.0,0.0,0.0,0.0,0.0,0.0,0.0,0.0,0.0,0.0,0.0,0.0,0.0,0.0,0.0,0.0,0.0,0.0,0.0,0.0,0.0,0.0,0.0,0.0,0.0,0.0,0.0,0.0,0.0,0.0,0.0,0.0,0.0,0.0,0.0,0.0,0.0,0.0,0.0,0.0,0.0,0.0,0.0,0.0,0.0,0.0,0.0,0.0,0.0,0.0,0.0,0.0,0.0,0.0,0.0,0.0,0.0,0.0,0.0,0.0,0.0,0.0,0.0,0.0,13.658,13.3818,13.3095,13.4476,13.1673,12.9478,0.0,0.0,0.0,0.0,0.0,0.0,0.0,0.0,0.0,0.0,0.0,0.0,0.0,0.0,0.0,0.0,0.0,0.0,0.0,0.0,0.0,0.0,0.0,0.0,0.0,0.0,0.0,0.0,0.0,0.0,0.0,0.0,0.0,0.0,0.0,0.0,0.0,0.0,0.0,0.0,0.0,0.0,0.0,0.0,0.0,0.0,0.0,0.0,0.0,0.0,0.0,0.0,0.0,0.0,0.0,0.0,0.0,0.0,0.0,0.0,0.0,0.0,0.0,0.0,0.0,0.0,0.0,0.0,0.0,0.0,0.0,0.0,0.0,0.0,0.0,0.0,0.0,0.0,0.0,0.0,0.0,0.0,0.0,0.0,0.0,0.0,0.0,0.0,0.0,0.0,0.0,0.0,0.0,0.0,0.0,0.0,0.0,0.0,0.0,0.0,0.0,0.0,0.0,0.0,0.0,0.0,0.0,0.0,0.0,13.2306,13.1254,13.1385,13.2832,13.0004,12.8689,12.8952,0.0,0.0,0.0,0.0,0.0,0.0,0.0,0.0,0.0,0.0,0.0,0.0,0.0,0.0,0.0,0.0,0.0,0.0,0.0,0.0,0.0,0.0,0.0,0.0,0.0,0.0,0.0,0.0,0.0,0.0,0.0,0.0,0.0,0.0,0.0,0.0,0.0,0.0,0.0,0.0,0.0,0.0,0.0,0.0,0.0,0.0,0.0,0.0,0.0,0.0,0.0,0.0,0.0,0.0,0.0,0.0,0.0,0.0,0.0,0.0,0.0,0.0,0.0,0.0,0.0,0.0,0.0,0.0,0.0,0.0,0.0,0.0,0.0,0.0,0.0,0.0,0.0,0.0,0.0,0.0,0.0,0.0,0.0,0.0,0.0,0.0,0.0,0.0,0.0,0.0,0.0,0.0,0.0,0.0,0.0,0.0,0.0,0.0,0.0,0.0,0.0,0.0,0.0,0.0,0.0,0.0,0.0,0.0,13.053,13.053,13.0793,13.1254,12.8952,12.7769,0.0,0.0,0.0,0.0,0.0,0.0,0.0,0.0,0.0,0.0,0.0,0.0,0.0,0.0,0.0,0.0,0.0,0.0,0.0,0.0,0.0,0.0,0.0,0.0,0.0,0.0,0.0,0.0,0.0,0.0,0.0,0.0,0.0,0.0,0.0,0.0,0.0,0.0,0.0,0.0,0.0,0.0,0.0,0.0,0.0,0.0,0.0,0.0,0.0,0.0,0.0,0.0,0.0,0.0,0.0,0.0,0.0,0.0,0.0,0.0,0.0,0.0,0.0,0.0,0.0,0.0,0.0,0.0,0.0,0.0,0.0,0.0,0.0,0.0,0.0,0.0,0.0,0.0,0.0,0.0,0.0,0.0,0.0,0.0,0.0,0.0,0.0,0.0,0.0,0.0,0.0,0.0,0.0,0.0,0.0,0.0,0.0,0.0,0.0,0.0,0.0,0.0,0.0,0.0,0.0,0.0,0.0,0.0,0.0,13.1846,13.1846,13.1188,12.9939,12.8426,12.6388,0.0,0.0,0.0,0.0,0.0,0.0,0.0,0.0,0.0,0.0,0.0,0.0,0.0,0.0,0.0,0.0,0.0,0.0,0.0,0.0,0.0,0.0,0.0,0.0,0.0,0.0,0.0,0.0,0.0,0.0,0.0,0.0,0.0,0.0,0.0,0.0,0.0,0.0,0.0,0.0,0.0,0.0,0.0,0.0,0.0,0.0,0.0,0.0,0.0,0.0,0.0,0.0,0.0,0.0,0.0,0.0,0.0,0.0,0.0,0.0,0.0,0.0,0.0,0.0,0.0,0.0,0.0,0.0,0.0,0.0,0.0,0.0,0.0,0.0,0.0,0.0,0.0,0.0,0.0,0.0,0.0,0.0,0.0,0.0,0.0,0.0,0.0,0.0,0.0,0.0,0.0,0.0,0.0,0.0,0.0,0.0,0.0,0.0,0.0,0.0,0.0,0.0,0.0,0.0,0.0,0.0,0.0,0.0,0.0,13.0489,0.0,12.9873,0.0,12.7045,12.5335,0.0,0.0,0.0,0.0,0.0,0.0,0.0,0.0,0.0,0.0,0.0,0.0,0.0,0.0,0.0,0.0,0.0,0.0,0.0,0.0,0.0,0.0,0.0,0.0,0.0,0.0,0.0,0.0,0.0,0.0,0.0,0.0,0.0,0.0,0.0,0.0,0.0,0.0,0.0,0.0,0.0,0.0,0.0,0.0,0.0,0.0,0.0,0.0,0.0,0.0,0.0,0.0,0.0,0.0,0.0,0.0,0.0,0.0,0.0,0.0,0.0,0.0,0.0,0.0,0.0,0.0,0.0,0.0,0.0,0.0,0.0,0.0,0.0,0.0,0.0,0.0,0.0,0.0,0.0,0.0,0.0,0.0,0.0,0.0,0.0,0.0,0.0,0.0,0.0,0.0,0.0,0.0,0.0,0.0,0.0,0.0,0.0,0.0,0.0,0.0,0.0,0.0,0.0,0.0,0.0,0.0,0.0,0.0,0.0,12.9084,12.9569,12.8952,0.0,12.5533,12.4152,0.0,0.0,0.0,0.0,0.0,0.0,0.0,0.0,0.0,0.0,0.0,0.0,0.0,0.0,0.0,0.0,0.0,0.0,0.0,0.0,0.0,0.0,0.0,0.0,0.0,0.0,0.0,0.0,0.0,0.0,0.0,0.0,0.0,0.0,0.0,0.0,0.0,0.0,0.0,0.0,0.0,0.0,0.0,0.0,0.0,0.0,0.0,0.0,0.0,0.0,0.0,0.0,0.0,0.0,0.0,0.0,0.0,0.0,0.0,0.0,0.0,0.0,0.0,0.0,0.0,0.0,0.0,0.0,0.0,0.0,0.0,0.0,0.0,0.0,0.0,0.0,0.0,0.0,0.0,0.0,0.0,0.0,0.0,0.0,0.0,0.0,0.0,0.0,0.0,0.0,0.0,0.0,0.0,0.0,0.0,0.0,0.0,0.0,0.0,0.0,0.0,0.0,0.0,0.0,0.0,0.0,0.0,0.0,0.0,0.0,12.8952,12.832,0.0,12.4218,12.2771,0.0,0.0,0.0,0.0,0.0,0.0,0.0,0.0,0.0,0.0,0.0,0.0,0.0,0.0,0.0,0.0,0.0,0.0,0.0,0.0,0.0,0.0,0.0,0.0,0.0,0.0,0.0,0.0,0.0,0.0,0.0,0.0,0.0,0.0,0.0,0.0,0.0,0.0,0.0,0.0,0.0,0.0,0.0,0.0,0.0,0.0,0.0,0.0,0.0,0.0,0.0,0.0,0.0,0.0,0.0,0.0,0.0,0.0,0.0,0.0,0.0,0.0,0.0,0.0,0.0,0.0,0.0,0.0,0.0,0.0,0.0,0.0,0.0,0.0,0.0,0.0,0.0,0.0,0.0,0.0,0.0,0.0,0.0,0.0,0.0,0.0,0.0,0.0,0.0,0.0,0.0,0.0,0.0,0.0,0.0,0.0,0.0,0.0,0.0,0.0,0.0,0.0,0.0,0.0,0.0,0.0,0.0,0.0,0.0,0.0,12.6519,0.0,12.5533,12.4178,12.2771,12.1362,0.0,0.0,0.0,0.0,0.0,0.0,0.0,0.0,0.0,0.0,0.0,0.0,0.0,0.0,0.0,0.0,0.0,0.0,0.0,0.0,0.0,0.0,0.0,0.0,0.0,0.0,0.0,0.0,0.0,0.0,0.0,0.0,0.0,0.0,0.0,0.0,0.0,0.0,0.0,0.0,0.0,0.0,0.0,0.0,0.0,0.0,0.0,0.0,0.0,0.0,0.0,0.0,0.0,0.0,0.0,0.0,0.0,0.0,0.0,0.0,0.0,0.0,0.0,0.0,0.0,0.0,0.0,0.0,0.0,0.0,0.0,0.0,0.0,0.0,0.0,0.0,0.0,0.0,0.0,0.0,0.0,0.0,0.0,0.0,0.0,0.0,0.0,0.0,0.0,0.0,0.0,0.0,0.0,0.0,0.0,0.0,0.0,0.0,0.0,0.0,0.0,0.0,0.0,0.0,0.0,0.0,0.0,0.0,0.0,0.0,0.0,12.4744,12.385,12.2771,0.0,0.0,0.0,0.0,0.0,0.0,0.0,0.0,0.0,0.0,0.0,0.0,0.0,0.0,0.0,0.0,0.0,0.0,0.0,0.0,0.0,0.0,0.0,0.0,0.0,0.0,0.0,0.0,0.0,0.0,0.0,0.0,0.0,0.0,0.0,0.0,0.0,0.0,0.0,0.0,0.0,0.0,0.0,0.0,0.0,0.0,0.0,0.0,0.0,0.0,0.0,0.0,0.0,0.0,0.0,0.0,0.0,0.0,0.0,0.0,0.0,0.0,0.0,0.0,0.0,0.0,0.0,0.0,0.0,0.0,0.0,0.0,0.0,0.0,0.0,0.0,0.0,0.0,0.0,0.0,0.0,0.0,0.0,0.0,0.0,0.0,0.0,0.0,0.0,0.0,0.0,0.0,0.0,0.0,0.0,0.0,0.0,0.0,0.0,0.0,0.0,0.0,0.0,0.0,0.0,0.0,0.0,0.0,0.0,0.0,0.0,12.4612,12.3258,12.3192,0.0,12.139,0.0,0.0,0.0,0.0,0.0,0.0,0.0,0.0,0.0,0.0,0.0,0.0,0.0,0.0,0.0,0.0,0.0,0.0,0.0,0.0,0.0,0.0,0.0,0.0,0.0,0.0,0.0,0.0,0.0,0.0,0.0,0.0,0.0,0.0,0.0,0.0,0.0,0.0,0.0,0.0,0.0,0.0,0.0,0.0,0.0,0.0,0.0,0.0,0.0,0.0,0.0,0.0,0.0,0.0,0.0,0.0,0.0,0.0,0.0,0.0,0.0,0.0,0.0,0.0,0.0,0.0,0.0,0.0,0.0,0.0,0.0,0.0,0.0,0.0,0.0,0.0,0.0,0.0,0.0,0.0,0.0,0.0,0.0,0.0,0.0,0.0,0.0,0.0,0.0,0.0,0.0,0.0,0.0,0.0,0.0,0.0,0.0,0.0,0.0,0.0,0.0,0.0,0.0,0.0,0.0,0.0,0.0,0.0,0.0,0.0,0.0,0.0,12.1785,12.1587,12.1297,0.0,0.0,0.0,0.0,0.0,0.0,0.0,0.0,0.0,0.0,0.0,0.0,0.0,0.0,0.0,0.0,0.0,0.0,0.0,0.0,0.0,0.0,0.0,0.0,0.0,0.0,0.0,0.0,0.0,0.0,0.0,0.0,0.0,0.0,0.0,0.0,0.0,0.0,0.0,0.0,0.0,0.0,0.0,0.0,0.0,0.0,0.0,0.0,0.0,0.0,0.0,0.0,0.0,0.0,0.0,0.0,0.0,0.0,0.0,0.0,0.0,0.0,0.0,0.0,0.0,0.0,0.0,0.0,0.0,0.0,0.0,0.0,0.0,0.0,0.0,0.0,0.0,0.0,0.0,0.0,0.0,0.0,0.0,0.0,0.0,0.0,0.0,0.0,0.0,0.0,0.0,0.0,0.0,0.0,0.0,0.0,0.0,0.0,0.0,0.0,0.0,0.0,0.0,0.0,0.0,0.0,0.0,0.0,0.0,0.0,12.1324,12.1324,12.1324,12.093,12.0338,0.0,0.0,0.0,0.0,0.0,0.0,0.0,0.0,0.0,0.0,0.0,0.0,0.0,0.0,0.0,0.0,0.0,0.0,0.0,0.0,0.0,0.0,0.0,0.0,0.0,0.0,0.0,0.0,0.0,0.0,0.0,0.0,0.0,0.0,0.0,0.0,0.0,0.0,0.0,0.0,0.0,0.0,0.0,0.0,0.0,0.0,0.0,0.0,0.0,0.0,0.0,0.0,0.0,0.0,0.0,0.0,0.0,0.0,0.0,0.0,0.0,0.0,0.0,0.0,0.0,0.0,0.0,0.0,0.0,0.0,0.0,0.0,0.0,0.0,0.0,0.0,0.0,0.0,0.0,0.0,0.0,0.0,0.0,0.0,0.0,0.0,0.0,0.0,0.0,0.0,0.0,0.0,0.0,0.0,0.0,0.0,0.0,0.0,0.0,0.0,0.0,0.0,0.0,0.0,0.0,0.0,0.0,0.0,0.0,0.0,0.0,0.0,0.0,0.0,11.922,0.0,0.0,0.0,0.0,0.0,0.0,0.0,0.0,0.0,0.0,0.0,0.0,0.0,0.0,0.0,0.0,0.0,0.0,0.0,0.0,0.0,0.0,0.0,0.0,0.0,0.0,0.0,0.0,0.0,0.0,0.0,0.0,0.0,0.0,0.0,0.0,0.0,0.0,0.0,0.0,0.0,0.0,0.0,0.0,0.0,0.0,0.0,0.0,0.0,0.0,0.0,0.0,0.0,0.0,0.0,0.0,0.0,0.0,0.0,0.0,0.0,0.0,0.0,0.0,0.0,0.0,0.0,0.0,0.0,0.0,0.0,0.0,0.0,0.0,0.0,0.0,0.0,0.0,0.0,0.0,0.0,0.0,0.0,0.0,0.0,0.0,0.0,0.0,0.0,0.0,0.0,0.0,0.0,0.0,0.0,0.0,0.0,0.0,0.0,0.0,0.0,0.0,0.0,0.0,0.0,0.0,0.0,0.0,0.0,0.0,0.0,0.0,0.0,0.0,0.0,0.0,0.0,0.0,0.0,0.0,0.0,0.0,0.0,0.0,0.0,0.0,0.0,0.0,0.0,0.0,0.0,0.0,0.0,0.0,0.0,0.0,0.0,0.0,0.0,0.0,0.0,0.0,0.0,0.0,0.0,0.0,0.0,0.0,0.0,0.0,0.0,0.0,0.0,0.0,0.0,0.0,0.0,0.0,0.0,0.0,0.0,0.0,0.0,0.0,0.0,0.0,0.0,0.0,0.0,0.0,0.0,0.0,0.0,0.0,0.0,0.0,0.0,0.0,0.0,0.0,0.0,0.0,0.0,0.0,0.0,0.0,0.0,0.0,0.0,0.0,0.0,0.0,0.0,0.0,0.0,0.0,0.0,0.0,0.0,0.0,0.0,0.0,0.0,0.0,0.0,0.0,0.0,0.0,0.0,0.0,0.0,0.0,0.0,0.0,0.0,0.0,0.0,0.0,0.0,0.0,0.0,0.0,0.0,0.0,0.0,0.0,0.0,0.0,0.0,0.0,0.0,0.0,0.0,0.0,0.0,0.0,0.0,0.0,0.0,0.0,0.0,0.0,0.0,0.0,0.0,0.0,0.0,0.0,0.0,0.0,0.0,0.0,0.0,0.0,0.0,0.0,0.0,0.0,0.0,0.0,0.0,0.0,0.0,0.0,0.0,0.0,0.0,0.0,0.0,0.0,0.0,0.0,0.0,0.0,0.0,0.0,0.0,0.0,0.0,0.0,0.0,0.0,0.0,0.0,0.0,0.0,0.0,0.0,0.0,0.0,0.0,0.0,0.0,0.0,0.0,0.0,0.0,0.0,0.0,0.0,0.0,0.0,0.0,0.0,0.0,0.0,0.0,0.0,0.0,0.0,0.0,0.0,0.0,0.0,0.0,0.0,0.0,0.0,0.0,0.0,0.0,0.0,0.0,0.0,0.0,0.0,0.0,0.0,0.0,0.0,0.0,0.0,0.0,0.0,0.0,0.0,0.0,0.0,0.0,0.0,0.0,0.0,0.0,0.0,0.0,0.0,0.0,0.0,0.0,0.0,0.0,0.0,0.0,0.0,0.0,0.0,0.0,0.0,0.0,0.0,0.0,0.0,0.0,0.0,0.0,0.0,0.0,0.0,0.0,0.0,0.0,0.0,0.0,0.0,0.0,0.0,0.0,0.0,0.0,0.0,0.0,0.0,0.0,0.0,0.0,0.0,0.0,0.0,0.0,0.0,0.0,0.0,0.0,0.0,0.0,0.0,0.0,0.0,0.0,0.0,0.0,0.0,0.0,0.0,0.0,0.0,0.0,0.0,0.0,0.0,0.0,0.0,0.0,0.0,0.0,0.0,0.0,0.0,0.0,0.0,0.0,0.0,0.0,0.0,0.0,0.0,0.0,0.0,0.0,0.0,0.0,0.0,0.0,0.0,0.0,0.0,0.0,0.0,0.0,0.0,0.0,0.0,0.0,0.0,0.0,0.0,0.0,0.0,0.0,0.0,0.0,0.0,0.0,0.0,0.0,0.0,0.0,0.0,0.0,0.0,0.0,0.0,0.0,0.0,0.0,0.0,0.0,0.0,0.0,0.0,0.0,0.0,0.0,0.0,0.0,0.0,0.0,0.0,0.0,0.0,0.0,0.0,0.0,0.0,0.0,0.0,0.0,0.0,0.0,0.0,0.0,0.0,0.0,0.0,0.0,0.0,0.0,0.0,0.0,0.0,0.0,0.0,0.0,0.0,0.0,0.0,0.0,0.0,0.0,0.0,0.0,0.0,0.0,0.0,0.0,0.0,0.0,0.0,0.0,0.0,0.0,0.0,0.0,0.0,0.0,0.0,0.0,0.0,0.0,0.0,0.0,0.0,0.0,0.0,0.0,0.0,0.0,0.0,0.0,0.0,0.0,0.0,0.0,0.0,0.0,0.0,0.0,0.0,0.0,0.0,0.0,0.0,0.0,0.0,0.0,0.0,0.0,0.0,0.0,0.0,0.0,0.0,0.0,0.0,0.0,0.0,0.0,0.0,0.0,0.0,0.0,0.0,0.0,0.0,0.0,0.0,0.0,0.0,0.0,0.0,0.0,0.0,0.0,0.0,0.0,0.0,0.0,0.0,0.0,0.0,0.0,0.0,0.0,0.0,0.0,0.0,0.0,0.0,0.0,0.0,0.0,0.0,0.0,0.0,0.0,0.0,0.0,0.0,0.0,0.0,0.0,0.0,0.0,0.0,0.0,0.0,0.0,0.0,0.0,0.0,0.0,0.0,0.0,0.0,0.0,0.0,0.0,0.0,0.0,0.0,0.0,0.0,0.0,0.0,0.0,0.0,0.0,0.0,0.0,0.0,0.0,0.0,0.0,0.0,0.0,0.0,0.0,0.0,0.0,0.0,0.0,0.0,0.0,0.0,0.0,0.0,0.0,0.0,0.0,0.0,0.0,0.0,0.0,0.0,0.0,0.0,0.0,0.0,0.0,0.0,0.0,0.0,0.0,0.0,0.0,0.0,0.0,0.0,0.0,0.0,0.0,0.0,0.0,0.0,0.0,0.0,0.0,0.0,0.0,0.0,0.0,0.0,0.0,0.0,0.0,0.0,0.0,0.0,0.0,0.0,0.0,0.0,0.0,0.0,0.0,0.0,0.0,0.0,0.0,0.0,0.0,0.0,0.0,0.0,0.0,0.0,0.0,0.0,0.0,0.0,0.0,0.0,0.0,0.0,0.0,0.0,0.0,0.0,0.0,0.0,0.0,0.0,0.0,0.0,0.0,0.0,0.0,0.0,0.0,0.0,0.0,0.0,0.0,0.0,0.0,0.0,0.0,0.0,0.0,0.0,0.0,0.0,0.0,0.0,0.0,0.0,0.0,0.0,0.0,0.0,0.0,0.0,0.0,0.0,0.0,0.0,0.0,0.0,0.0,0.0,0.0,0.0,0.0,0.0,0.0,0.0,0.0,0.0,0.0,0.0,0.0,0.0,0.0,0.0,0.0,0.0,0.0,0.0,0.0,0.0,0.0,0.0,0.0,0.0,0.0,0.0,0.0,0.0,0.0,0.0,0.0,0.0,0.0,0.0,0.0,0.0,0.0,0.0,0.0,0.0,0.0,0.0,0.0,0.0,0.0,0.0,0.0,0.0,0.0,0.0,0.0,0.0,0.0,0.0,0.0,0.0,0.0,0.0,0.0,0.0,0.0,0.0,0.0,0.0,0.0,0.0,0.0,0.0,0.0,0.0,0.0,0.0,0.0,0.0,0.0,0.0,0.0,0.0,0.0,0.0,0.0,0.0,0.0,0.0,0.0,0.0,0.0,0.0,0.0,0.0,0.0,0.0,0.0,0.0,0.0,0.0,0.0,0.0,0.0,0.0,0.0,0.0,0.0,0.0,0.0,0.0,0.0,0.0,0.0,0.0,0.0,0.0,0.0,0.0,0.0,0.0,0.0,0.0,0.0,0.0,0.0,0.0,0.0,0.0,0.0,0.0,0.0,0.0,0.0,0.0,0.0,0.0,0.0,0.0,0.0,0.0,0.0,0.0,0.0,0.0,0.0,0.0,0.0,0.0,0.0,0.0,0.0,0.0,0.0,0.0,0.0,0.0,0.0,0.0,0.0,0.0,0.0,0.0,0.0,0.0,0.0,0.0,0.0,0.0,0.0,0.0,0.0,0.0,0.0,0.0,0.0,0.0,0.0,0.0,0.0,0.0,0.0,0.0,0.0,0.0,0.0,0.0,0.0,0.0,0.0,0.0,0.0,0.0,0.0,0.0,0.0,0.0,0.0,0.0,0.0,0.0,0.0,0.0,0.0,0.0,0.0,0.0,0.0,0.0,0.0,0.0,0.0,0.0,0.0,0.0,0.0,0.0,0.0,0.0,0.0,0.0,0.0,0.0]}],[{"header":{"parameterUnit":"kt","parameterCategory":2,"dx":1,"dy":1,"la1":29.587661999999998,"la2":31.0,"lo1":-88.76705300000003,"lo2":-86.6583820000003,"nx":115,"ny":88,"refTime":"2022-09-25T06:00:00:Z","depth":0,"parameterNumber":2,"parameterNumberName":"V-component_of_WINDS"},"data":[8.2065,8.2065,8.2065,8.2065,8.2065,8.2065,8.2065,8.2065,8.2091,8.2299,8.2786,8.3315,8.3419,8.3,8.3961,8.4532,8.4688,8.5052,8.5286,8.5363,8.5234,8.4896,8.461,8.4454,8.4143,8.4143,8.4273,8.4429,8.4506,8.5,8.5337,8.5337,8.5363,8.5545,8.5545,8.5571,8.5649,8.5727,8.6039,8.6376,8.6376,8.6428,8.661,8.6844,8.7077,8.7441,8.7753,8.7909,9.154,9.7,10.2577,10.6088,10.9683,11.339,11.7642,12.1466,12.2129,12.2235,12.2593,12.3238,12.3486,12.3899,12.5651,12.7445,12.8719,13.0195,13.1651,13.3207,13.389,13.4031,13.4347,13.4537,13.484,13.484,13.484,13.484,13.484,13.484,13.484,13.484,13.484,13.4878,13.4878,13.5309,13.5955,13.6638,13.7549,13.7967,13.8385,13.903,13.9638,13.96,13.9562,13.9713,13.9713,13.9562,13.9789,13.9903,14.0055,14.0207,14.0435,14.0777,14.0928,14.1118,14.1612,14.2181,14.2637,14.2979,14.332,14.3624,14.4269,14.5036,14.5856,14.7082,14.9002,8.2065,8.2065,8.2065,8.2065,8.2065,8.2065,8.2065,8.2065,8.2065,8.2117,8.2247,8.237,8.2656,8.289,8.3182,8.3857,8.4377,8.461,8.4714,8.474,8.474,8.4351,8.4065,8.3883,8.3727,8.3701,8.3701,8.3753,8.3883,8.4429,8.4792,8.4717,8.5156,8.5545,8.5545,8.5545,8.5545,8.5597,8.5701,8.5935,8.5961,8.5961,8.6091,8.6298,8.6532,8.6792,8.7155,8.8226,9.065,9.6963,10.4613,10.8594,11.2385,11.6256,11.995,12.1253,12.1879,12.2075,12.2468,12.3237,12.3471,12.4082,12.5969,12.745,12.849,12.9885,13.1145,13.2403,13.3311,13.3791,13.393,13.4322,13.4702,13.493,13.484,13.484,13.484,13.484,13.484,13.484,13.484,13.484,13.4878,13.4878,13.5461,13.6069,13.6638,13.7056,13.7549,13.8233,13.8612,13.865,13.8764,13.8878,13.8916,13.9106,13.9524,13.96,13.96,13.9789,14.0017,14.0245,14.0397,14.0473,14.0701,14.127,14.1726,14.2181,14.2409,14.2675,14.3456,14.4335,14.5324,14.6832,14.8882,8.2065,8.2065,8.2065,8.2065,8.2065,8.2065,8.2065,8.2065,8.2065,8.2065,8.2065,8.2091,8.2195,8.2377,8.2792,8.3338,8.3572,8.3987,8.4117,8.4143,8.4091,8.3779,8.352,8.3286,8.3182,8.287,8.2844,8.3078,8.3364,8.3831,8.4351,8.4535,8.4818,8.5156,8.5545,8.5545,8.5545,8.5545,8.5545,8.5675,8.5753,8.5701,8.5753,8.5779,8.5987,8.6246,8.718,9.0159,9.3977,10.0568,10.4566,10.8745,11.3604,11.804,12.0651,12.1273,12.1611,12.1968,12.2914,12.3718,12.4201,12.5256,12.6722,12.7876,12.8845,12.9533,13.0816,13.1394,13.2299,13.288,13.3183,13.3753,13.4171,13.4474,13.4588,13.4613,13.4726,13.4764,13.484,13.484,13.484,13.484,13.484,13.484,13.4992,13.5689,13.6183,13.6638,13.6942,13.7436,13.7474,13.7587,13.7853,13.8005,13.8081,13.8461,13.8954,13.9144,13.9182,13.9448,13.9751,13.9827,13.9941,14.0093,14.0321,14.0625,14.0928,14.1384,14.165,14.184,14.2678,14.373,14.5019,14.6345,14.8473,8.2065,8.2065,8.2065,8.2065,8.2065,8.2065,8.2065,8.2065,8.2065,8.2065,8.2065,8.2065,8.2091,8.2169,8.2507,8.2818,8.3026,8.3442,8.3546,8.3572,8.3572,8.326,8.2818,8.2715,8.2507,8.2169,8.2117,8.2403,8.2766,8.326,8.3779,8.4117,8.4403,8.4688,8.5182,8.5234,8.5363,8.5647,8.6645,8.7795,8.6724,8.6186,8.7513,8.805,9.0061,9.0845,9.1974,9.4561,9.888,10.3661,10.4604,10.7871,11.2585,11.7225,11.9779,12.0612,12.1002,12.2015,12.3244,12.4365,12.4957,12.6182,12.7432,12.8349,12.913,12.9692,13.026,13.0754,13.1247,13.1703,13.2196,13.2918,13.3525,13.3829,13.4095,13.436,13.4499,13.4651,13.484,13.484,13.484,13.484,13.484,13.484,13.484,13.5272,13.5765,13.6031,13.6259,13.6373,13.6448,13.6486,13.6828,13.717,13.7246,13.7587,13.8081,13.8309,13.8423,13.8916,13.9486,13.9524,13.9524,13.9713,13.9903,14.0131,14.0397,14.0739,14.0928,14.1176,14.1899,14.3541,14.4936,14.6168,14.8156,8.2065,8.2065,8.2065,8.2065,8.2065,8.2065,8.2065,8.2065,8.2065,8.2065,8.2065,8.2065,8.2065,8.2091,8.2195,8.2481,8.274,8.2896,8.2974,8.3125,8.3,8.2766,8.2351,8.2143,8.2195,8.2117,8.2091,8.2143,8.2325,8.2812,8.3301,8.3203,8.4171,8.5952,8.7114,8.7221,8.7915,8.8438,8.976,9.0096,8.8299,8.9852,9.2963,9.3216,9.6237,9.9242,9.9677,10.1298,10.3409,10.716,11.011,11.2427,11.5809,11.9099,11.9577,12.0144,12.1161,12.2121,12.3295,12.4904,12.5728,12.6912,12.8234,12.8764,12.8973,12.9276,12.988,13.0298,13.0678,13.1095,13.1437,13.2044,13.25,13.2804,13.3259,13.3715,13.4057,13.436,13.455,13.4575,13.4613,13.484,13.484,13.484,13.484,13.484,13.5196,13.5234,13.522,13.522,13.5258,13.5258,13.5879,13.6335,13.641,13.6638,13.717,13.7474,13.7549,13.7967,13.8612,13.8916,13.9068,13.9296,13.9448,13.9638,13.9941,14.0131,14.0321,14.07,14.1668,14.3456,14.4795,14.597,14.7714,8.2065,8.2065,8.2065,8.2065,8.2065,8.2065,8.2065,8.2065,8.2065,8.2065,8.2065,8.2065,8.2065,8.2065,8.2091,8.2195,8.2429,8.2455,8.2455,8.2455,8.2403,8.237,8.2169,8.2091,8.2434,8.2065,8.2065,8.2899,8.2143,8.2624,8.4835,8.675,8.7708,9.0061,9.2371,9.3336,9.3662,9.3624,9.295,9.1518,9.1336,9.2009,9.3257,9.4225,9.8463,10.0459,10.133,10.5077,10.6835,10.9021,11.3551,11.5842,11.6989,11.8983,11.9598,12.0296,12.1304,12.2349,12.3422,12.5191,12.6407,12.7589,12.8586,12.8831,12.8831,12.8784,12.9378,12.9767,13.0184,13.0564,13.083,13.1133,13.1437,13.1779,13.2348,13.2956,13.3373,13.3829,13.4095,13.4322,13.455,13.4689,13.484,13.484,13.484,13.484,13.484,13.484,13.484,13.484,13.484,13.484,13.5347,13.5613,13.5537,13.5651,13.6183,13.6562,13.6676,13.7056,13.7701,13.8043,13.8195,13.8499,13.8916,13.9448,13.9827,13.9865,13.9997,14.0584,14.138,14.2987,14.4318,14.5875,14.7768,8.2065,8.2065,8.2065,8.2065,8.2065,8.2065,8.2065,8.2065,8.2065,8.2065,8.2065,8.2065,8.2065,8.2065,8.2065,8.2065,8.2091,8.2065,8.2065,8.2091,8.2169,8.3048,8.3267,8.3267,8.4589,8.5296,8.5784,8.5784,8.6272,8.4493,8.7307,8.988,8.9541,9.3304,9.7465,10.2278,10.1845,10.1028,9.8746,9.6744,9.5497,9.7162,9.8578,10.0465,10.4384,10.6853,10.7687,11.0545,11.1399,11.2163,11.5542,11.7182,11.7508,11.859,11.9538,12.0275,12.1625,12.2845,12.3789,12.5099,12.6403,12.7809,12.7937,12.8134,12.8324,12.8354,12.862,12.9121,12.9539,12.9956,13.0298,13.0526,13.0754,13.1133,13.1589,13.2044,13.2348,13.288,13.3601,13.3829,13.4171,13.4474,13.4802,13.484,13.484,13.484,13.484,13.484,13.484,13.484,13.484,13.484,13.5196,13.5272,13.503,13.503,13.5461,13.5727,13.5841,13.6145,13.6752,13.717,13.7284,13.7587,13.8081,13.8726,13.941,13.96,13.9524,14.0203,14.124,14.2515,14.3994,14.6368,14.8516,8.2065,8.2065,8.2065,8.2065,8.2065,8.2065,8.2065,8.2065,8.2065,8.2065,8.2065,8.2065,8.2065,8.2065,8.2065,8.2065,8.2065,8.2065,8.2065,8.2065,8.2065,8.5445,8.6028,8.5323,8.8071,9.1648,9.2612,9.1044,9.5465,9.1768,8.9649,9.0612,9.2093,9.613,10.16,10.6435,10.8569,10.6416,10.4027,10.1693,10.0117,10.2674,10.4061,10.6207,10.9711,11.2792,11.3862,11.502,11.5764,11.6438,11.7026,11.7267,11.7869,11.871,11.9153,12.0064,12.1892,12.3053,12.4054,12.5161,12.6452,12.6951,12.6805,12.6957,12.7223,12.7564,12.7982,12.8438,12.8779,12.9235,12.9691,12.9842,13.0032,13.0526,13.0943,13.1133,13.1399,13.1969,13.2766,13.3221,13.3563,13.4095,13.4423,13.484,13.484,13.484,13.484,13.484,13.484,13.484,13.484,13.484,13.484,13.484,13.4878,13.4916,13.5144,13.5347,13.5258,13.5499,13.5841,13.6297,13.641,13.6714,13.7246,13.7739,13.8233,13.8612,13.8954,14.044,14.1565,14.2625,14.2886,14.5704,14.9412,8.2065,8.2065,8.2065,8.2065,8.2065,8.2065,8.2065,8.2065,8.2065,8.2065,8.2065,8.2065,8.2065,8.2065,8.2065,8.2065,8.2065,8.2065,8.2065,8.2065,8.2065,8.6028,8.8557,8.8707,9.213,9.4746,9.5585,9.5495,9.8093,9.5824,9.4866,9.5615,9.8243,10.1523,10.6292,10.9662,11.1948,11.0372,10.7656,10.5648,10.5269,10.5532,10.7368,10.9194,11.2029,11.5605,11.5926,11.6282,11.6603,11.6626,11.7031,11.7387,11.7989,11.907,12.035,12.0828,12.2101,12.2964,12.3782,12.4727,12.551,12.6008,12.5666,12.5856,12.6463,12.6653,12.7147,12.7602,12.7868,12.8362,12.8893,12.9045,12.9387,13.0032,13.0336,13.0336,13.064,13.1171,13.1855,13.2082,13.2462,13.3297,13.3943,13.4233,13.4575,13.4689,13.4802,13.484,13.484,13.484,13.484,13.484,13.484,13.484,13.484,13.484,13.484,13.484,13.4916,13.4992,13.5461,13.5689,13.5651,13.5765,13.6297,13.679,13.717,13.7474,13.7815,13.8939,14.0938,14.1821,14.2156,14.5215,14.9064,8.2065,8.2065,8.2065,8.2065,8.2065,8.2065,8.2065,8.2065,8.2065,8.2065,8.2065,8.2065,8.2065,8.2065,8.2065,8.2065,8.2065,8.2065,8.4003,8.4466,8.5078,8.8679,9.2612,9.4776,9.6333,10.0469,10.0587,10.0587,10.2158,10.0587,10.0232,10.035,10.263,10.7779,11.1373,11.2682,11.2682,11.2059,11.0246,10.8211,10.8363,10.8703,10.9349,10.9894,11.284,11.4856,11.5213,11.5605,11.6139,11.6603,11.6223,11.7022,11.8212,11.9362,12.0826,12.1575,12.2933,12.3644,12.3999,12.3972,12.4717,12.4983,12.5097,12.5325,12.5704,12.5818,12.6274,12.6805,12.7033,12.7489,12.8096,12.8248,12.8666,12.9311,12.9653,12.9653,13.0155,13.0564,13.1019,13.1285,13.1589,13.2386,13.3221,13.3753,13.3905,13.3981,13.4208,13.4322,13.4474,13.4461,13.4726,13.4764,13.4802,13.484,13.484,13.484,13.484,13.484,13.484,13.484,13.484,13.4992,13.5068,13.522,13.5613,13.5841,13.6221,13.6562,13.6752,13.7588,13.9843,14.1128,14.2497,14.5485,15.0115,8.2065,8.2065,8.2065,8.2065,8.2065,8.2065,8.2065,8.2065,8.2065,8.2065,8.2065,8.2065,8.2065,8.2065,8.2065,8.2803,8.3022,8.268,8.4956,8.8314,8.9164,9.5375,9.8957,10.0856,10.1567,10.8979,10.8245,10.7277,11.1106,10.7043,10.5403,10.5638,10.6224,10.8479,11.2299,11.2682,11.2682,11.2682,11.2566,11.1978,11.1898,11.1736,11.2195,11.2395,11.3625,11.4108,11.4464,11.4821,11.5588,11.6249,11.5993,11.6845,11.8376,11.9559,12.0605,12.162,12.3434,12.4481,12.4713,12.4148,12.4224,12.4641,12.4717,12.4945,12.5021,12.5135,12.5476,12.6084,12.6236,12.6615,12.7109,12.7527,12.7982,12.8476,12.8817,12.9045,12.9577,13.0193,13.0488,13.0868,13.1133,13.1513,13.2386,13.2994,13.3032,13.3145,13.3411,13.3639,13.3829,13.4095,13.4423,13.4575,13.4689,13.4764,13.484,13.484,13.484,13.484,13.484,13.484,13.484,13.484,13.484,13.4878,13.5068,13.5385,13.5537,13.5689,13.5765,13.6136,13.8465,14.07,14.3229,14.6624,15.3402,8.2065,8.2065,8.2065,8.2065,8.2065,8.2065,8.2065,8.2065,8.2065,8.2065,8.2065,8.2065,8.2065,8.2065,8.2188,8.3513,8.5567,8.4711,8.8314,9.1194,9.3214,9.6213,10.133,10.4665,10.6107,11.0642,11.099,11.0526,11.2798,11.1257,11.0178,10.9945,11.0526,11.0758,11.2798,11.2682,11.2682,11.2682,11.2682,11.2682,11.2682,11.2682,11.3047,11.3119,11.3226,11.3556,11.3922,11.4468,11.5115,11.5843,11.633,11.7242,11.8442,11.9642,12.0491,12.1303,12.2153,12.3082,12.3236,12.3085,12.3312,12.3882,12.4072,12.4451,12.4831,12.5021,12.4945,12.54,12.5438,12.5704,12.6344,12.6653,12.6995,12.7716,12.8058,12.8438,12.8969,12.9577,12.9994,13.0298,13.0526,13.0754,13.1437,13.1817,13.1855,13.1931,13.2272,13.2652,13.2956,13.3449,13.3981,13.4246,13.4385,13.4651,13.484,13.484,13.484,13.484,13.484,13.484,13.484,13.484,13.484,13.484,13.484,13.484,13.4992,13.5144,13.5068,13.4878,13.6687,13.8863,14.2014,14.8176,15.5527,8.1883,8.2065,8.2065,8.2065,8.2065,8.2065,8.2065,8.2065,8.2065,8.2065,8.2065,8.2065,8.2065,8.2065,8.2311,8.4833,8.88,8.6028,9.213,9.5944,9.8331,10.0975,10.4783,10.8712,10.9678,11.2531,11.2877,11.2798,11.3259,11.2531,11.2798,11.2913,11.2877,11.3144,11.3375,11.3721,11.3721,11.3685,11.349,11.3144,11.2913,11.2682,11.3029,11.3259,11.3375,11.3606,11.4023,11.4608,11.5526,11.625,11.6578,11.7615,11.9076,11.9601,12.0214,12.0983,12.2014,12.2513,12.2513,12.2325,12.2249,12.2781,12.316,12.3464,12.3806,12.4337,12.4527,12.4679,12.4831,12.5211,12.5623,12.5818,12.6122,12.6843,12.7375,12.7754,12.8286,12.8969,12.9425,12.9577,12.9767,13.0108,13.045,13.0716,13.0716,13.083,13.1247,13.1665,13.2158,13.2652,13.307,13.3373,13.3905,13.4246,13.4398,13.4575,13.484,13.484,13.484,13.484,13.484,13.484,13.484,13.484,13.484,13.484,13.484,13.484,13.4878,13.4878,13.5987,13.7812,14.3338,14.9401,15.6624,8.152,8.2013,8.1987,8.2013,8.2065,8.2065,8.2065,8.2065,8.2065,8.2065,8.2065,8.2065,8.2065,8.2654,8.3854,8.7098,9.0589,9.0376,9.6781,10.2512,10.5487,10.7043,11.0143,11.2068,11.2913,11.4261,11.3606,11.3721,11.4067,11.357,11.3375,11.3144,11.4297,11.3836,11.4067,11.4872,11.518,11.4721,11.4297,11.3836,11.3259,11.3144,11.349,11.4182,11.4642,11.5102,11.6098,11.5978,11.6474,11.7732,11.7231,11.7727,11.9249,11.9624,12.0079,12.0651,12.1527,12.1717,12.1832,12.1452,12.1224,12.1414,12.1908,12.2553,12.2971,12.3426,12.3654,12.3768,12.4337,12.4755,12.4869,12.5059,12.5476,12.6084,12.6577,12.6957,12.7489,12.821,12.8666,12.8855,12.9235,12.9729,13.0108,12.9956,12.9918,13.0298,13.0754,13.0868,13.1323,13.1817,13.2196,13.2576,13.3183,13.3639,13.3753,13.3981,13.4246,13.436,13.4512,13.4537,13.4764,13.484,13.484,13.484,13.484,13.484,13.484,13.484,13.484,13.484,13.5948,13.8279,14.2923,14.9677,15.713,8.1312,8.1442,8.1442,8.1676,8.2065,8.2065,8.2065,8.2065,8.2188,8.2188,8.2065,8.2188,8.2188,8.339,8.9471,9.3425,9.5465,9.5465,10.1921,10.6224,10.8012,10.9061,11.2033,11.3259,11.3836,11.5754,11.4606,11.4376,11.4721,11.4951,11.518,11.541,11.5676,11.541,11.5524,11.602,11.6327,11.5754,11.5102,11.4491,11.4146,11.4067,11.4261,11.4721,11.5331,11.5868,11.6212,11.6327,11.7013,11.804,11.7812,11.8381,11.9631,11.9782,12.0048,12.0275,12.0617,12.0845,12.0731,12.0617,12.0351,12.0541,12.1034,12.1794,12.2172,12.2513,12.2857,12.2819,12.3578,12.3996,12.4224,12.4641,12.4983,12.5325,12.5661,12.6041,12.6496,12.7337,12.7868,12.8172,12.859,12.9159,12.9273,12.9159,12.9349,12.9804,13.0117,13.0231,13.0526,13.1019,13.1323,13.1551,13.2196,13.2804,13.288,13.3032,13.3449,13.3715,13.3905,13.4171,13.4499,13.4689,13.4764,13.484,13.484,13.484,13.484,13.484,13.4968,13.5477,13.633,13.8784,14.2887,14.987,15.7341,8.0481,8.0507,8.0741,8.1182,8.1676,8.1702,8.303,8.5024,8.5445,8.5445,8.5445,8.5418,8.5445,8.7125,9.3425,9.8419,10.035,10.0706,10.537,11.0294,11.041,11.0723,11.357,11.3915,11.4836,11.6212,11.5983,11.541,11.6212,11.6784,11.667,11.6327,11.667,11.6898,11.6098,11.7241,11.7469,11.7013,11.6441,11.5868,11.541,11.5295,11.5524,11.6098,11.6784,11.7355,11.7812,11.7812,11.8267,11.8723,11.895,11.9291,11.9745,11.9971,11.9971,11.9971,11.9971,11.9971,11.9971,12.0009,12.0009,12.0161,12.0427,12.0958,12.13,12.168,12.1946,12.1984,12.2743,12.3198,12.3388,12.3996,12.4299,12.4679,12.5135,12.5476,12.5856,12.6539,12.7147,12.7527,12.7906,12.821,12.84,12.8362,12.8476,12.8969,12.9311,12.9577,12.9994,13.0336,13.0526,13.0716,13.1361,13.1969,13.2006,13.2158,13.2614,13.2994,13.3221,13.3525,13.4133,13.4461,13.4575,13.4613,13.4575,13.4689,13.484,13.484,13.4802,13.5694,13.671,13.9917,14.3466,15.0643,15.924,7.9468,7.9572,8.0639,8.1403,8.2266,8.3247,8.6183,9.0325,9.0561,9.0739,9.071,9.071,9.1073,9.2612,9.6542,10.0113,10.3724,10.537,10.8595,11.2415,11.2415,11.2993,11.4872,11.4721,11.5754,11.7812,11.7127,11.7355,11.8002,11.823,11.7812,11.7355,11.7926,11.7888,11.7469,11.8609,11.9404,11.8609,11.8344,11.7698,11.667,11.6441,11.7013,11.7698,11.823,11.8685,11.9291,11.9404,11.9631,11.9745,11.9858,11.9971,11.9971,11.9971,11.9971,11.9971,11.9971,11.9971,11.9971,11.9971,11.9971,11.9971,12.0047,11.9971,12.0351,12.0807,12.1072,12.111,12.187,12.2325,12.2515,12.316,12.3616,12.4072,12.4527,12.4793,12.5173,12.5932,12.6274,12.6534,12.6729,12.7071,12.7489,12.7527,12.764,12.8172,12.8666,12.9083,12.9463,12.9653,12.9804,13.0222,13.0792,13.1019,13.1133,13.1437,13.1855,13.2272,13.2462,13.2652,13.3183,13.3677,13.4019,13.4284,13.4322,13.4322,13.4347,13.4499,13.4726,13.6126,13.8658,14.1634,14.4956,15.299,16.1688,7.9105,7.9878,8.3822,8.5839,8.714,9.1171,9.3726,9.4918,9.5581,9.5794,9.5824,9.6063,9.8004,10.0264,9.9757,10.035,10.5018,10.9561,11.1685,11.3721,11.3375,11.4606,11.5983,11.6212,11.6327,11.8836,11.8267,11.8495,11.9253,11.9404,11.9404,11.9064,11.9291,11.9404,11.9064,11.9518,11.9745,11.9631,11.948,11.9064,11.8116,11.7812,11.8002,11.823,11.9064,11.9631,11.9858,11.9971,11.9971,11.9971,11.9971,11.9971,11.9971,11.9971,11.9971,11.9971,11.9971,11.9971,11.9971,11.9971,11.9971,11.9971,11.9971,11.9971,12.0085,12.0161,12.0313,12.0351,12.0958,12.149,12.1604,12.2249,12.2971,12.3502,12.3844,12.4261,12.4755,12.5097,12.5476,12.559,12.559,12.5932,12.6426,12.6577,12.6881,12.7375,12.7754,12.821,12.8779,12.8931,12.9121,12.9577,12.9918,13.0108,13.0526,13.083,13.1133,13.1475,13.1589,13.1855,13.231,13.2766,13.3221,13.3601,13.3601,13.3487,13.3829,13.3892,13.5171,13.7172,14.0262,14.4419,14.9875,15.7072,16.3653,7.8845,7.9697,8.4421,8.6723,8.8088,9.2907,9.6724,9.912,10.011,10.0431,10.0645,10.1051,10.263,10.3724,10.1921,10.3959,10.8129,11.1952,11.3224,11.4146,11.4067,11.5295,11.7584,11.7013,11.804,11.9064,11.9404,11.9404,11.9858,11.9971,11.9858,11.9971,11.9971,11.9971,11.9971,11.9971,11.9971,11.9971,11.9858,11.9593,11.9026,11.9026,11.9064,11.9177,11.9631,11.9971,11.9971,11.9971,11.9971,11.9971,11.9971,11.9971,11.9971,11.9971,11.9971,11.9971,11.9971,11.9971,11.9971,11.9971,11.9971,11.9971,11.9971,11.9971,11.9971,11.9971,12.0009,12.0085,12.0503,12.0617,12.0655,12.1414,12.2022,12.2553,12.2933,12.354,12.4148,12.4375,12.4603,12.4755,12.4907,12.5173,12.5552,12.5818,12.6122,12.6463,12.6805,12.7375,12.8058,12.8172,12.821,12.8628,12.8969,12.9387,13.0231,13.0298,13.0488,13.0602,13.0716,13.1095,13.1475,13.1817,13.2234,13.2614,13.2576,13.2386,13.2728,13.3183,13.5528,13.776,14.2534,14.7699,15.3935,15.973,16.5027,7.9853,8.0402,8.5987,8.8712,8.9995,9.4635,9.9799,10.3409,10.4575,10.4878,10.5012,10.5685,10.5988,10.629,10.6123,10.8479,11.1222,11.2762,11.38,11.4721,11.4987,11.6098,11.8153,11.804,11.8571,11.9631,11.9858,11.9858,11.9971,11.9971,11.9971,11.9971,11.9971,11.9971,11.9971,11.9971,11.9971,11.9971,11.9971,11.9971,11.9745,11.9745,11.9745,11.9858,11.9858,11.9971,11.9971,11.9971,11.9971,11.9971,11.9971,11.9971,11.9971,11.9971,11.9971,11.9971,11.9971,11.9971,11.9971,11.9971,11.9971,11.9971,11.9971,11.9971,11.9971,11.9971,11.9971,12.0009,12.0009,12.0009,11.9971,12.0617,12.1149,12.1529,12.1984,12.2667,12.3274,12.3426,12.335,12.373,12.4186,12.4565,12.4717,12.4907,12.5325,12.5742,12.597,12.6426,12.7071,12.7299,12.7413,12.7716,12.8058,12.8817,12.9501,12.9501,12.9691,12.9767,13.0108,13.045,13.0716,13.0943,13.1019,13.1247,13.1285,13.1437,13.1817,13.2196,13.4652,13.8641,14.4546,15.0572,15.5743,16.0852,16.6332,8.4376,8.5523,9.4733,9.8465,9.9454,10.4238,10.6985,10.8166,10.9097,10.8733,10.9443,11.0263,10.9812,11.0412,11.0719,11.165,11.2877,11.3534,11.4606,11.5639,11.5754,11.7241,11.8836,11.8836,11.895,11.9858,11.9971,11.9971,11.9971,11.9971,11.9971,11.9971,11.9971,11.9971,11.9971,11.9971,11.9971,11.9971,11.9971,11.9971,11.9971,11.9971,11.9971,11.9971,11.9971,11.9971,11.9971,11.9971,11.9971,11.9971,11.9971,11.9971,11.9971,11.9971,11.9971,11.9971,11.9971,11.9971,11.9971,11.9971,11.9971,11.9971,11.9971,11.9971,11.9971,11.9971,11.9971,11.9971,11.9971,11.9971,11.9971,12.0199,12.0579,12.1034,12.1262,12.1832,12.2363,12.2059,12.2211,12.2591,12.3123,12.3578,12.3806,12.3996,12.4527,12.4945,12.5097,12.5438,12.6046,12.6463,12.6767,12.7071,12.7375,12.7982,12.821,12.8286,12.8817,12.9083,12.9539,12.9842,13.007,13.0146,13.0146,13.0146,13.0374,13.0754,13.1095,13.2685,13.5625,13.9412,14.4935,15.1535,15.7038,16.2173,16.4938,8.6905,8.6052,9.5819,10.0091,10.1008,10.6006,10.8547,10.8689,10.9479,10.9836,10.9978,11.0656,11.0978,11.1049,11.137,11.1834,11.2199,11.2765,11.4092,11.5795,11.6327,11.7698,11.9291,11.9518,11.9291,11.9858,11.9971,11.9971,11.9971,11.9971,11.9971,11.9971,11.9971,11.9971,11.9971,11.9971,11.9971,11.9971,11.9971,11.9971,11.9971,11.9971,11.9971,11.9971,11.9971,11.9971,11.9971,11.9971,11.9971,11.9971,11.9971,11.9971,11.9971,11.9971,11.9971,11.9971,11.9971,11.9971,11.9971,11.9971,11.9971,11.9971,11.9971,11.9971,11.9971,11.9971,11.9971,11.9971,11.9971,11.9971,11.9971,11.9971,12.0085,12.0503,12.0541,12.0921,12.1566,12.1528,12.1452,12.1756,12.2211,12.2667,12.2933,12.3085,12.354,12.4186,12.4375,12.4565,12.5211,12.559,12.5932,12.616,12.6539,12.6881,12.6995,12.7337,12.7868,12.8286,12.8779,12.9159,12.9197,12.9235,12.9311,12.9615,12.9842,13.0146,13.1856,13.4256,13.6843,14.1921,14.7405,15.2858,15.7965,16.1773,16.4428,9.0306,8.779,9.7028,10.0767,10.1567,10.5394,10.7438,10.7652,10.8369,10.8689,10.9082,10.9871,11.0157,11.0193,11.0478,11.0764,11.1334,11.1556,11.272,11.5355,11.5844,11.759,11.8913,11.9213,11.9327,11.963,11.9668,11.9782,11.9971,11.9971,11.9971,11.9971,11.9971,11.9971,11.9971,11.9971,11.9971,11.9971,11.9971,11.9971,11.9971,11.9971,11.9971,11.9971,11.9971,11.9971,11.9971,11.9971,11.9971,11.9971,11.9971,11.9971,11.9971,11.9971,11.9971,11.9971,11.9971,11.9971,11.9971,11.9971,11.9971,11.9971,11.9971,11.9971,11.9971,11.9971,11.9971,11.9971,11.9971,11.9971,11.9971,11.9971,12.0047,12.0047,12.0085,12.0313,12.0769,12.1035,12.0883,12.1072,12.149,12.1906,12.2211,12.2249,12.2629,12.3312,12.3654,12.3844,12.4186,12.4603,12.4793,12.4945,12.54,12.6008,12.6122,12.6312,12.6805,12.7223,12.7944,12.8438,12.8172,12.8096,12.8362,12.8741,12.9197,13.1216,13.2911,13.5287,13.929,14.5167,15.0884,15.4856,15.8338,16.1322,16.4216,9.6765,9.7247,10.2687,10.4935,10.4862,10.5512,10.6337,10.6691,10.6794,10.7186,10.8044,10.9198,10.9484,10.9443,10.9907,11.0407,11.0549,11.0549,11.1562,11.3132,11.5306,11.677,11.7551,11.7774,11.8339,11.8794,11.887,11.9212,11.9554,11.9857,11.9933,11.9857,11.9933,11.9971,11.9971,11.9971,11.9971,11.9971,11.9971,11.9971,11.9971,11.9971,11.9971,11.9971,11.9971,11.9971,11.9971,11.9971,11.9971,11.9971,11.9971,11.9971,11.9971,11.9971,11.9971,11.9971,11.9971,11.9971,11.9971,11.9971,11.9971,11.9971,11.9971,11.9971,11.9971,11.9971,11.9971,11.9971,11.9971,11.9971,11.9971,11.9971,11.9971,11.9971,11.9971,11.9971,12.0085,12.0085,12.0085,12.0123,12.0161,12.0617,12.1072,12.1414,12.168,12.2477,12.2705,12.2933,12.3274,12.3654,12.3882,12.392,12.4375,12.5021,12.5173,12.5287,12.5742,12.6274,12.7033,12.7261,12.6995,12.7185,12.7451,12.7868,12.84,13.016,13.3176,13.7878,14.2196,14.7338,15.1939,15.5716,15.8999,16.1392,16.3221,9.9341,9.7521,10.2759,10.4839,10.491,10.5337,10.5693,10.5943,10.5869,10.6406,10.7192,10.7802,10.8159,10.8476,10.8796,10.9188,10.9729,10.9764,11.0204,11.15,11.3891,11.4941,11.5274,11.6759,11.7544,11.7997,11.7997,11.8225,11.8567,11.906,11.9212,11.9326,11.9744,11.9971,11.9933,11.9971,11.9971,11.9971,11.9971,11.9971,11.9971,11.9971,11.9971,11.9971,11.9971,11.9971,11.9971,11.9971,11.9971,11.9971,11.9971,11.9971,11.9971,11.9971,11.9971,11.9971,11.9971,11.9971,11.9971,11.9971,11.9971,11.9971,11.9971,11.9971,11.9971,11.9971,11.9971,11.9971,11.9971,11.9971,11.9971,11.9971,11.9971,11.9971,11.9971,11.9971,11.9971,11.9971,11.9971,11.9971,11.9971,12.0123,12.0389,12.0465,12.0921,12.149,12.1756,12.2022,12.2363,12.2781,12.3047,12.3047,12.335,12.3882,12.4148,12.4337,12.4679,12.5325,12.5894,12.5894,12.5932,12.6274,12.6539,12.6919,12.7564,12.9392,13.382,13.8429,14.3252,14.7927,15.2525,15.6273,15.8212,16.0457,16.1943,10.1148,9.8586,10.2347,10.4055,10.4127,10.4625,10.4981,10.5195,10.5051,10.5478,10.6337,10.6588,10.6945,10.726,10.7438,10.7941,10.844,10.8725,10.9224,11.0066,11.1931,11.257,11.3088,11.5341,11.6824,11.7162,11.7162,11.7165,11.7431,11.8149,11.8377,11.8453,11.9174,11.963,11.9706,11.9857,11.9971,11.9971,11.9971,11.9971,11.9971,11.9971,11.9971,11.9971,11.9971,11.9971,11.9971,11.9971,11.9971,11.9971,11.9971,11.9971,11.9971,11.9971,11.9971,11.9971,11.9971,11.9971,11.9971,11.9971,11.9971,11.9971,11.9971,11.9971,11.9971,11.9971,11.9971,11.9971,11.9971,11.9971,11.9971,11.9971,11.9971,11.9971,11.9971,11.9971,11.9971,11.9971,11.9971,11.9971,11.9971,11.9971,12.0047,12.0085,12.0275,12.0731,12.0921,12.1072,12.1452,12.1832,12.2173,12.2173,12.2439,12.2857,12.3198,12.3388,12.3768,12.4413,12.4565,12.4565,12.4679,12.5097,12.5476,12.6289,12.7375,13.0101,13.4396,13.9576,14.3848,14.8651,15.2741,15.6107,15.8008,15.8967,16.0554,10.3023,10.2918,10.3201,10.3378,10.3378,10.3485,10.3913,10.4233,10.3733,10.4301,10.5444,10.5983,10.6055,10.598,10.6477,10.6871,10.7014,10.7656,10.8119,10.8416,10.9412,11.0808,11.1834,11.4026,11.5463,11.6251,11.6327,11.6668,11.7051,11.7317,11.7431,11.7618,11.8377,11.8794,11.8946,11.9592,11.9857,11.9857,11.9933,11.9971,11.9971,11.9971,11.9971,11.9971,11.9971,11.9971,11.9933,11.9782,11.982,11.9895,11.9744,11.9706,11.9895,11.9933,11.9895,11.9857,11.9971,11.9971,11.9971,11.9971,11.9971,11.9971,11.9971,11.9971,11.9971,11.9971,11.9971,11.9971,11.9971,11.9971,11.9971,11.9971,11.9971,11.9971,11.9971,11.9971,11.9971,11.9971,11.9971,11.9971,11.9971,11.9971,11.9971,11.9971,12.0009,12.0161,12.0199,12.0237,12.0541,12.0958,12.1224,12.149,12.1794,12.2135,12.2439,12.2629,12.2895,12.335,12.335,12.3274,12.312,12.373,12.4186,12.6008,12.7801,13.1128,13.5414,14.1206,14.6169,14.9158,15.2054,15.5679,15.7449,15.784,15.9058,10.3235,10.3235,10.3235,10.3235,10.3235,10.3235,10.3414,10.3557,10.3308,10.3877,10.4661,10.5054,10.5196,10.5624,10.5909,10.6052,10.6123,10.6836,10.6833,10.666,10.7715,10.9203,11.0912,11.2508,11.3935,11.5231,11.5491,11.5681,11.5947,11.6441,11.6706,11.6858,11.7542,11.7959,11.8035,11.8756,11.9212,11.9288,11.9668,11.9971,11.9971,11.9971,11.9971,11.9971,11.9971,11.9971,11.9895,11.8908,11.8377,11.8415,11.8415,11.8415,11.8341,11.8908,11.9212,11.9288,11.963,11.9933,11.9971,11.9857,11.9971,11.9971,11.9971,11.9971,11.9971,11.9971,11.9971,11.9971,11.9971,11.9971,11.9971,11.9971,11.9971,11.9971,11.9971,11.9971,11.9971,11.9971,11.9971,11.9971,11.9971,11.9971,11.9971,11.9971,11.9971,11.9971,11.9971,11.9971,12.0047,12.0275,12.0351,12.0579,12.0958,12.13,12.1604,12.187,12.2097,12.2173,12.2173,12.2022,12.2097,12.2629,12.3009,12.4859,12.5784,12.8623,13.222,13.9169,14.5391,14.8926,15.1319,15.3946,15.5733,15.6369,15.7268,10.2522,10.2522,10.2522,10.2558,10.2453,10.2808,10.2879,10.2915,10.3164,10.3556,10.3913,10.3984,10.4269,10.4839,10.5052,10.5159,10.5303,10.5731,10.5658,10.5482,10.631,10.7679,10.927,11.0533,11.1947,11.3553,11.4288,11.477,11.5112,11.5605,11.5871,11.6023,11.6706,11.7086,11.7051,11.7921,11.8339,11.8415,11.8908,11.9174,11.9212,11.944,11.9592,11.9592,11.9592,11.944,11.9174,11.7999,11.7393,11.7431,11.7393,11.7393,11.7468,11.8035,11.8339,11.8415,11.8908,11.9174,11.9212,11.9136,11.9136,11.9174,11.9136,11.9212,11.9099,11.9364,11.9554,11.9592,11.982,11.9971,11.9971,11.9971,11.982,11.9592,11.982,11.9971,11.9971,11.9971,11.9971,11.9971,11.9971,11.9971,11.9971,11.9971,11.9971,11.9971,11.9971,11.9971,11.9971,12.0047,11.9971,11.9971,12.0009,12.0351,12.0655,12.0921,12.1072,12.111,12.1072,12.0958,12.1338,12.1756,12.2022,12.2824,12.3279,12.5442,12.8901,13.4004,14.0026,14.4515,14.9411,15.2138,15.3726,15.4712,15.5497,10.0886,10.0993,10.0886,10.1028,10.1171,10.1741,10.199,10.2097,10.2843,10.3057,10.3128,10.3235,10.3342,10.3485,10.4162,10.434,10.4269,10.4305,10.434,10.4554,10.5232,10.6346,10.7677,10.8823,11.0221,11.1477,11.2867,11.4093,11.4808,11.496,11.5036,11.5188,11.5871,11.6251,11.6251,11.7048,11.7393,11.7542,11.7544,11.7544,11.7506,11.8377,11.8719,11.8756,11.8681,11.8301,11.758,11.7317,11.7165,11.7203,11.7203,11.7317,11.7165,11.7355,11.7393,11.7504,11.7542,11.7468,11.7506,11.7582,11.7769,11.7769,11.7506,11.7658,11.781,11.8339,11.8756,11.8832,11.9326,11.982,11.9744,11.9744,11.9478,11.8984,11.9288,11.9706,11.982,11.9933,11.9971,11.9971,11.9971,11.9971,11.9971,11.9971,11.9971,11.9971,11.9971,11.9971,11.9971,11.9971,11.9971,11.9971,11.9971,12.0009,12.0009,12.0009,12.0047,12.0123,12.0199,12.0275,12.0731,12.0921,12.1186,12.13,12.1908,12.248,12.5965,13.2903,13.8161,14.1002,14.6942,15.1298,15.2283,15.3011,15.3943,10.0352,10.0815,10.0954,10.0954,10.0886,10.11,10.1346,10.1382,10.1875,10.1983,10.195,10.28,10.2909,10.2629,10.3307,10.3378,10.2773,10.2773,10.3023,10.3627,10.4658,10.6013,10.7622,10.8866,11.0333,11.1923,11.2689,11.3024,11.3434,11.3897,11.4163,11.4239,11.5036,11.5415,11.5567,11.6213,11.6668,11.6672,11.72,11.7355,11.7393,11.7769,11.7883,11.7807,11.7352,11.6896,11.6668,11.6137,11.5833,11.5833,11.5833,11.5833,11.5871,11.6365,11.663,11.6744,11.7162,11.7393,11.7393,11.7393,11.7355,11.7355,11.7355,11.7393,11.7393,11.762,11.7772,11.781,11.8187,11.8301,11.8151,11.8151,11.8187,11.8035,11.8111,11.8491,11.906,11.9136,11.9364,11.9744,11.9857,11.9933,11.9971,11.9971,11.9971,11.9971,11.9971,11.9971,11.9971,11.9971,11.9971,11.9971,11.9971,11.9971,11.9971,11.9971,12.0009,12.0047,12.0085,12.0047,12.0237,12.0275,12.0351,12.0427,12.0693,12.1072,12.5066,13.2262,13.5736,13.7342,14.3382,14.9886,15.0879,15.1464,15.1851,9.5731,9.7763,9.9343,9.9996,10.0134,10.0316,10.0526,10.0526,10.0569,10.0676,10.1061,10.1908,10.2087,10.1702,10.2097,10.213,10.1598,10.1598,10.1847,10.2485,10.3894,10.4922,10.6064,10.8151,10.972,11.0525,11.1567,11.215,11.2492,11.3024,11.3327,11.3441,11.3859,11.4314,11.4618,11.5112,11.5529,11.5833,11.6327,11.6592,11.6592,11.6896,11.6896,11.6592,11.6099,11.5795,11.5833,11.534,11.5074,11.5074,11.5074,11.5074,11.5112,11.5529,11.5833,11.5871,11.6327,11.6592,11.6592,11.6592,11.6592,11.6592,11.6592,11.6444,11.663,11.6858,11.7048,11.7124,11.7276,11.6975,11.6896,11.6896,11.6937,11.7086,11.7314,11.7769,11.8149,11.8301,11.8453,11.8908,11.906,11.9212,11.9402,11.9782,11.9933,11.9971,11.9971,11.9971,11.9971,11.9971,11.9971,11.9971,11.9971,11.9971,11.9971,11.9971,11.9971,11.9971,11.9971,11.9971,11.9971,12.0047,12.0085,12.0161,12.0123,12.0427,12.0958,12.782,13.101,13.4047,14.2846,14.8385,14.9734,15.0177,15.0259,8.7954,9.2726,9.6702,9.853,9.8601,9.9385,9.9706,9.964,9.8899,9.9355,10.0601,10.0883,10.0883,10.0708,10.0708,10.0779,10.0815,10.0815,10.0886,10.1168,10.278,10.3104,10.2409,10.6166,10.7618,10.7527,10.9765,11.1429,11.2332,11.2378,11.2522,11.256,11.2674,11.2948,11.3593,11.3745,11.4125,11.477,11.4998,11.5036,11.5112,11.5681,11.5643,11.4998,11.4884,11.4884,11.4884,11.4922,11.4884,11.4884,11.4808,11.4884,11.4884,11.4884,11.4846,11.4884,11.4922,11.4922,11.4922,11.4998,11.5036,11.5036,11.5188,11.5112,11.534,11.5833,11.6175,11.6213,11.663,11.6327,11.5226,11.5529,11.6023,11.6099,11.682,11.7127,11.7279,11.7428,11.7317,11.7506,11.7582,11.7997,11.8605,11.9402,11.9592,11.9668,11.982,11.982,11.9782,11.9895,11.9933,11.9971,11.9971,11.9933,11.9895,11.9706,11.9782,11.9933,11.9971,11.9971,11.9971,11.9971,11.9971,11.9971,11.9971,11.9971,11.9971,12.2118,12.5895,13.3129,14.1938,14.7004,14.8415,14.8845,14.9079,9.1112,9.4927,9.6258,9.7211,9.7717,9.8601,9.8922,9.882,9.8658,9.8831,9.9314,10.0401,10.0294,9.9314,9.9243,9.9564,10.0027,10.0063,10.0281,10.0954,10.1375,10.2001,10.2623,10.4495,10.5896,10.7074,10.8579,10.9873,11.067,11.1239,11.1543,11.1657,11.2188,11.2712,11.2796,11.2834,11.2948,11.3213,11.3821,11.4125,11.4087,11.3707,11.3403,11.3213,11.3282,11.3176,11.3176,11.3282,11.3282,11.332,11.3282,11.3282,11.3176,11.3282,11.3176,11.3282,11.3282,11.3282,11.3282,11.3783,11.4125,11.4163,11.4732,11.5074,11.5074,11.5226,11.5378,11.5302,11.4428,11.3821,11.3396,11.3935,11.432,11.4504,11.5188,11.5985,11.6479,11.6592,11.6782,11.7279,11.7203,11.7468,11.7807,11.8035,11.8263,11.8339,11.8719,11.906,11.9136,11.9554,11.9895,11.9971,11.9933,11.9706,11.9212,11.906,11.9402,11.9668,11.9857,11.982,11.9971,11.9933,11.9933,11.9516,11.9857,11.9933,11.982,12.0423,12.3204,13.2291,14.0901,14.699,14.762,14.791,14.8191,9.1242,9.3702,9.5521,9.6498,9.6961,9.7425,9.7639,9.7574,9.7587,9.7765,9.8173,9.9402,9.9086,9.7639,9.7995,9.8352,9.8815,9.9136,9.9528,9.9991,10.0826,10.1278,10.1725,10.3724,10.5155,10.5946,10.7421,10.8506,10.8999,10.9455,10.9873,11.0252,11.1049,11.1657,11.1923,11.1961,11.2256,11.2492,11.2986,11.3062,11.2758,11.2568,11.256,11.256,11.256,11.256,11.256,11.256,11.256,11.256,11.256,11.256,11.256,11.256,11.256,11.256,11.256,11.256,11.256,11.2948,11.3251,11.3251,11.3707,11.408,11.4011,11.4011,11.4118,11.4004,11.31,11.256,11.2674,11.2948,11.3251,11.3327,11.3669,11.4163,11.4656,11.4998,11.5415,11.5762,11.6289,11.6554,11.6786,11.6972,11.7124,11.7393,11.7883,11.8225,11.8263,11.8605,11.8908,11.8946,11.8946,11.8719,11.8377,11.8225,11.8415,11.8794,11.8946,11.8946,11.887,11.8946,11.8834,11.8796,11.9174,11.9402,11.9478,12.0194,12.2789,13.1158,13.9602,14.3532,14.7207,14.777,14.749,8.9373,9.004,9.4117,9.6035,9.6106,9.6248,9.6284,9.6257,9.6023,9.6441,9.714,9.7946,9.7558,9.6454,9.7033,9.7353,9.7425,9.8066,9.8352,9.856,10.0253,10.0547,9.9834,10.3451,10.4914,10.4477,10.6249,10.724,10.7671,10.7633,10.7936,10.8517,10.9455,11.0252,11.0898,11.1049,11.1467,11.2332,11.2294,11.1771,11.1087,11.1809,11.237,11.2264,11.2332,11.237,11.2218,11.237,11.2294,11.2256,11.2037,11.2037,11.2066,11.2066,11.2066,11.1923,11.2066,11.2104,11.2066,11.2256,11.2332,11.237,11.2522,11.2674,11.2674,11.2332,11.2142,11.2075,11.2112,11.2104,11.2332,11.2302,11.2484,11.2484,11.2636,11.256,11.2826,11.3176,11.3669,11.3669,11.439,11.5036,11.5605,11.5833,11.6213,11.6558,11.6937,11.7279,11.7279,11.7468,11.7582,11.7241,11.7165,11.7276,11.739,11.7241,11.7393,11.7468,11.7431,11.7582,11.7658,11.762,11.7431,11.7924,11.8225,11.8605,11.8794,11.9399,12.2775,12.9663,13.3606,13.6545,14.4094,14.6984,14.7069,8.8008,8.8303,9.2612,9.4751,9.5393,9.5963,9.6248,9.6114,9.4984,9.4808,9.5616,9.6437,9.6482,9.6248,9.6427,9.6498,9.6534,9.6676,9.6747,9.6854,9.7767,9.816,9.8232,10.026,10.2127,10.3323,10.4576,10.6027,10.7341,10.7519,10.7595,10.786,10.862,10.901,10.9303,10.9948,11.0366,11.048,10.991,10.9493,10.9238,11.01,11.0556,11.0556,11.0556,11.0556,11.0556,11.0556,11.0252,10.9645,10.9569,10.9303,10.8696,10.862,10.862,10.8658,10.862,10.862,10.8696,10.9797,11.0556,11.0556,11.1838,11.256,11.237,11.0138,10.8885,10.9455,10.9645,10.991,11.048,11.1087,11.1505,11.1543,11.218,11.237,11.256,11.275,11.2864,11.2796,11.291,11.3244,11.3403,11.3897,11.4428,11.4846,11.5757,11.6479,11.663,11.7124,11.6858,11.6061,11.5605,11.5833,11.6441,11.6517,11.6782,11.7317,11.7317,11.7241,11.7241,11.7317,11.7355,11.7279,11.7618,11.7731,11.7769,11.7997,12.059,12.5603,12.9502,13.3328,13.9487,14.3386,14.5874,8.679,9.037,9.0793,9.2332,9.4537,9.4965,9.5143,9.5108,9.4247,9.4132,9.4573,9.4965,9.5143,9.5179,9.5535,9.5714,9.5714,9.607,9.6248,9.6248,9.6676,9.689,9.7025,9.8414,9.9609,10.0609,10.1743,10.3247,10.4934,10.5072,10.5688,10.6949,10.7367,10.7784,10.8062,10.862,10.8847,10.8847,10.8392,10.8164,10.8202,10.862,10.8847,10.8885,10.8847,10.8847,10.8847,10.8847,10.8658,10.8202,10.8062,10.7974,10.7519,10.7519,10.7519,10.7519,10.7519,10.7519,10.7519,10.8354,10.8847,10.8885,10.9683,11.0062,10.9786,10.8316,10.7708,10.8126,10.8164,10.8354,10.8809,10.9265,10.9531,10.9531,10.991,11.0328,11.0708,11.1049,11.1572,11.1847,11.2332,11.256,11.256,11.2872,11.3176,11.3251,11.3859,11.4656,11.5074,11.515,11.4846,11.4125,11.4201,11.4656,11.5036,11.5415,11.5871,11.6289,11.6365,11.6365,11.6365,11.6365,11.6327,11.6365,11.6706,11.6896,11.6896,11.7089,11.9452,12.3355,12.663,13.0693,13.6309,14.0175,14.2672,8.63,9.2667,8.9008,8.9982,9.3956,9.3956,9.3956,9.3956,9.386,9.3956,9.3956,9.3956,9.3956,9.3896,9.4609,9.4894,9.4965,9.5607,9.5892,9.5892,9.5999,9.607,9.607,9.7064,9.7628,9.7824,9.9002,10.041,10.1963,10.2235,10.3404,10.5483,10.5772,10.6228,10.7101,10.7405,10.7253,10.6797,10.7025,10.7177,10.7177,10.7405,10.7519,10.7519,10.7519,10.7519,10.7519,10.7405,10.7291,10.7177,10.7025,10.6911,10.6797,10.6721,10.6797,10.6797,10.6797,10.6797,10.6797,10.6797,10.6873,10.6987,10.7215,10.6873,10.5886,10.6418,10.6835,10.6949,10.6873,10.7063,10.7329,10.7405,10.7519,10.7595,10.7557,10.7784,10.8479,10.9265,10.9873,11.048,11.1353,11.1762,11.1695,11.2066,11.2218,11.237,11.2788,11.2834,11.3365,11.2834,11.2416,11.2568,11.3138,11.3517,11.3745,11.4239,11.4542,11.4802,11.4694,11.4694,11.4694,11.4808,11.496,11.4884,11.5605,11.6023,11.6099,11.6668,11.84,12.1315,12.3514,12.6846,13.4193,13.662,13.8297,8.7215,8.8486,8.7803,8.9982,9.3956,9.3956,9.3956,9.3956,9.3956,0.0,0.0,9.3956,9.3956,9.386,9.4003,9.4074,9.4074,9.4217,9.4252,9.4288,9.4965,9.5286,9.5322,9.6124,9.6939,9.7824,9.8867,9.9919,10.1178,10.2017,10.2655,10.3115,10.3153,10.3912,10.5369,10.6835,10.6152,10.357,10.4747,10.5469,10.5407,10.6797,10.7519,10.7519,10.7519,10.7519,10.7481,10.6873,10.619,10.5506,10.4785,10.4064,10.3418,10.3342,10.3342,10.3342,10.3342,10.3342,10.3342,10.3342,10.3646,10.4368,10.5796,10.5544,10.3304,10.3266,10.3646,10.4428,10.4405,10.4975,10.638,10.6494,10.6797,10.7443,10.7519,10.7519,10.7708,10.7898,10.8012,10.8126,10.843,10.8658,10.9379,11.0024,11.067,11.1315,11.1847,11.2674,11.2674,11.1885,11.1467,11.2142,11.2446,11.2788,11.2826,11.2948,11.3016,11.3168,11.313,11.3016,11.313,11.3517,11.3935,11.4011,11.4694,11.5112,11.5264,11.534,11.5781,11.6542,11.9563,12.3821,12.8697,13.153,13.4322,8.5835,8.982,8.7754,8.9543,0.0,9.3956,9.3432,9.2684,9.2719,9.2898,9.3254,9.3254,9.3504,9.3956,9.3956,9.3956,9.3956,9.3956,9.3956,9.3896,9.4288,9.4466,9.4466,9.4858,9.5329,9.5815,9.6362,9.7356,9.873,9.9797,10.0699,10.1694,10.2141,10.2887,10.3624,10.4519,10.414,10.2469,10.3304,10.3722,10.376,10.4519,10.4937,10.4937,10.4937,0.0,0.0,0.0,0.0,0.0,0.0,0.0,0.0,10.2469,0.0,10.1862,10.1824,10.1634,10.1216,10.1121,10.1368,10.1824,10.3001,10.2849,10.0761,10.1368,10.2165,10.3001,10.3077,10.3418,10.4254,10.433,10.4519,10.4899,10.4937,10.5127,10.5544,10.5962,10.6418,10.6797,10.7253,10.7633,10.8088,10.8506,10.8885,10.9303,11.0062,11.0708,11.1011,11.0138,10.9455,10.9873,11.0594,11.142,11.1733,11.2256,11.2598,11.256,11.256,11.256,11.256,11.2834,11.3138,11.3138,11.3441,11.3852,11.3745,11.3852,11.3745,11.4136,11.7222,12.1527,12.5904,12.782,13.0484,8.305,9.0818,8.6726,8.7833,9.2341,9.3109,9.2719,9.1579,9.1579,9.1899,9.2505,9.2505,9.2862,9.3397,9.3432,9.3432,9.3432,9.3432,9.3504,9.3646,9.3646,9.3717,9.386,9.3956,9.3956,9.3956,9.4053,9.5049,9.6665,9.7728,9.9024,10.0624,10.1494,10.209,10.2203,0.0,0.0,0.0,10.2165,10.2241,10.2241,10.2393,10.2469,10.2469,10.2469,0.0,10.2469,10.2317,10.2241,10.2203,10.209,0.0,0.0,0.0,0.0,0.0,0.0,0.0,0.0,0.0,0.0,0.0,9.9584,9.9318,9.8179,9.9432,10.0647,10.1444,10.152,10.1672,10.1938,10.1976,10.209,10.2431,10.2469,10.2735,10.3478,10.4102,10.4785,10.5469,10.6114,10.6645,10.6911,10.7025,10.7177,10.7595,10.8088,10.862,10.8999,10.8202,10.7557,10.7595,10.8734,10.9759,11.0404,11.0974,11.1382,11.1771,11.1771,11.1771,11.199,11.2075,11.2332,11.2226,11.2446,11.2636,11.2636,11.256,11.2674,11.2598,11.5271,11.8821,12.2705,12.4934,12.8318,7.8798,8.599,8.1861,8.26,8.6792,9.0412,9.1757,9.1579,9.1579,9.1614,9.1721,9.1721,9.1757,9.1864,9.1864,9.1864,9.1864,9.1864,9.222,9.2826,9.2862,9.3218,9.3956,9.3956,9.3956,9.3956,9.4821,9.5853,9.6919,9.8065,9.9053,10.0021,10.021,10.0685,10.133,10.0647,10.021,10.021,10.1027,10.1406,10.1406,10.209,10.2469,10.2469,10.2469,10.2469,10.2431,10.1786,10.1406,10.1368,10.0685,9.9869,9.928,9.9242,9.8862,0.0,9.7989,0.0,0.0,0.0,0.0,0.0,0.0,0.0,0.0,9.6357,9.7268,9.8103,9.8141,9.8749,10.0153,10.0305,10.0779,10.2279,10.2469,10.2507,10.2583,10.2697,10.2849,10.2925,10.3039,10.3722,10.5127,10.5255,10.5862,10.7025,10.7367,10.7025,10.6114,10.6645,10.7291,10.7519,10.7708,10.7974,10.8126,10.8202,10.8544,10.9113,10.9341,10.9493,11.0214,11.086,11.1315,11.1391,11.1771,11.2408,11.256,11.2484,11.2484,11.2332,11.2786,11.4128,11.6793,12.2484,12.8608,8.2455,8.7988,8.6165,8.439,8.3286,8.7259,8.8941,8.8941,8.8941,8.8941,8.8976,8.944,8.9868,9.026,9.026,9.0509,9.0901,9.0901,9.1329,9.2078,9.2078,9.2256,9.2577,9.2577,9.2826,9.3218,9.3696,9.4389,9.5301,9.639,9.7308,9.8296,9.8866,9.9359,9.985,9.9508,9.9546,9.9869,10.0343,10.0533,10.0533,10.0875,10.0969,10.1102,10.1102,10.1064,10.1102,10.0723,10.0533,10.0533,9.9736,9.8938,9.8103,9.7648,9.6774,0.0,0.0,0.0,0.0,0.0,0.0,0.0,0.0,0.0,0.0,0.0,9.499,9.537,9.5954,9.6395,9.7116,9.7648,9.8217,9.8938,9.9432,9.9736,9.9736,10.0533,10.1064,10.1007,10.19,10.2735,10.3494,10.3608,10.3912,10.4595,10.4709,10.4443,10.3874,10.4595,10.5393,10.5469,10.6228,10.6835,10.6835,10.7215,10.7633,10.7974,10.805,10.8164,10.8544,10.8923,10.9151,10.9189,10.9455,10.9721,10.9721,10.9721,10.9721,10.9721,10.9721,11.0912,11.3895,11.9512,12.4922,8.2578,8.6826,8.8351,8.6154,8.2012,8.5026,8.6303,8.6391,8.6303,8.6391,8.6427,8.6944,8.764,8.8446,8.8591,8.9057,8.9592,8.9592,8.9945,9.0723,9.0723,9.0937,9.1258,9.1293,9.1686,9.2398,9.2624,9.31,9.3768,9.4758,9.571,9.6753,9.7098,9.7571,9.8086,9.8369,9.8787,9.9394,9.949,9.9698,9.9698,9.9793,9.9907,9.9907,9.9907,9.9907,9.9869,9.9717,9.9584,9.9394,9.8597,9.7686,9.666,9.6015,0.0,0.0,0.0,0.0,0.0,0.0,0.0,0.0,0.0,9.1497,9.1877,0.0,9.3016,0.0,9.4092,9.4548,9.4738,9.5256,0.0,0.0,9.6547,9.7018,9.6964,9.8217,9.8997,9.8997,10.0571,10.1672,10.1862,10.2052,10.209,10.19,10.2052,10.2165,10.2203,10.2887,10.3418,10.357,10.4519,10.5355,10.5355,10.5924,10.6342,10.6835,10.7101,10.7291,10.7481,10.7519,10.7519,10.7519,10.7519,10.7519,10.7595,10.7519,10.7367,10.6759,10.7565,10.9387,11.2835,11.778,12.2407,7.2488,7.6734,8.261,8.4738,8.4299,8.4612,8.4734,8.4734,8.4734,8.4734,8.4734,8.4806,8.5276,8.6093,8.6836,0.0,8.7162,8.7126,8.7585,8.8335,8.8335,8.9083,9.0438,9.0495,9.0866,9.165,9.2495,9.2963,9.3187,9.4028,9.5053,9.5982,9.4536,9.4588,9.6417,9.723,9.7686,9.7854,9.8483,9.8862,9.8862,9.9584,9.9907,9.9869,9.9907,9.9869,9.9869,9.9242,9.8483,9.7761,9.6926,9.5749,9.4117,0.0,0.0,0.0,0.0,0.0,0.0,0.0,0.0,0.0,0.0,0.0,0.0,0.0,0.0,9.2446,9.2636,0.0,9.3737,9.3851,0.0,0.0,0.0,9.5308,9.5256,9.6053,9.6493,9.6585,0.0,0.0,10.0077,10.0837,10.1027,10.0267,10.0837,10.133,10.133,10.2052,10.2545,10.2545,10.2697,10.2811,10.3039,10.3077,10.3646,10.4975,10.5886,10.6532,10.7139,10.7329,10.7443,10.7291,10.7481,10.7405,10.7481,10.7253,10.6797,10.458,10.7448,11.0896,11.232,11.8812,12.454,7.2923,7.5556,8.0384,8.2417,8.2417,8.2417,8.2702,8.313,8.313,8.3435,8.3861,8.3861,8.4334,8.5181,8.5556,0.0,0.0,0.0,8.6404,8.6703,8.6667,8.7013,8.7569,8.755,8.8192,8.9404,8.9807,9.0241,9.0763,9.1132,9.1342,9.1518,0.0,0.0,9.4003,9.5332,9.6334,9.6774,9.761,9.8027,9.8027,9.8331,9.8483,9.8521,9.8521,9.8483,9.8483,9.7724,9.7116,9.6774,9.499,9.3433,0.0,0.0,0.0,0.0,0.0,0.0,0.0,0.0,0.0,0.0,0.0,8.7283,8.8422,0.0,0.0,0.0,9.0627,8.9637,8.9941,9.223,0.0,0.0,0.0,0.0,0.0,0.0,0.0,9.4724,9.6205,9.7572,9.8369,9.8369,9.8293,9.8483,9.9242,9.9926,10.0419,0.0,10.1748,10.171,10.2128,10.2469,10.2469,10.2469,10.2659,10.338,10.376,10.4102,10.4405,10.4443,10.4443,10.4481,10.4443,10.4481,10.4443,10.4481,10.4064,10.3288,10.4552,10.6761,10.9448,11.46,11.9644,7.4205,0.0,0.0,0.0,0.0,8.109,8.1522,8.2242,8.2242,8.2539,8.3085,8.282,0.0,0.0,0.0,0.0,0.0,0.0,8.4549,8.4732,8.4512,8.466,8.5071,8.5107,8.5732,8.7016,8.7283,8.7659,8.816,8.7568,8.7319,8.7643,0.0,0.0,0.0,0.0,9.4039,9.509,9.597,9.6743,9.7154,9.742,9.7626,9.7626,9.7626,9.742,9.7154,9.6129,9.5332,9.4711,9.2674,0.0,0.0,0.0,0.0,0.0,0.0,0.0,0.0,0.0,0.0,0.0,0.0,0.0,0.0,0.0,0.0,0.0,0.0,0.0,8.7428,9.0118,9.1199,0.0,0.0,0.0,0.0,0.0,0.0,0.0,0.0,0.0,9.5711,9.5597,9.5939,0.0,0.0,9.8445,9.947,10.0153,10.0609,10.0837,10.1368,0.0,10.1748,10.1652,10.1824,10.209,10.209,10.2203,10.2431,10.2469,10.2469,10.2507,10.2469,10.2128,10.133,10.1216,10.1578,10.219,10.3149,10.4969,10.8265,11.2769,11.7056,0.0,0.0,0.0,0.0,0.0,0.0,0.0,0.0,8.2334,8.2415,0.0,8.1525,0.0,0.0,0.0,0.0,8.2473,8.1749,0.0,0.0,8.1633,8.2038,8.3429,8.3429,8.3893,8.4714,8.5509,8.5941,8.5746,8.3563,0.0,0.0,0.0,0.0,0.0,0.0,9.0895,9.2636,9.3428,9.4671,9.619,9.7116,9.7496,9.7588,9.7588,9.7078,9.6281,9.4648,9.3054,9.1459,8.9789,0.0,0.0,0.0,0.0,0.0,0.0,0.0,0.0,0.0,0.0,0.0,0.0,0.0,0.0,0.0,0.0,0.0,0.0,0.0,0.0,8.7631,0.0,0.0,0.0,0.0,0.0,0.0,0.0,0.0,0.0,9.3168,9.1687,9.2788,9.4421,9.5962,0.0,0.0,0.0,0.0,9.9128,9.9793,9.9945,9.9945,9.9983,9.9983,10.0343,10.114,0.0,0.0,10.2279,10.2431,10.2355,10.2431,10.2279,10.1444,9.8479,9.8871,9.9838,10.141,10.4776,10.7675,10.9946,11.5336,12.0058,0.0,0.0,0.0,0.0,0.0,0.0,0.0,0.0,0.0,8.1078,0.0,8.1336,0.0,0.0,0.0,0.0,0.0,0.0,0.0,0.0,8.0904,8.1238,8.2648,8.1646,8.1827,0.0,8.3333,8.328,0.0,0.0,0.0,0.0,0.0,0.0,0.0,0.0,8.9643,9.0842,9.2136,9.3377,9.4521,9.5408,9.5597,9.5066,9.5028,9.4383,9.2928,9.1877,9.051,0.0,0.0,0.0,0.0,0.0,0.0,0.0,0.0,0.0,0.0,0.0,0.0,0.0,0.0,0.0,0.0,0.0,0.0,0.0,0.0,0.0,0.0,0.0,8.6581,0.0,0.0,0.0,0.0,0.0,0.0,0.0,0.0,0.0,8.8907,9.0244,9.1725,9.2826,9.4383,9.5863,9.6964,0.0,0.0,0.0,0.0,0.0,0.0,0.0,9.9983,10.0381,9.9963,9.9698,10.0001,9.9622,9.9242,9.9242,0.0,0.0,10.1568,10.396,10.5893,10.6579,10.8903,11.1576,11.3983,11.6932,11.9834,0.0,0.0,0.0,0.0,0.0,0.0,0.0,0.0,0.0,8.0309,8.0814,0.0,0.0,0.0,0.0,0.0,0.0,0.0,0.0,0.0,0.0,0.0,8.1496,8.0385,0.0,0.0,0.0,0.0,0.0,0.0,0.0,0.0,0.0,0.0,0.0,0.0,8.7381,8.9043,9.0111,9.1457,9.313,9.3914,9.4092,9.3699,9.3168,9.2332,9.1183,0.0,0.0,0.0,0.0,0.0,0.0,0.0,0.0,0.0,0.0,0.0,0.0,0.0,0.0,0.0,0.0,0.0,0.0,0.0,0.0,0.0,0.0,0.0,0.0,0.0,8.6444,0.0,0.0,0.0,0.0,0.0,0.0,0.0,0.0,0.0,0.0,8.8308,8.9561,9.0662,9.2256,9.3813,9.5218,9.6129,9.6964,0.0,0.0,0.0,0.0,0.0,0.0,0.0,0.0,0.0,0.0,0.0,0.0,0.0,0.0,10.1069,10.4085,10.6708,10.8587,10.8927,0.0,0.0,0.0,0.0,0.0,0.0,0.0,0.0,0.0,0.0,0.0,0.0,0.0,0.0,0.0,7.988,0.0,0.0,7.859,0.0,0.0,0.0,0.0,0.0,0.0,0.0,0.0,0.0,0.0,0.0,0.0,0.0,0.0,0.0,0.0,0.0,0.0,0.0,0.0,0.0,0.0,0.0,8.726,8.7426,8.8981,9.2181,9.2463,9.2902,9.3547,9.2067,9.1193,9.1031,0.0,0.0,0.0,0.0,0.0,0.0,0.0,0.0,0.0,0.0,0.0,0.0,0.0,0.0,0.0,0.0,0.0,0.0,0.0,0.0,0.0,0.0,0.0,0.0,0.0,0.0,8.6657,8.4207,8.2461,0.0,0.0,0.0,0.0,0.0,0.0,0.0,0.0,0.0,8.9675,8.9979,9.0928,9.3282,9.4345,9.518,9.6091,9.6888,9.7458,9.7496,9.7496,9.7496,0.0,0.0,0.0,0.0,0.0,0.0,0.0,0.0,0.0,0.0,0.0,0.0,0.0,0.0,0.0,0.0,0.0,0.0,0.0,0.0,0.0,0.0,0.0,0.0,0.0,0.0,0.0,0.0,0.0,0.0,0.0,0.0,0.0,0.0,0.0,0.0,0.0,0.0,0.0,0.0,0.0,0.0,0.0,0.0,0.0,0.0,0.0,0.0,0.0,0.0,0.0,0.0,0.0,0.0,8.3753,8.6438,8.7008,8.8303,9.0559,9.1858,9.2332,9.1866,9.0928,9.0092,0.0,0.0,0.0,0.0,0.0,0.0,0.0,0.0,0.0,0.0,0.0,0.0,0.0,0.0,0.0,0.0,0.0,0.0,0.0,0.0,0.0,0.0,0.0,0.0,0.0,0.0,0.0,0.0,8.098,8.0981,8.155,0.0,0.0,0.0,0.0,0.0,0.0,0.0,0.0,0.0,0.0,9.0282,9.1004,9.1801,9.2864,9.4269,9.4686,9.5066,9.5726,9.5802,9.584,9.584,0.0,0.0,0.0,0.0,0.0,0.0,0.0,0.0,0.0,0.0,0.0,0.0,0.0,0.0,0.0,0.0,0.0,0.0,0.0,0.0,0.0,0.0,0.0,0.0,0.0,0.0,0.0,0.0,0.0,0.0,0.0,0.0,0.0,0.0,0.0,0.0,0.0,0.0,0.0,0.0,0.0,0.0,0.0,0.0,0.0,0.0,0.0,0.0,0.0,0.0,0.0,0.0,0.0,8.2555,8.4674,8.5767,8.7133,8.8846,9.0579,9.1269,9.069,8.9552,8.8498,0.0,0.0,0.0,0.0,0.0,0.0,0.0,0.0,0.0,0.0,0.0,0.0,0.0,0.0,0.0,0.0,0.0,0.0,0.0,0.0,0.0,0.0,0.0,0.0,0.0,0.0,0.0,0.0,8.1957,8.1195,8.0829,0.0,0.0,0.0,0.0,0.0,0.0,0.0,0.0,0.0,0.0,8.8688,8.9029,8.9751,0.0,0.0,9.2332,9.294,9.3471,9.3902,9.413,9.4092,9.3585,0.0,0.0,0.0,0.0,0.0,0.0,0.0,0.0,0.0,0.0,0.0,0.0,0.0,0.0,0.0,0.0,0.0,0.0,0.0,0.0,0.0,0.0,0.0,0.0,0.0,0.0,0.0,0.0,0.0,0.0,0.0,0.0,0.0,0.0,0.0,0.0,0.0,0.0,0.0,0.0,0.0,0.0,0.0,0.0,0.0,0.0,0.0,0.0,0.0,0.0,0.0,0.0,0.0,8.2423,8.4125,8.5709,8.722,8.9042,8.9979,8.9903,8.8263,8.6751,0.0,0.0,0.0,0.0,0.0,0.0,0.0,0.0,0.0,0.0,0.0,0.0,0.0,0.0,0.0,0.0,0.0,0.0,0.0,0.0,0.0,0.0,0.0,0.0,0.0,0.0,0.0,0.0,0.0,0.0,0.0,0.0,0.0,0.0,0.0,0.0,0.0,0.0,0.0,0.0,0.0,8.66,8.7321,8.8118,8.8733,0.0,8.9979,9.0966,9.088,9.1611,9.2143,9.2143,0.0,0.0,0.0,0.0,0.0,0.0,0.0,0.0,0.0,0.0,0.0,0.0,0.0,0.0,0.0,0.0,0.0,0.0,0.0,0.0,0.0,0.0,0.0,0.0,0.0,0.0,0.0,0.0,0.0,0.0,0.0,0.0,0.0,0.0,0.0,0.0,0.0,0.0,0.0,0.0,0.0,0.0,0.0,0.0,0.0,0.0,0.0,0.0,0.0,0.0,0.0,0.0,0.0,0.0,8.2423,8.4088,8.5415,8.6494,8.8741,8.9713,8.9105,8.808,0.0,0.0,0.0,0.0,0.0,0.0,0.0,0.0,0.0,0.0,0.0,0.0,0.0,0.0,0.0,0.0,0.0,0.0,0.0,0.0,0.0,0.0,0.0,0.0,0.0,0.0,0.0,9.0616,0.0,0.0,0.0,0.0,0.0,0.0,0.0,0.0,0.0,0.0,0.0,0.0,0.0,0.0,8.6372,8.66,8.6789,8.7169,0.0,0.0,8.8376,8.8376,8.8612,8.8764,0.0,0.0,0.0,0.0,0.0,0.0,0.0,0.0,0.0,0.0,0.0,0.0,0.0,0.0,0.0,0.0,0.0,0.0,0.0,0.0,0.0,0.0,0.0,0.0,0.0,0.0,0.0,0.0,0.0,0.0,0.0,0.0,0.0,0.0,0.0,0.0,0.0,0.0,0.0,0.0,0.0,0.0,0.0,0.0,0.0,0.0,0.0,0.0,0.0,0.0,0.0,0.0,0.0,0.0,0.0,8.1348,8.3306,8.4788,8.5646,8.7391,8.8268,8.827,8.7435,8.603,0.0,0.0,0.0,0.0,0.0,0.0,0.0,0.0,0.0,0.0,0.0,0.0,0.0,0.0,0.0,0.0,0.0,0.0,0.0,0.0,0.0,0.0,0.0,0.0,0.0,0.0,0.0,0.0,0.0,0.0,0.0,0.0,0.0,0.0,0.0,0.0,0.0,0.0,0.0,0.0,0.0,0.0,8.6258,8.5954,0.0,0.0,0.0,8.6979,8.6979,0.0,0.0,0.0,0.0,0.0,0.0,0.0,0.0,0.0,0.0,0.0,0.0,0.0,0.0,0.0,0.0,0.0,0.0,0.0,0.0,0.0,0.0,0.0,0.0,0.0,0.0,0.0,0.0,0.0,0.0,0.0,0.0,0.0,0.0,0.0,0.0,0.0,0.0,0.0,0.0,0.0,0.0,0.0,0.0,0.0,0.0,0.0,0.0,0.0,0.0,0.0,0.0,0.0,0.0,0.0,0.0,0.0,8.0182,8.2275,8.3941,8.4881,8.5861,8.6608,8.7276,8.6676,8.5081,0.0,0.0,0.0,0.0,0.0,0.0,0.0,0.0,0.0,0.0,0.0,0.0,0.0,0.0,0.0,0.0,0.0,0.0,0.0,0.0,0.0,0.0,0.0,0.0,0.0,0.0,0.0,0.0,0.0,0.0,0.0,0.0,0.0,0.0,0.0,0.0,0.0,0.0,0.0,0.0,0.0,8.5157,8.603,8.5461,8.5233,0.0,0.0,8.6144,8.6144,8.7359,0.0,0.0,0.0,0.0,0.0,0.0,0.0,0.0,0.0,0.0,0.0,0.0,0.0,0.0,0.0,0.0,0.0,0.0,0.0,0.0,0.0,0.0,0.0,0.0,0.0,0.0,0.0,0.0,0.0,0.0,0.0,0.0,0.0,0.0,0.0,0.0,0.0,0.0,0.0,0.0,0.0,0.0,0.0,0.0,0.0,0.0,0.0,0.0,0.0,0.0,0.0,0.0,0.0,0.0,0.0,0.0,8.101,8.2081,8.3375,8.4929,8.6427,8.696,8.6562,8.6372,8.5119,0.0,0.0,0.0,0.0,0.0,0.0,0.0,0.0,0.0,0.0,0.0,0.0,0.0,0.0,0.0,0.0,0.0,0.0,0.0,0.0,0.0,0.0,0.0,0.0,0.0,0.0,0.0,0.0,0.0,0.0,0.0,0.0,0.0,0.0,0.0,0.0,0.0,0.0,0.0,0.0,0.0,8.4284,8.5119,8.5081,0.0,0.0,0.0,0.0,8.5233,8.5499,0.0,0.0,0.0,0.0,0.0,0.0,0.0,0.0,0.0,0.0,0.0,0.0,0.0,0.0,0.0,0.0,0.0,0.0,0.0,0.0,0.0,0.0,0.0,0.0,0.0,0.0,0.0,0.0,0.0,0.0,0.0,0.0,0.0,0.0,0.0,0.0,0.0,0.0,0.0,0.0,0.0,0.0,0.0,0.0,0.0,0.0,0.0,0.0,0.0,0.0,0.0,0.0,0.0,0.0,0.0,0.0,8.1171,8.1687,8.2872,8.4876,8.5442,8.5888,8.6296,8.5499,8.4246,0.0,0.0,0.0,0.0,0.0,0.0,0.0,0.0,0.0,0.0,0.0,0.0,0.0,0.0,0.0,0.0,0.0,0.0,0.0,0.0,0.0,0.0,0.0,0.0,0.0,0.0,0.0,0.0,0.0,0.0,0.0,0.0,0.0,0.0,0.0,0.0,0.0,0.0,0.0,0.0,8.2955,8.4018,8.4853,0.0,0.0,0.0,0.0,0.0,0.0,8.5309,8.6067,0.0,0.0,0.0,0.0,0.0,0.0,0.0,0.0,0.0,0.0,0.0,0.0,0.0,0.0,0.0,0.0,0.0,0.0,0.0,0.0,0.0,0.0,0.0,0.0,0.0,0.0,0.0,0.0,0.0,0.0,0.0,0.0,0.0,0.0,0.0,0.0,0.0,0.0,0.0,0.0,0.0,0.0,0.0,0.0,0.0,0.0,0.0,0.0,0.0,0.0,0.0,0.0,0.0,0.0,0.0,8.0994,8.122,8.2409,8.4709,8.4221,8.462,8.5949,8.4549,8.3221,8.212,0.0,0.0,0.0,0.0,0.0,0.0,0.0,0.0,0.0,0.0,0.0,0.0,0.0,0.0,0.0,0.0,0.0,0.0,0.0,0.0,0.0,0.0,0.0,0.0,0.0,0.0,0.0,0.0,0.0,0.0,0.0,0.0,0.0,0.0,0.0,0.0,0.0,0.0,0.0,8.2347,8.36,0.0,0.0,0.0,0.0,0.0,0.0,0.0,0.0,8.7302,0.0,0.0,0.0,0.0,0.0,0.0,0.0,0.0,0.0,0.0,0.0,0.0,0.0,0.0,0.0,0.0,0.0,0.0,0.0,0.0,0.0,0.0,0.0,0.0,0.0,0.0,0.0,0.0,0.0,0.0,0.0,0.0,0.0,0.0,0.0,0.0,0.0,0.0,0.0,0.0,0.0,0.0,0.0,0.0,0.0,0.0,0.0,0.0,0.0,0.0,0.0,0.0,0.0,0.0,0.0,0.0,8.0922,8.2122,8.3935,8.4503,8.4844,8.5119,8.4246,8.2767,0.0,0.0,0.0,0.0,0.0,0.0,0.0,0.0,0.0,0.0,0.0,0.0,0.0,0.0,0.0,0.0,0.0,0.0,0.0,0.0,0.0,0.0,0.0,0.0,0.0,0.0,0.0,0.0,0.0,0.0,0.0,0.0,0.0,0.0,0.0,0.0,0.0,0.0,0.0,8.0259,8.1019,0.0,0.0,0.0,0.0,0.0,0.0,0.0,0.0,8.5723,0.0,0.0,0.0,0.0,0.0,0.0,0.0,0.0,0.0,0.0,0.0,0.0,0.0,0.0,0.0,0.0,0.0,0.0,0.0,0.0,0.0,0.0,0.0,0.0,0.0,0.0,0.0,0.0,0.0,0.0,0.0,0.0,0.0,0.0,0.0,0.0,0.0,0.0,0.0,0.0,0.0,0.0,0.0,0.0,0.0,0.0,0.0,0.0,0.0,0.0,0.0,0.0,0.0,0.0,0.0,0.0,0.0,0.0,8.2132,8.3714,8.4549,8.4739,8.4284,8.3107,8.1741,0.0,0.0,0.0,0.0,0.0,0.0,0.0,0.0,0.0,0.0,0.0,0.0,0.0,0.0,0.0,0.0,0.0,0.0,0.0,0.0,0.0,0.0,0.0,0.0,0.0,0.0,0.0,0.0,0.0,0.0,0.0,0.0,0.0,0.0,0.0,0.0,0.0,0.0,0.0,0.0,0.0,0.0,0.0,0.0,0.0,0.0,0.0,0.0,0.0,0.0,0.0,0.0,0.0,0.0,0.0,0.0,0.0,0.0,0.0,0.0,0.0,0.0,0.0,0.0,0.0,0.0,0.0,0.0,0.0,0.0,0.0,0.0,0.0,0.0,0.0,0.0,0.0,0.0,0.0,0.0,0.0,0.0,0.0,0.0,0.0,0.0,0.0,0.0,0.0,0.0,0.0,0.0,0.0,0.0,0.0,0.0,0.0,0.0,0.0,0.0,0.0,0.0,0.0,0.0,0.0,0.0,0.0,0.0,8.2176,8.3486,8.4436,8.4549,8.3752,8.1968,8.0411,0.0,0.0,0.0,0.0,0.0,0.0,0.0,0.0,0.0,0.0,0.0,0.0,0.0,0.0,0.0,0.0,0.0,0.0,0.0,0.0,0.0,0.0,0.0,0.0,0.0,0.0,0.0,0.0,0.0,0.0,0.0,0.0,0.0,0.0,0.0,0.0,0.0,0.0,0.0,0.0,0.0,0.0,0.0,0.0,0.0,0.0,0.0,0.0,8.3394,0.0,0.0,0.0,0.0,0.0,0.0,0.0,0.0,0.0,0.0,0.0,0.0,0.0,0.0,0.0,0.0,0.0,0.0,0.0,0.0,0.0,0.0,0.0,0.0,0.0,0.0,0.0,0.0,0.0,0.0,0.0,0.0,0.0,0.0,0.0,0.0,0.0,0.0,0.0,0.0,0.0,0.0,0.0,0.0,0.0,0.0,0.0,0.0,0.0,0.0,0.0,0.0,0.0,0.0,0.0,0.0,0.0,0.0,0.0,8.2381,8.2535,8.4132,8.4549,8.3714,8.1475,7.9044,0.0,0.0,0.0,0.0,0.0,0.0,0.0,0.0,0.0,0.0,0.0,0.0,0.0,0.0,0.0,0.0,0.0,0.0,0.0,0.0,0.0,0.0,0.0,0.0,0.0,0.0,0.0,0.0,0.0,0.0,0.0,0.0,0.0,0.0,0.0,0.0,0.0,0.0,0.0,0.0,0.0,0.0,0.0,0.0,0.0,0.0,0.0,0.0,0.0,0.0,0.0,0.0,0.0,0.0,0.0,0.0,0.0,0.0,0.0,0.0,0.0,0.0,0.0,0.0,0.0,0.0,0.0,0.0,0.0,0.0,0.0,0.0,0.0,0.0,0.0,0.0,0.0,0.0,0.0,0.0,0.0,0.0,0.0,0.0,0.0,0.0,0.0,0.0,0.0,0.0,0.0,0.0,0.0,0.0,0.0,0.0,0.0,0.0,0.0,0.0,0.0,0.0,0.0,0.0,0.0,0.0,0.0,0.0,8.0563,8.1057,8.174,8.2007,8.1665,7.9727,7.8169,0.0,0.0,0.0,0.0,0.0,0.0,0.0,0.0,0.0,0.0,0.0,0.0,0.0,0.0,0.0,0.0,0.0,0.0,0.0,0.0,0.0,0.0,0.0,0.0,0.0,0.0,0.0,0.0,0.0,0.0,0.0,0.0,0.0,0.0,0.0,0.0,0.0,0.0,0.0,0.0,0.0,0.0,0.0,0.0,0.0,0.0,0.0,0.0,0.0,0.0,0.0,0.0,0.0,0.0,0.0,0.0,0.0,0.0,0.0,0.0,0.0,0.0,0.0,0.0,0.0,0.0,0.0,0.0,0.0,0.0,0.0,0.0,0.0,0.0,0.0,0.0,0.0,0.0,0.0,0.0,0.0,0.0,0.0,0.0,0.0,0.0,0.0,0.0,0.0,0.0,0.0,0.0,0.0,0.0,0.0,0.0,0.0,0.0,0.0,0.0,0.0,0.0,0.0,0.0,0.0,0.0,0.0,0.0,0.0,7.9652,7.9347,7.9158,7.9348,7.7754,7.6766,0.0,0.0,0.0,0.0,0.0,0.0,0.0,0.0,0.0,0.0,0.0,0.0,0.0,0.0,0.0,0.0,0.0,0.0,0.0,0.0,0.0,0.0,0.0,0.0,0.0,0.0,0.0,0.0,0.0,0.0,0.0,0.0,0.0,0.0,0.0,0.0,0.0,0.0,0.0,0.0,0.0,0.0,0.0,0.0,0.0,0.0,0.0,0.0,0.0,0.0,0.0,0.0,0.0,0.0,0.0,0.0,0.0,0.0,0.0,0.0,0.0,0.0,0.0,0.0,0.0,0.0,0.0,0.0,0.0,0.0,0.0,0.0,0.0,0.0,0.0,0.0,0.0,0.0,0.0,0.0,0.0,0.0,0.0,0.0,0.0,0.0,0.0,0.0,0.0,0.0,0.0,0.0,0.0,0.0,0.0,0.0,0.0,0.0,0.0,0.0,0.0,0.0,0.0,0.0,0.0,0.0,0.0,0.0,0.0,7.8855,7.726,7.6842,7.764,7.6117,7.4754,0.0,0.0,0.0,0.0,0.0,0.0,0.0,0.0,0.0,0.0,0.0,0.0,0.0,0.0,0.0,0.0,0.0,0.0,0.0,0.0,0.0,0.0,0.0,0.0,0.0,0.0,0.0,0.0,0.0,0.0,0.0,0.0,0.0,0.0,0.0,0.0,0.0,0.0,0.0,0.0,0.0,0.0,0.0,0.0,0.0,0.0,0.0,0.0,0.0,0.0,0.0,0.0,0.0,0.0,0.0,0.0,0.0,0.0,0.0,0.0,0.0,0.0,0.0,0.0,0.0,0.0,0.0,0.0,0.0,0.0,0.0,0.0,0.0,0.0,0.0,0.0,0.0,0.0,0.0,0.0,0.0,0.0,0.0,0.0,0.0,0.0,0.0,0.0,0.0,0.0,0.0,0.0,0.0,0.0,0.0,0.0,0.0,0.0,0.0,0.0,0.0,0.0,0.0,0.0,0.0,0.0,0.0,0.0,0.0,7.6387,7.5779,7.5855,7.6691,7.5058,7.4299,7.4451,0.0,0.0,0.0,0.0,0.0,0.0,0.0,0.0,0.0,0.0,0.0,0.0,0.0,0.0,0.0,0.0,0.0,0.0,0.0,0.0,0.0,0.0,0.0,0.0,0.0,0.0,0.0,0.0,0.0,0.0,0.0,0.0,0.0,0.0,0.0,0.0,0.0,0.0,0.0,0.0,0.0,0.0,0.0,0.0,0.0,0.0,0.0,0.0,0.0,0.0,0.0,0.0,0.0,0.0,0.0,0.0,0.0,0.0,0.0,0.0,0.0,0.0,0.0,0.0,0.0,0.0,0.0,0.0,0.0,0.0,0.0,0.0,0.0,0.0,0.0,0.0,0.0,0.0,0.0,0.0,0.0,0.0,0.0,0.0,0.0,0.0,0.0,0.0,0.0,0.0,0.0,0.0,0.0,0.0,0.0,0.0,0.0,0.0,0.0,0.0,0.0,0.0,0.0,0.0,0.0,0.0,0.0,0.0,7.5362,7.5362,7.5514,7.5779,7.4451,7.3767,0.0,0.0,0.0,0.0,0.0,0.0,0.0,0.0,0.0,0.0,0.0,0.0,0.0,0.0,0.0,0.0,0.0,0.0,0.0,0.0,0.0,0.0,0.0,0.0,0.0,0.0,0.0,0.0,0.0,0.0,0.0,0.0,0.0,0.0,0.0,0.0,0.0,0.0,0.0,0.0,0.0,0.0,0.0,0.0,0.0,0.0,0.0,0.0,0.0,0.0,0.0,0.0,0.0,0.0,0.0,0.0,0.0,0.0,0.0,0.0,0.0,0.0,0.0,0.0,0.0,0.0,0.0,0.0,0.0,0.0,0.0,0.0,0.0,0.0,0.0,0.0,0.0,0.0,0.0,0.0,0.0,0.0,0.0,0.0,0.0,0.0,0.0,0.0,0.0,0.0,0.0,0.0,0.0,0.0,0.0,0.0,0.0,0.0,0.0,0.0,0.0,0.0,0.0,0.0,0.0,0.0,0.0,0.0,0.0,7.6121,7.6121,7.5741,7.502,7.4147,7.297,0.0,0.0,0.0,0.0,0.0,0.0,0.0,0.0,0.0,0.0,0.0,0.0,0.0,0.0,0.0,0.0,0.0,0.0,0.0,0.0,0.0,0.0,0.0,0.0,0.0,0.0,0.0,0.0,0.0,0.0,0.0,0.0,0.0,0.0,0.0,0.0,0.0,0.0,0.0,0.0,0.0,0.0,0.0,0.0,0.0,0.0,0.0,0.0,0.0,0.0,0.0,0.0,0.0,0.0,0.0,0.0,0.0,0.0,0.0,0.0,0.0,0.0,0.0,0.0,0.0,0.0,0.0,0.0,0.0,0.0,0.0,0.0,0.0,0.0,0.0,0.0,0.0,0.0,0.0,0.0,0.0,0.0,0.0,0.0,0.0,0.0,0.0,0.0,0.0,0.0,0.0,0.0,0.0,0.0,0.0,0.0,0.0,0.0,0.0,0.0,0.0,0.0,0.0,0.0,0.0,0.0,0.0,0.0,0.0,7.5433,0.0,7.4982,0.0,7.335,7.2362,0.0,0.0,0.0,0.0,0.0,0.0,0.0,0.0,0.0,0.0,0.0,0.0,0.0,0.0,0.0,0.0,0.0,0.0,0.0,0.0,0.0,0.0,0.0,0.0,0.0,0.0,0.0,0.0,0.0,0.0,0.0,0.0,0.0,0.0,0.0,0.0,0.0,0.0,0.0,0.0,0.0,0.0,0.0,0.0,0.0,0.0,0.0,0.0,0.0,0.0,0.0,0.0,0.0,0.0,0.0,0.0,0.0,0.0,0.0,0.0,0.0,0.0,0.0,0.0,0.0,0.0,0.0,0.0,0.0,0.0,0.0,0.0,0.0,0.0,0.0,0.0,0.0,0.0,0.0,0.0,0.0,0.0,0.0,0.0,0.0,0.0,0.0,0.0,0.0,0.0,0.0,0.0,0.0,0.0,0.0,0.0,0.0,0.0,0.0,0.0,0.0,0.0,0.0,0.0,0.0,0.0,0.0,0.0,0.0,7.4527,7.4901,7.4451,0.0,7.2476,7.1679,0.0,0.0,0.0,0.0,0.0,0.0,0.0,0.0,0.0,0.0,0.0,0.0,0.0,0.0,0.0,0.0,0.0,0.0,0.0,0.0,0.0,0.0,0.0,0.0,0.0,0.0,0.0,0.0,0.0,0.0,0.0,0.0,0.0,0.0,0.0,0.0,0.0,0.0,0.0,0.0,0.0,0.0,0.0,0.0,0.0,0.0,0.0,0.0,0.0,0.0,0.0,0.0,0.0,0.0,0.0,0.0,0.0,0.0,0.0,0.0,0.0,0.0,0.0,0.0,0.0,0.0,0.0,0.0,0.0,0.0,0.0,0.0,0.0,0.0,0.0,0.0,0.0,0.0,0.0,0.0,0.0,0.0,0.0,0.0,0.0,0.0,0.0,0.0,0.0,0.0,0.0,0.0,0.0,0.0,0.0,0.0,0.0,0.0,0.0,0.0,0.0,0.0,0.0,0.0,0.0,0.0,0.0,0.0,0.0,0.0,7.4451,7.4179,0.0,7.1717,7.0882,0.0,0.0,0.0,0.0,0.0,0.0,0.0,0.0,0.0,0.0,0.0,0.0,0.0,0.0,0.0,0.0,0.0,0.0,0.0,0.0,0.0,0.0,0.0,0.0,0.0,0.0,0.0,0.0,0.0,0.0,0.0,0.0,0.0,0.0,0.0,0.0,0.0,0.0,0.0,0.0,0.0,0.0,0.0,0.0,0.0,0.0,0.0,0.0,0.0,0.0,0.0,0.0,0.0,0.0,0.0,0.0,0.0,0.0,0.0,0.0,0.0,0.0,0.0,0.0,0.0,0.0,0.0,0.0,0.0,0.0,0.0,0.0,0.0,0.0,0.0,0.0,0.0,0.0,0.0,0.0,0.0,0.0,0.0,0.0,0.0,0.0,0.0,0.0,0.0,0.0,0.0,0.0,0.0,0.0,0.0,0.0,0.0,0.0,0.0,0.0,0.0,0.0,0.0,0.0,0.0,0.0,0.0,0.0,0.0,0.0,7.3046,0.0,7.2476,7.1785,7.0882,6.998,0.0,0.0,0.0,0.0,0.0,0.0,0.0,0.0,0.0,0.0,0.0,0.0,0.0,0.0,0.0,0.0,0.0,0.0,0.0,0.0,0.0,0.0,0.0,0.0,0.0,0.0,0.0,0.0,0.0,0.0,0.0,0.0,0.0,0.0,0.0,0.0,0.0,0.0,0.0,0.0,0.0,0.0,0.0,0.0,0.0,0.0,0.0,0.0,0.0,0.0,0.0,0.0,0.0,0.0,0.0,0.0,0.0,0.0,0.0,0.0,0.0,0.0,0.0,0.0,0.0,0.0,0.0,0.0,0.0,0.0,0.0,0.0,0.0,0.0,0.0,0.0,0.0,0.0,0.0,0.0,0.0,0.0,0.0,0.0,0.0,0.0,0.0,0.0,0.0,0.0,0.0,0.0,0.0,0.0,0.0,0.0,0.0,0.0,0.0,0.0,0.0,0.0,0.0,0.0,0.0,0.0,0.0,0.0,0.0,0.0,0.0,7.2021,7.1595,7.0882,0.0,0.0,0.0,0.0,0.0,0.0,0.0,0.0,0.0,0.0,0.0,0.0,0.0,0.0,0.0,0.0,0.0,0.0,0.0,0.0,0.0,0.0,0.0,0.0,0.0,0.0,0.0,0.0,0.0,0.0,0.0,0.0,0.0,0.0,0.0,0.0,0.0,0.0,0.0,0.0,0.0,0.0,0.0,0.0,0.0,0.0,0.0,0.0,0.0,0.0,0.0,0.0,0.0,0.0,0.0,0.0,0.0,0.0,0.0,0.0,0.0,0.0,0.0,0.0,0.0,0.0,0.0,0.0,0.0,0.0,0.0,0.0,0.0,0.0,0.0,0.0,0.0,0.0,0.0,0.0,0.0,0.0,0.0,0.0,0.0,0.0,0.0,0.0,0.0,0.0,0.0,0.0,0.0,0.0,0.0,0.0,0.0,0.0,0.0,0.0,0.0,0.0,0.0,0.0,0.0,0.0,0.0,0.0,0.0,0.0,0.0,7.1945,7.1253,7.1215,0.0,7.0085,0.0,0.0,0.0,0.0,0.0,0.0,0.0,0.0,0.0,0.0,0.0,0.0,0.0,0.0,0.0,0.0,0.0,0.0,0.0,0.0,0.0,0.0,0.0,0.0,0.0,0.0,0.0,0.0,0.0,0.0,0.0,0.0,0.0,0.0,0.0,0.0,0.0,0.0,0.0,0.0,0.0,0.0,0.0,0.0,0.0,0.0,0.0,0.0,0.0,0.0,0.0,0.0,0.0,0.0,0.0,0.0,0.0,0.0,0.0,0.0,0.0,0.0,0.0,0.0,0.0,0.0,0.0,0.0,0.0,0.0,0.0,0.0,0.0,0.0,0.0,0.0,0.0,0.0,0.0,0.0,0.0,0.0,0.0,0.0,0.0,0.0,0.0,0.0,0.0,0.0,0.0,0.0,0.0,0.0,0.0,0.0,0.0,0.0,0.0,0.0,0.0,0.0,0.0,0.0,0.0,0.0,0.0,0.0,0.0,0.0,0.0,0.0,7.0312,7.0198,6.9942,0.0,0.0,0.0,0.0,0.0,0.0,0.0,0.0,0.0,0.0,0.0,0.0,0.0,0.0,0.0,0.0,0.0,0.0,0.0,0.0,0.0,0.0,0.0,0.0,0.0,0.0,0.0,0.0,0.0,0.0,0.0,0.0,0.0,0.0,0.0,0.0,0.0,0.0,0.0,0.0,0.0,0.0,0.0,0.0,0.0,0.0,0.0,0.0,0.0,0.0,0.0,0.0,0.0,0.0,0.0,0.0,0.0,0.0,0.0,0.0,0.0,0.0,0.0,0.0,0.0,0.0,0.0,0.0,0.0,0.0,0.0,0.0,0.0,0.0,0.0,0.0,0.0,0.0,0.0,0.0,0.0,0.0,0.0,0.0,0.0,0.0,0.0,0.0,0.0,0.0,0.0,0.0,0.0,0.0,0.0,0.0,0.0,0.0,0.0,0.0,0.0,0.0,0.0,0.0,0.0,0.0,0.0,0.0,0.0,0.0,7.0047,7.0047,7.0047,6.9819,6.9477,0.0,0.0,0.0,0.0,0.0,0.0,0.0,0.0,0.0,0.0,0.0,0.0,0.0,0.0,0.0,0.0,0.0,0.0,0.0,0.0,0.0,0.0,0.0,0.0,0.0,0.0,0.0,0.0,0.0,0.0,0.0,0.0,0.0,0.0,0.0,0.0,0.0,0.0,0.0,0.0,0.0,0.0,0.0,0.0,0.0,0.0,0.0,0.0,0.0,0.0,0.0,0.0,0.0,0.0,0.0,0.0,0.0,0.0,0.0,0.0,0.0,0.0,0.0,0.0,0.0,0.0,0.0,0.0,0.0,0.0,0.0,0.0,0.0,0.0,0.0,0.0,0.0,0.0,0.0,0.0,0.0,0.0,0.0,0.0,0.0,0.0,0.0,0.0,0.0,0.0,0.0,0.0,0.0,0.0,0.0,0.0,0.0,0.0,0.0,0.0,0.0,0.0,0.0,0.0,0.0,0.0,0.0,0.0,0.0,0.0,0.0,0.0,0.0,0.0,6.8832,0.0,0.0,0.0,0.0,0.0,0.0,0.0,0.0,0.0,0.0,0.0,0.0,0.0,0.0,0.0,0.0,0.0,0.0,0.0,0.0,0.0,0.0,0.0,0.0,0.0,0.0,0.0,0.0,0.0,0.0,0.0,0.0,0.0,0.0,0.0,0.0,0.0,0.0,0.0,0.0,0.0,0.0,0.0,0.0,0.0,0.0,0.0,0.0,0.0,0.0,0.0,0.0,0.0,0.0,0.0,0.0,0.0,0.0,0.0,0.0,0.0,0.0,0.0,0.0,0.0,0.0,0.0,0.0,0.0,0.0,0.0,0.0,0.0,0.0,0.0,0.0,0.0,0.0,0.0,0.0,0.0,0.0,0.0,0.0,0.0,0.0,0.0,0.0,0.0,0.0,0.0,0.0,0.0,0.0,0.0,0.0,0.0,0.0,0.0,0.0,0.0,0.0,0.0,0.0,0.0,0.0,0.0,0.0,0.0,0.0,0.0,0.0,0.0,0.0,0.0,0.0,0.0,0.0,0.0,0.0,0.0,0.0,0.0,0.0,0.0,0.0,0.0,0.0,0.0,0.0,0.0,0.0,0.0,0.0,0.0,0.0,0.0,0.0,0.0,0.0,0.0,0.0,0.0,0.0,0.0,0.0,0.0,0.0,0.0,0.0,0.0,0.0,0.0,0.0,0.0,0.0,0.0,0.0,0.0,0.0,0.0,0.0,0.0,0.0,0.0,0.0,0.0,0.0,0.0,0.0,0.0,0.0,0.0,0.0,0.0,0.0,0.0,0.0,0.0,0.0,0.0,0.0,0.0,0.0,0.0,0.0,0.0,0.0,0.0,0.0,0.0,0.0,0.0,0.0,0.0,0.0,0.0,0.0,0.0,0.0,0.0,0.0,0.0,0.0,0.0,0.0,0.0,0.0,0.0,0.0,0.0,0.0,0.0,0.0,0.0,0.0,0.0,0.0,0.0,0.0,0.0,0.0,0.0,0.0,0.0,0.0,0.0,0.0,0.0,0.0,0.0,0.0,0.0,0.0,0.0,0.0,0.0,0.0,0.0,0.0,0.0,0.0,0.0,0.0,0.0,0.0,0.0,0.0,0.0,0.0,0.0,0.0,0.0,0.0,0.0,0.0,0.0,0.0,0.0,0.0,0.0,0.0,0.0,0.0,0.0,0.0,0.0,0.0,0.0,0.0,0.0,0.0,0.0,0.0,0.0,0.0,0.0,0.0,0.0,0.0,0.0,0.0,0.0,0.0,0.0,0.0,0.0,0.0,0.0,0.0,0.0,0.0,0.0,0.0,0.0,0.0,0.0,0.0,0.0,0.0,0.0,0.0,0.0,0.0,0.0,0.0,0.0,0.0,0.0,0.0,0.0,0.0,0.0,0.0,0.0,0.0,0.0,0.0,0.0,0.0,0.0,0.0,0.0,0.0,0.0,0.0,0.0,0.0,0.0,0.0,0.0,0.0,0.0,0.0,0.0,0.0,0.0,0.0,0.0,0.0,0.0,0.0,0.0,0.0,0.0,0.0,0.0,0.0,0.0,0.0,0.0,0.0,0.0,0.0,0.0,0.0,0.0,0.0,0.0,0.0,0.0,0.0,0.0,0.0,0.0,0.0,0.0,0.0,0.0,0.0,0.0,0.0,0.0,0.0,0.0,0.0,0.0,0.0,0.0,0.0,0.0,0.0,0.0,0.0,0.0,0.0,0.0,0.0,0.0,0.0,0.0,0.0,0.0,0.0,0.0,0.0,0.0,0.0,0.0,0.0,0.0,0.0,0.0,0.0,0.0,0.0,0.0,0.0,0.0,0.0,0.0,0.0,0.0,0.0,0.0,0.0,0.0,0.0,0.0,0.0,0.0,0.0,0.0,0.0,0.0,0.0,0.0,0.0,0.0,0.0,0.0,0.0,0.0,0.0,0.0,0.0,0.0,0.0,0.0,0.0,0.0,0.0,0.0,0.0,0.0,0.0,0.0,0.0,0.0,0.0,0.0,0.0,0.0,0.0,0.0,0.0,0.0,0.0,0.0,0.0,0.0,0.0,0.0,0.0,0.0,0.0,0.0,0.0,0.0,0.0,0.0,0.0,0.0,0.0,0.0,0.0,0.0,0.0,0.0,0.0,0.0,0.0,0.0,0.0,0.0,0.0,0.0,0.0,0.0,0.0,0.0,0.0,0.0,0.0,0.0,0.0,0.0,0.0,0.0,0.0,0.0,0.0,0.0,0.0,0.0,0.0,0.0,0.0,0.0,0.0,0.0,0.0,0.0,0.0,0.0,0.0,0.0,0.0,0.0,0.0,0.0,0.0,0.0,0.0,0.0,0.0,0.0,0.0,0.0,0.0,0.0,0.0,0.0,0.0,0.0,0.0,0.0,0.0,0.0,0.0,0.0,0.0,0.0,0.0,0.0,0.0,0.0,0.0,0.0,0.0,0.0,0.0,0.0,0.0,0.0,0.0,0.0,0.0,0.0,0.0,0.0,0.0,0.0,0.0,0.0,0.0,0.0,0.0,0.0,0.0,0.0,0.0,0.0,0.0,0.0,0.0,0.0,0.0,0.0,0.0,0.0,0.0,0.0,0.0,0.0,0.0,0.0,0.0,0.0,0.0,0.0,0.0,0.0,0.0,0.0,0.0,0.0,0.0,0.0,0.0,0.0,0.0,0.0,0.0,0.0,0.0,0.0,0.0,0.0,0.0,0.0,0.0,0.0,0.0,0.0,0.0,0.0,0.0,0.0,0.0,0.0,0.0,0.0,0.0,0.0,0.0,0.0,0.0,0.0,0.0,0.0,0.0,0.0,0.0,0.0,0.0,0.0,0.0,0.0,0.0,0.0,0.0,0.0,0.0,0.0,0.0,0.0,0.0,0.0,0.0,0.0,0.0,0.0,0.0,0.0,0.0,0.0,0.0,0.0,0.0,0.0,0.0,0.0,0.0,0.0,0.0,0.0,0.0,0.0,0.0,0.0,0.0,0.0,0.0,0.0,0.0,0.0,0.0,0.0,0.0,0.0,0.0,0.0,0.0,0.0,0.0,0.0,0.0,0.0,0.0,0.0,0.0,0.0,0.0,0.0,0.0,0.0,0.0,0.0,0.0,0.0,0.0,0.0,0.0,0.0,0.0,0.0,0.0,0.0,0.0,0.0,0.0,0.0,0.0,0.0,0.0,0.0,0.0,0.0,0.0,0.0,0.0,0.0,0.0,0.0,0.0,0.0,0.0,0.0,0.0,0.0,0.0,0.0,0.0,0.0,0.0,0.0,0.0,0.0,0.0,0.0,0.0,0.0,0.0,0.0,0.0,0.0,0.0,0.0,0.0,0.0,0.0,0.0,0.0,0.0,0.0,0.0,0.0,0.0,0.0,0.0,0.0,0.0,0.0,0.0,0.0,0.0,0.0,0.0,0.0,0.0,0.0,0.0,0.0,0.0,0.0,0.0,0.0,0.0,0.0,0.0,0.0,0.0,0.0,0.0,0.0,0.0,0.0,0.0,0.0,0.0,0.0,0.0,0.0,0.0,0.0,0.0,0.0,0.0,0.0,0.0,0.0,0.0,0.0,0.0,0.0,0.0,0.0,0.0,0.0,0.0,0.0,0.0,0.0,0.0,0.0,0.0,0.0,0.0,0.0,0.0,0.0,0.0,0.0,0.0,0.0,0.0,0.0,0.0,0.0,0.0,0.0,0.0,0.0,0.0,0.0,0.0,0.0,0.0,0.0,0.0,0.0,0.0,0.0,0.0,0.0,0.0,0.0,0.0,0.0,0.0,0.0,0.0,0.0,0.0,0.0,0.0,0.0,0.0,0.0,0.0,0.0,0.0,0.0,0.0,0.0,0.0,0.0,0.0,0.0,0.0,0.0,0.0,0.0,0.0,0.0,0.0,0.0,0.0,0.0,0.0,0.0,0.0,0.0,0.0,0.0,0.0,0.0,0.0,0.0,0.0,0.0,0.0,0.0,0.0,0.0,0.0,0.0,0.0,0.0,0.0,0.0,0.0,0.0,0.0,0.0,0.0,0.0,0.0,0.0,0.0,0.0,0.0,0.0,0.0,0.0,0.0,0.0,0.0,0.0,0.0,0.0,0.0,0.0,0.0,0.0,0.0,0.0,0.0,0.0,0.0,0.0,0.0,0.0,0.0,0.0,0.0,0.0,0.0,0.0,0.0,0.0,0.0,0.0,0.0,0.0,0.0,0.0,0.0,0.0,0.0,0.0,0.0,0.0,0.0,0.0,0.0,0.0,0.0,0.0,0.0,0.0,0.0,0.0,0.0,0.0,0.0,0.0,0.0,0.0,0.0,0.0,0.0,0.0,0.0,0.0,0.0,0.0,0.0,0.0,0.0,0.0,0.0,0.0,0.0,0.0,0.0,0.0]}]]]